[[[{"header":{"parameterUnit":"kt","parameterCategory":2,"dx":1,"dy":1,"la1":29.587661999999998,"la2":31.0,"lo1":-88.76705300000003,"lo2":-86.6583820000003,"nx":115,"ny":88,"refTime":"2022-09-26T06:00:00:Z","depth":0,"parameterNumber":1,"parameterNumberName":"U-component_of_WINDS"},"data":[6.7016,6.5423,6.4043,6.3244,6.2827,6.2801,6.2688,6.2152,6.0753,5.9808,5.8979,5.7288,5.5139,5.1545,5.1595,5.2106,5.2991,5.2934,5.2633,5.2672,5.3772,5.3576,5.3674,5.4575,5.4189,5.4427,5.5007,5.5111,5.5373,5.5953,5.6362,5.6433,5.6698,5.7431,5.7275,5.6605,5.6469,5.611,5.575,5.4845,5.3954,5.2687,5.019,5.002,5.002,5.002,5.002,5.002,5.002,5.002,5.002,5.002,5.002,5.002,5.002,5.002,5.002,5.002,5.002,5.0378,5.0566,5.0566,5.0755,5.0904,5.0904,5.0904,5.0923,5.0923,5.0923,5.0735,5.0735,5.0735,5.0923,5.0923,5.0923,5.3056,5.4137,5.2892,5.1819,5.2707,5.3792,5.4137,5.5006,5.4824,5.4845,5.4299,5.3241,5.3425,5.4117,5.4016,5.3547,5.4078,5.4788,5.4399,5.3505,5.322,5.3445,5.4684,5.5389,5.4299,5.4482,5.5729,5.5368,5.3425,5.2707,5.2522,5.1613,5.1446,5.0547,5.0735,5.019,5.0039,5.002,5.0735,5.1446,6.407,6.3769,6.3356,6.2381,6.1158,6.0846,6.0055,5.871,5.8287,5.7082,5.5241,5.3273,5.2256,5.1836,5.2056,5.2339,5.2313,5.1823,5.2839,5.3182,5.3225,5.2659,5.2966,5.387,5.3697,5.3596,5.3503,5.3605,5.3646,5.3811,5.4137,5.4502,5.575,5.6963,5.6448,5.5389,5.4158,5.3629,5.2892,5.1465,5.0923,5.0209,5.002,5.002,5.002,5.002,5.002,5.002,5.002,5.002,5.002,5.002,5.002,5.002,5.002,5.002,5.002,5.002,5.002,5.002,5.002,5.002,5.002,5.002,5.019,5.019,5.019,5.0209,5.0209,5.002,5.002,5.019,5.019,5.019,5.019,5.0735,5.0904,5.0547,5.0378,5.0378,5.0735,5.0735,5.0904,5.0904,5.0923,5.0735,5.0566,5.0735,5.1111,5.1691,5.1898,5.2437,5.2973,5.2045,5.0865,5.0923,5.1091,5.2337,5.2892,5.1633,5.1091,5.2151,5.2151,5.0904,5.0923,5.0904,5.019,5.002,5.002,5.019,5.0058,5.0096,5.0153,5.0342,5.021,6.2827,6.1534,5.9441,5.7992,5.7143,5.6058,5.5186,5.4504,5.4372,5.3115,5.1083,5.0576,4.9647,4.8804,4.9382,4.9439,4.9693,5.023,5.1005,5.1195,5.0704,5.1003,5.1239,5.1616,5.1933,5.1867,5.1613,5.1633,5.1593,5.1652,5.1633,5.1819,5.2171,5.2892,5.2892,5.2357,5.1652,5.1652,5.0735,5.019,5.019,5.002,5.002,5.002,5.002,5.002,5.002,5.002,5.002,5.002,5.002,5.002,5.002,5.002,5.002,5.002,5.002,5.002,5.002,5.002,5.002,5.002,5.002,5.002,5.002,5.002,5.002,5.002,5.002,5.002,5.002,5.002,5.002,5.002,5.002,5.002,5.002,5.002,5.002,5.002,5.002,5.002,5.002,5.002,5.002,5.002,5.002,5.0378,5.019,5.0586,5.0397,5.0566,5.0942,5.0378,5.002,5.002,5.002,5.002,5.0547,5.019,5.0378,5.0001,5.002,5.0209,5.0397,5.0096,5.0077,5.002,5.002,5.0361,5.0361,5.0323,5.0551,5.0836,5.1178,6.0676,5.8165,5.5647,5.4303,5.3655,5.2096,5.1639,5.1501,5.0704,4.9544,4.8285,4.8567,4.8041,4.7344,4.7898,4.8282,4.8217,4.9105,4.8684,4.9211,4.9568,4.9728,4.9056,4.9999,4.9755,4.9452,4.9641,5.019,5.0378,5.019,5.002,5.002,5.0378,5.0735,5.0735,5.0547,5.0378,5.0378,5.002,5.002,5.002,5.002,5.002,5.002,5.002,5.002,5.002,5.002,5.002,5.002,5.002,5.002,5.002,5.002,5.002,5.002,5.002,5.002,5.002,5.002,5.002,5.002,5.002,5.002,5.002,5.002,5.002,5.002,5.002,5.002,5.002,5.002,5.002,5.002,5.002,5.002,5.002,5.002,5.002,5.002,5.002,5.002,5.002,5.002,5.002,5.002,5.002,5.002,5.002,5.0115,5.0134,5.0172,5.0134,5.0153,5.002,5.002,5.002,5.002,5.0134,5.0077,5.002,5.002,5.002,5.0039,5.0285,5.0341,5.0417,5.0456,5.0608,5.0931,5.1064,5.1292,5.15,5.1684,5.2157,5.6048,5.2529,5.3968,5.3498,5.1777,5.1297,5.1201,5.1083,4.8167,4.7034,4.7236,4.7465,4.7164,4.6974,4.7082,4.7638,4.8194,4.7991,4.8136,4.966,4.8547,4.7599,4.7398,4.8445,4.7453,4.7644,4.7835,4.8426,4.9414,4.9034,4.8635,5.0039,4.9641,4.9812,4.9831,5.002,4.9224,4.909,4.9146,4.9337,4.9508,4.9622,5.002,4.9812,4.9622,4.9831,5.002,4.9793,5.002,5.002,5.002,5.002,5.002,5.002,5.002,5.002,5.002,5.002,5.002,5.002,5.002,5.002,5.002,5.002,5.002,5.002,5.002,5.002,5.002,5.002,5.002,5.002,5.002,5.002,5.002,5.002,5.002,5.002,5.002,5.002,5.002,5.002,5.002,5.002,5.002,5.002,5.002,5.002,5.0077,5.0248,5.0304,5.038,5.0532,5.0665,5.0589,5.0646,5.0418,5.0229,5.0285,5.0342,5.0722,5.0494,5.0096,5.0532,5.1026,5.0984,5.133,5.1614,5.1785,5.1804,5.1842,5.2165,5.2459,5.2693,5.2498,5.3093,5.1777,5.2415,5.1414,4.9516,4.8058,4.8096,4.8442,4.585,4.4728,4.4907,4.4027,4.4236,4.5494,4.5348,4.5735,4.6929,4.6315,4.5649,4.5842,4.4999,4.4645,4.4256,4.4451,4.4645,4.4451,4.4662,4.5842,4.5051,4.5262,4.6438,4.7435,4.7644,4.8426,4.9206,4.8997,4.8027,4.7405,4.7409,4.7463,4.709,4.6649,4.7243,4.7435,4.7435,4.8635,4.9414,4.6049,4.739,4.9585,4.9831,5.002,4.9849,4.9831,4.9812,4.9831,4.9831,4.9622,4.9622,4.9622,4.9831,5.002,5.002,4.9698,4.9717,4.9467,4.9449,4.9848,4.9754,5.0096,5.0058,5.0039,5.0058,5.0077,5.0077,5.0077,5.0077,5.0096,5.0096,5.0115,5.0115,5.0153,5.0096,5.002,5.0039,5.0229,5.0323,5.0342,5.0494,5.0798,5.1026,5.1064,5.1197,5.1273,5.1595,5.1747,5.1595,5.1443,5.1235,5.1216,5.1557,5.1519,5.133,5.15,5.1804,5.1962,5.1981,5.2476,5.2772,5.2412,5.2317,5.1921,5.1533,5.1916,5.1149,5.0814,4.9721,5.0464,4.9584,4.748,4.5368,4.4826,4.5269,4.3685,4.2927,4.3114,4.17,4.2489,4.3706,4.2822,4.3605,4.3655,4.3264,4.2267,4.2463,4.3068,4.1889,4.1692,4.2086,4.1692,4.1692,4.1889,4.2856,4.2283,4.2479,4.3655,4.4662,4.4857,4.5842,4.6595,4.7135,4.4999,4.3933,4.5003,4.4543,4.3755,4.4273,4.4662,4.5051,4.5034,4.3953,4.4952,4.2752,4.5877,4.9005,4.9902,4.9902,4.9808,4.8918,4.8789,4.8807,4.8826,4.8844,4.8635,4.8045,4.8236,4.9433,4.8399,4.8593,4.812,4.7874,4.8319,4.8836,4.9262,5.0365,5.079,5.0984,5.1178,5.1178,5.1178,5.1197,5.1216,5.1216,5.1235,5.1216,5.0909,5.0927,5.1121,5.1007,5.0874,5.0798,5.0817,5.0931,5.1159,5.1747,5.2032,5.2032,5.2089,5.1956,5.226,5.1929,5.2147,5.2365,5.2279,5.2165,5.2081,5.2119,5.2431,5.2421,5.2085,5.2373,5.2525,5.3219,5.374,5.3361,5.2328,5.1358,5.0418,4.9679,4.8822,4.9046,4.5745,4.8167,4.8204,4.6143,4.4313,4.2791,4.117,4.0995,4.1364,4.1942,4.1697,4.1533,4.2006,4.1841,4.1889,4.1889,4.1676,4.1281,4.1281,4.0687,3.9709,3.9525,4.0122,3.9525,3.9525,3.9923,4.0306,4.1676,4.0901,4.0901,4.1905,4.2086,4.2283,4.1809,4.1549,4.0942,4.0412,4.1193,4.0718,4.0932,4.1692,4.2283,4.2283,4.2006,4.0496,3.9239,3.9541,4.3625,4.6719,4.925,4.9556,4.8677,4.658,4.6105,4.5983,4.6228,4.6246,4.5877,4.4425,4.5417,4.7836,4.6007,4.4719,4.439,4.5182,4.6145,4.7186,4.7753,4.9582,5.1157,5.13,5.146,5.1478,5.1676,5.2127,5.2165,5.2203,5.2203,5.2108,5.1778,5.1722,5.1899,5.1994,5.1861,5.1291,5.065,5.0525,4.9888,5.08,5.0837,5.0837,5.1316,5.1753,5.2154,5.1775,5.1868,5.1888,5.2089,5.2089,5.2192,5.2173,5.1427,5.0959,5.1788,5.1934,5.1322,5.2007,5.3259,5.3504,5.219,5.0682,4.6942,4.6474,4.6089,4.7946,4.6622,4.7771,4.6805,4.4492,4.3181,4.2444,4.1474,3.9771,3.9299,3.9095,3.775,3.7937,3.8725,3.8138,3.7535,3.9325,3.7937,3.6958,3.6958,3.7146,3.6756,3.6365,3.6365,3.6756,3.6162,3.6553,3.7146,3.7549,3.716,3.7362,3.7952,3.8554,3.8598,3.7635,3.6986,3.6756,3.7202,3.7447,3.6972,3.7621,3.8628,3.96,3.9615,3.911,3.8047,3.5774,3.5958,3.7731,3.9755,4.2267,4.4695,4.4661,4.3788,4.3492,4.3426,4.3459,4.3509,4.3741,4.2503,4.3097,4.5623,4.3029,4.2125,4.3391,4.334,4.4348,4.4937,4.5186,4.5818,4.6636,4.8867,4.9252,4.989,5.0527,5.1835,5.209,5.2222,5.2421,5.2487,5.2176,5.2393,5.2412,5.2402,5.1608,5.0818,5.0237,4.8935,4.7984,4.789,4.7712,4.789,4.8229,4.8689,4.923,5.0199,5.0873,5.1314,5.1232,5.1113,5.126,5.0675,4.9682,4.8929,5.0014,5.0435,4.9921,4.9052,4.8771,4.9052,4.9368,4.7187,4.4128,4.3047,4.2415,4.7476,4.7315,4.6818,4.4653,4.1787,4.095,4.0306,3.9325,3.7765,3.677,3.6365,3.5172,3.5376,3.5972,3.5376,3.5376,3.6365,3.4586,3.419,3.4381,3.4586,3.419,3.4381,3.4777,3.4586,3.4177,3.4177,3.4586,3.4203,3.4777,3.4381,3.4394,3.6203,3.5987,3.5072,3.4774,3.4761,3.4761,3.4748,3.4748,3.4982,3.6436,3.7469,3.7497,3.7497,3.6685,3.5292,3.5081,3.556,3.6041,3.745,3.9522,3.9493,4.1587,4.1276,4.1448,4.1417,4.1401,4.1572,4.1011,4.1213,4.0924,4.0008,4.0007,4.1168,4.1581,4.2404,4.289,4.3423,4.4241,4.4247,4.6567,4.7348,4.7951,4.8758,5.0244,5.0873,5.1167,5.1371,5.1279,5.0628,5.0138,4.9968,4.916,4.8987,4.8514,4.8195,4.7272,4.6281,4.6009,4.5422,4.5437,4.5437,4.5872,4.649,4.7912,4.8729,4.8746,4.8916,4.9317,4.9317,4.8865,4.8046,4.7091,4.8048,4.878,4.8248,4.7501,4.5952,4.3955,4.3516,4.1988,4.0894,4.0241,3.9808,4.7211,4.7049,4.5379,4.2218,3.8592,3.8153,3.677,3.5172,3.4573,3.4586,3.4586,3.4381,3.4381,3.4381,3.4586,3.4381,3.479,3.4381,3.419,3.419,3.419,3.419,3.419,3.419,3.419,3.419,3.4306,3.4358,3.428,3.4475,3.4449,3.463,3.5006,3.5282,3.5813,3.5904,3.5917,3.5904,3.5813,3.5761,3.5709,3.5884,3.6284,3.6271,3.6258,3.6656,3.602,3.5926,3.5635,3.5069,3.5847,3.5861,3.6112,3.8491,3.9389,3.9628,3.9671,3.9715,3.9648,3.7947,3.7753,3.7887,3.8583,3.8382,3.8148,3.8187,3.9143,4.1071,4.1449,4.2838,4.4442,4.5961,4.5849,4.6216,4.6564,4.7403,4.7762,4.7991,4.8313,4.844,4.7288,4.6474,4.6442,4.6393,4.6743,4.6129,4.6041,4.5856,4.4971,4.4581,4.3925,4.3721,4.3501,4.3721,4.3486,4.522,4.6089,4.6089,4.6306,4.629,4.6306,4.6306,4.6105,4.5671,4.5548,4.5392,4.5658,4.5908,4.3196,4.07,3.9402,3.9178,3.8306,3.8081,3.8293,4.3773,4.3616,4.3239,4.1108,3.8138,3.6176,3.4981,3.4177,3.419,3.419,3.419,3.419,3.419,3.419,3.4203,3.4216,3.4241,3.4267,3.4228,3.4267,3.428,3.419,3.419,3.4241,3.4358,3.4293,3.4514,3.4813,3.4826,3.5228,3.5133,3.5159,3.5449,3.5566,3.602,3.6184,3.6184,3.5955,3.5714,3.5701,3.5981,3.5994,3.6007,3.6033,3.6059,3.6315,3.6839,3.7082,3.6813,3.6328,3.5817,3.5511,3.5904,3.632,3.6964,3.7165,3.7165,3.7165,3.7232,3.7148,3.7582,3.7319,3.7579,3.7618,3.7644,3.7856,3.7856,3.9151,3.9164,3.9151,3.9781,4.2195,4.3282,4.3501,4.4144,4.4799,4.4784,4.4784,4.5002,4.522,4.5872,4.5639,4.5406,4.4955,4.427,4.2136,4.1988,4.1767,4.1767,4.1988,4.156,4.156,4.156,4.1116,4.0463,4.1974,4.3282,4.3282,4.3267,4.3267,4.3267,4.3267,4.3062,4.2651,4.2224,4.2032,4.1839,4.1661,3.9877,3.7882,3.8094,3.8306,3.7644,3.7644,3.7644,4.2267,4.1873,3.9923,3.8138,3.6567,3.4981,3.419,3.419,3.419,3.419,3.419,3.419,3.419,3.4267,3.4345,3.4527,3.4553,3.4722,3.4878,3.4852,3.4852,3.4865,3.4865,3.4917,3.4826,3.4982,3.5202,3.541,3.5198,3.5644,3.5601,3.5599,3.614,3.6359,3.6592,3.6942,3.6929,3.6657,3.6398,3.6372,3.6592,3.6605,3.6605,3.6605,3.6605,3.7096,3.7574,3.7807,3.782,3.7394,3.6916,3.6696,3.6929,3.6916,3.6916,3.6916,3.6929,3.6916,3.7085,3.7425,3.7631,3.7644,3.7644,3.7644,3.7644,3.7644,3.7644,3.7644,3.7869,3.8081,3.7869,3.9388,4.0672,4.0894,4.1324,4.1988,4.2195,4.1767,4.1767,4.156,4.2415,4.3501,4.3501,4.3282,4.0686,3.8518,3.8081,3.7869,3.8518,3.8729,3.9178,3.9164,3.9388,3.8954,3.8954,3.9598,4.0241,4.0241,4.0227,4.0241,4.0241,4.0463,4.0672,3.9598,3.9178,3.9626,3.9402,3.8081,3.7644,3.7869,3.7869,3.7682,3.767,3.7644,3.7644,4.1692,4.1297,3.6365,3.4381,3.4381,3.419,3.419,3.419,3.4241,3.4267,3.4421,3.4332,3.4462,3.4501,3.493,3.5137,3.494,3.5482,3.5066,3.5117,3.5257,3.4206,3.3929,3.3702,3.4447,3.4459,3.3935,3.4201,3.4914,3.3975,3.3623,3.3072,3.4111,3.6136,3.6349,3.5949,3.6435,3.6186,3.7147,3.7436,3.7462,3.7488,3.7488,3.7527,3.7592,3.7644,3.7631,3.7738,3.7673,3.7673,3.7621,3.7397,3.7332,3.7358,3.7345,3.7345,3.7358,3.7345,3.7358,3.754,3.7644,3.7644,3.7644,3.7644,3.7644,3.7644,3.7644,3.7644,3.7644,3.7644,3.7644,3.7869,3.8518,3.8729,3.9388,3.9822,3.9822,3.9388,3.9164,3.8081,3.8293,3.9612,3.9822,4.0254,3.8306,3.8081,3.7644,3.7644,3.7644,3.7644,3.7644,3.7644,3.7644,3.7644,3.7644,3.8081,3.8954,3.894,3.894,3.8505,3.8293,3.8081,3.8729,3.8081,3.8081,3.7856,3.7644,3.7644,3.7644,3.7644,3.7734,3.789,3.7916,3.8124,3.8124,3.6162,3.6162,3.4777,3.419,3.419,3.419,3.4203,3.4254,3.4449,3.4631,3.4967,3.5085,3.5462,3.5553,3.5391,3.5293,3.552,3.3417,3.2586,3.1487,3.0373,2.9552,2.9836,2.9563,2.9552,2.882,3.0327,3.0012,3.0141,3.0119,3.0136,2.9741,3.1152,3.1152,3.1621,3.2994,3.3882,3.362,3.5759,3.7179,3.7405,3.7418,3.7644,3.7644,3.7644,3.7644,3.7644,3.7644,3.7644,3.7644,3.7644,3.7644,3.7644,3.7644,3.7644,3.7644,3.7644,3.7644,3.7644,3.7644,3.7644,3.7644,3.7644,3.7644,3.7644,3.7644,3.7644,3.7644,3.7644,3.7644,3.7644,3.7644,3.7644,3.7644,3.7644,3.7644,3.7869,3.8306,3.8081,3.7644,3.7644,3.7644,3.7644,3.7644,3.7644,3.7644,3.7644,3.7644,3.7644,3.7644,3.7644,3.7644,3.7644,3.7644,3.7644,3.7644,3.7644,3.7856,3.7856,3.7869,3.7856,3.7869,3.7644,3.7644,3.7869,3.776,3.8046,3.7838,3.767,3.7942,3.8176,3.8215,3.8397,3.876,3.8903,3.419,3.419,3.419,3.419,3.3997,3.2987,3.3282,3.3825,3.2362,3.2149,3.3377,3.3886,3.3874,3.3812,3.4181,3.4279,3.3658,3.1403,3.0119,2.949,2.8581,2.7661,2.7152,2.7406,2.7406,2.7985,2.764,2.6825,2.4843,2.5249,2.6302,2.6525,2.7694,2.8157,2.9311,3.0222,3.042,3.1108,3.2286,3.4384,3.5317,3.5771,3.6236,3.7657,3.7644,3.7644,3.7644,3.7644,3.7644,3.7644,3.7644,3.7644,3.7644,3.7644,3.7644,3.7644,3.7644,3.7644,3.7644,3.7644,3.7644,3.7644,3.7644,3.7644,3.7644,3.7644,3.7644,3.7644,3.7644,3.7644,3.7644,3.7644,3.7644,3.7644,3.7644,3.7644,3.7644,3.7644,3.7644,3.7644,3.7644,3.7644,3.7644,3.7644,3.7644,3.7644,3.7644,3.7644,3.7644,3.7644,3.7644,3.7644,3.7644,3.7644,3.7644,3.7644,3.7644,3.7644,3.7644,3.7644,3.7644,3.7644,3.7644,3.7644,3.7786,3.8072,3.8423,3.8436,3.8449,3.854,3.8643,3.8747,3.889,3.9241,3.941,3.3754,3.3754,3.3407,3.3213,3.2706,3.0842,3.1487,3.3072,2.8934,2.8368,3.0892,3.0891,3.0955,3.1141,3.1591,3.1626,3.0838,2.8997,2.7531,2.7282,2.6619,2.5926,2.6702,2.7221,2.5926,2.5685,2.6443,2.3973,2.1618,2.2313,2.3046,2.3514,2.5372,2.6999,2.607,2.7221,2.7925,2.8157,2.8388,3.0243,3.2559,3.2777,3.3929,3.5317,3.601,3.5783,3.533,3.5471,3.6702,3.7192,3.7682,3.7644,3.7644,3.7644,3.7644,3.7644,3.7644,3.7644,3.7644,3.7644,3.7644,3.7644,3.7644,3.7644,3.7644,3.7644,3.7644,3.7644,3.7644,3.7644,3.7644,3.7644,3.7644,3.7644,3.7644,3.7644,3.7644,3.7644,3.7644,3.7644,3.7644,3.7644,3.7644,3.7644,3.7644,3.7644,3.7644,3.7644,3.7644,3.7644,3.7644,3.7644,3.7644,3.7644,3.7644,3.7644,3.7644,3.7644,3.7644,3.7644,3.7644,3.7644,3.7644,3.7929,3.8033,3.828,3.8682,3.8994,3.9215,3.928,3.928,3.9345,3.9435,3.9565,3.976,3.0797,3.0636,2.8704,2.7801,2.7874,2.741,2.781,2.8121,2.7609,2.7529,2.8371,2.874,2.901,2.8877,2.9123,2.9149,2.872,2.598,2.4673,2.4207,2.2578,2.1185,2.095,2.095,2.142,2.2117,2.1648,2.0258,1.9322,2.0023,2.0016,2.0715,2.0487,2.0957,2.189,2.374,2.5165,2.6097,2.7491,2.9382,3.0809,3.0295,2.9772,3.0233,3.0243,3.0463,3.0159,3.0262,3.2174,3.6147,3.7799,3.7657,3.7644,3.7644,3.7644,3.7644,3.7644,3.7644,3.7644,3.7418,3.7179,3.7179,3.7644,3.7644,3.7644,3.7644,3.7644,3.7644,3.7644,3.7644,3.7644,3.7644,3.7644,3.7644,3.7644,3.7644,3.7644,3.7644,3.7644,3.7644,3.7644,3.7644,3.7644,3.7644,3.7644,3.7644,3.7644,3.7644,3.7644,3.7644,3.7644,3.7644,3.7644,3.7644,3.7644,3.7644,3.7657,3.776,3.7851,3.7929,3.7864,3.7825,3.8111,3.8462,3.8578,3.889,3.9033,3.9319,3.9591,3.9799,3.989,3.9968,4.0072,4.0176,4.0254,2.7877,2.792,2.6683,2.6237,2.6128,2.5341,2.5598,2.654,2.4652,2.4389,2.5331,2.5945,2.6129,2.6461,2.7569,2.7453,2.5587,2.2812,2.1648,2.1185,2.0023,1.9086,1.9322,1.9322,1.9086,1.9086,1.9086,1.9086,1.9086,1.9086,1.9086,1.9086,1.9086,1.9086,1.9558,2.0722,2.1663,2.214,2.3062,2.424,2.4975,2.633,2.7231,2.7916,2.8388,2.6665,2.4922,2.3846,2.8201,3.5696,3.7641,3.674,3.5403,3.4157,3.3005,3.3005,3.3005,3.3016,3.3245,3.4851,3.5317,3.5544,3.694,3.7644,3.7644,3.7418,3.7644,3.7644,3.7644,3.7644,3.7644,3.7644,3.7644,3.7644,3.7644,3.7644,3.7644,3.7644,3.7644,3.7644,3.7644,3.7644,3.7644,3.7644,3.7644,3.7644,3.7644,3.7644,3.7644,3.7644,3.7644,3.7644,3.7644,3.7644,3.7657,3.767,3.7695,3.7981,3.8176,3.8345,3.841,3.8604,3.8825,3.9098,3.9448,3.9786,3.9929,3.9981,4.0098,4.0241,4.0357,4.0487,4.0643,4.0747,4.0799,2.5202,2.5297,2.5083,2.4863,2.4608,2.3017,2.3746,2.5153,2.128,2.0558,2.275,2.2867,2.2975,2.3368,2.5784,2.5372,2.2812,2.095,1.9558,1.9322,1.9322,1.9086,1.9086,1.9086,1.9086,1.9086,1.9086,1.9086,1.9086,1.9086,1.9086,1.9086,1.9086,1.9086,1.9086,1.9086,1.9558,2.003,2.0023,2.0023,2.0736,2.2125,2.3973,2.5605,2.5596,2.3865,2.0443,1.9929,2.4751,3.6013,3.6513,3.4316,3.1468,2.9071,2.8619,2.885,2.9311,2.9542,2.9772,3.1152,3.2068,3.2754,3.4145,3.5557,3.5783,3.5783,3.509,3.5317,3.5557,3.6249,3.6714,3.7405,3.7644,3.7644,3.7644,3.7644,3.7644,3.7644,3.7644,3.7644,3.7644,3.7644,3.7644,3.7644,3.7644,3.7644,3.7644,3.7644,3.7644,3.7644,3.7644,3.7644,3.7657,3.7695,3.7773,3.7851,3.8098,3.8488,3.8656,3.8838,3.8981,3.9267,3.9643,3.9955,4.0292,4.0193,4.0361,4.0786,4.0799,4.063,4.0786,4.0981,4.0929,4.0877,4.1007,2.2401,2.2481,2.0235,1.9658,1.9705,1.9794,2.0167,2.0402,1.9309,1.9571,1.9814,1.9807,2.0237,1.9995,2.0715,2.0487,1.9787,1.9086,1.9086,1.9086,1.9086,1.9086,1.9086,1.9086,1.9086,1.9086,1.9086,1.9086,1.9086,1.9086,1.9086,1.9086,1.9086,1.9086,1.9086,1.9086,1.9086,1.9086,1.9086,1.9086,1.9322,1.9551,2.0251,2.142,2.1413,2.0202,1.9457,1.987,2.4432,3.6269,3.2744,2.8718,2.5829,2.4665,2.5363,2.8157,2.7684,2.7231,2.7462,2.8378,2.9071,2.9081,3.0003,3.0003,3.0233,3.0692,3.0692,3.0473,3.0933,3.161,3.3678,3.5544,3.7179,3.7644,3.7644,3.7644,3.7644,3.7644,3.7179,3.7179,3.6702,3.6702,3.694,3.6249,3.7179,3.7644,3.7644,3.7644,3.7644,3.7644,3.7405,3.7179,3.7773,3.7851,3.8176,3.8345,3.8838,3.9124,3.9189,3.9306,3.9384,3.9431,3.9741,4.0257,4.0284,4.009,4.0192,3.9775,4.0035,4.102,4.0515,3.875,3.9256,4.0774,3.8997,1.9456,1.9764,1.8775,1.8407,1.8697,1.8967,1.9086,1.9086,1.9086,1.9086,1.9086,1.9086,1.9086,1.9086,1.9086,1.9086,1.9086,1.9086,1.9086,1.9086,1.9086,1.9086,1.9086,1.9086,1.9086,1.9086,1.9086,1.9086,1.9086,1.9086,1.9086,1.9086,1.9086,1.9086,1.9086,1.9086,1.9086,1.9086,1.9086,1.9086,1.9086,1.9086,1.9086,1.9086,1.9086,1.9086,1.9086,1.902,2.2406,2.5348,2.5044,2.2578,2.142,2.142,2.1882,2.328,2.3514,2.3514,2.3982,2.4906,2.5838,2.5829,2.7684,2.7925,2.8388,2.8388,2.8388,2.8388,2.8388,2.885,3.0452,3.345,3.4839,3.5532,3.6702,3.7644,3.7418,3.6249,3.4851,3.3461,3.4384,3.5078,3.4384,3.2537,3.3005,3.4851,3.5078,3.4396,3.4624,3.5783,3.5783,3.6287,3.7157,3.7934,3.8308,3.8981,3.9435,3.9682,3.9747,3.9825,3.8717,3.8931,3.9363,3.9616,3.9403,3.9503,3.7747,3.8043,3.7807,3.7263,3.6471,3.5973,3.5724,3.6471,3.5464,1.7576,1.7906,1.8143,1.844,1.8769,1.8993,1.9086,1.9086,1.9086,1.9086,1.9086,1.9086,1.9086,1.9086,1.9086,1.9086,1.9086,1.9086,1.9086,1.9086,1.9086,1.9086,1.9086,1.9086,1.9086,1.9086,1.9086,1.9086,1.9086,1.9086,1.9086,1.9086,1.9086,1.9086,1.9086,1.9086,1.9086,1.9086,1.9086,1.9086,1.9086,1.9086,1.9086,1.9086,1.9086,1.9086,1.9086,1.9086,1.9086,1.9086,1.9322,1.9787,1.9558,1.9322,1.9558,1.9787,1.9551,1.9322,1.9558,2.142,2.282,2.2812,2.4432,2.6293,2.6302,2.6061,2.607,2.6302,2.6302,2.6302,2.7453,3.0222,3.1599,3.2297,3.3929,3.509,3.509,3.3461,3.137,2.9992,3.0682,3.2068,3.1839,3.0003,3.0222,3.1599,3.1599,3.0911,3.161,3.3005,3.3461,3.4145,3.5357,3.7,3.7647,3.9332,3.9838,4.0215,4.0305,4.0154,3.761,3.6792,3.5969,3.6332,3.7771,3.5973,3.3455,3.3737,3.4727,3.2964,3.1436,3.2441,3.2692,3.1939,3.1436,1.7695,1.8196,1.8222,1.8545,1.8987,1.9079,1.9086,1.9086,1.9086,1.9086,1.9086,1.9086,1.9086,1.9086,1.9086,1.9086,1.9086,1.9086,1.9086,1.9086,1.9086,1.9086,1.9086,1.9086,1.9086,1.9086,1.9086,1.9086,1.9086,1.9086,1.9086,1.9086,1.9086,1.9086,1.9086,1.9086,1.9086,1.9086,1.9086,1.9086,1.9086,1.9086,1.9086,1.9086,1.9086,1.9086,1.9086,1.9086,1.9086,1.9086,1.9086,1.9086,1.9086,1.9086,1.9086,1.9086,1.9086,1.9086,1.9322,1.9558,1.9787,2.0023,2.0251,2.0023,2.0722,2.1185,2.1185,2.1185,2.0016,2.1882,2.3973,2.6767,2.8378,2.884,2.885,2.9311,2.9311,2.9081,2.885,2.8619,2.8378,2.885,2.885,2.8619,2.8388,2.8599,2.8609,2.7916,2.7906,2.9762,3.1152,3.1654,3.3196,3.53,3.723,3.8968,3.902,3.8896,3.8443,3.7766,3.5181,3.3955,3.2703,3.2534,3.394,3.2942,3.0282,2.9915,3.0884,2.9877,2.8154,2.9166,3.0177,2.8416,2.7909,1.7609,1.7991,1.8163,1.8473,1.8848,1.902,1.9086,1.9086,1.9086,1.9086,1.9086,1.9086,1.9086,1.9086,1.9086,1.9086,1.9086,1.9086,1.9086,1.9086,1.9086,1.9086,1.9086,1.9086,1.9086,1.9086,1.9086,1.9086,1.9086,1.9086,1.9086,1.9086,1.9086,1.9086,1.9086,1.9086,1.9086,1.9086,1.9086,1.9086,1.9086,1.9086,1.9086,1.9086,1.9086,1.9086,1.9086,1.9086,1.9086,1.9086,1.9086,1.9086,1.9086,1.9086,1.9086,1.9086,1.9086,1.9086,1.9086,1.9086,1.9086,1.9086,1.9086,1.9086,1.9086,1.9086,1.9086,1.9086,1.9086,1.9787,2.095,2.2117,2.374,2.5131,2.3973,2.3046,2.3046,2.4673,2.4665,2.3973,2.444,2.5596,2.5596,2.3973,2.3973,2.5139,2.5605,2.4906,2.4207,2.6989,2.8639,2.8352,2.9095,3.1412,3.3522,3.4421,3.4721,3.4313,3.3858,3.363,3.2441,3.1939,3.0177,2.8987,3.0257,3.0105,2.7372,2.5719,2.6656,2.6614,2.512,2.4633,2.4633,2.3624,2.3624,1.7543,1.7807,1.8031,1.8334,1.869,1.8881,1.902,1.9086,1.9086,1.9086,1.9086,1.9086,1.9086,1.9086,1.9086,1.9086,1.9086,1.9086,1.9086,1.9086,1.9086,1.9086,1.9086,1.9086,1.9086,1.9086,1.9086,1.9086,1.9086,1.9086,1.9086,1.9086,1.9086,1.9086,1.9086,1.9086,1.9086,1.9086,1.9086,1.9086,1.9086,1.9086,1.9086,1.9086,1.9086,1.9086,1.9086,1.9086,1.9086,1.9086,1.9086,1.9086,1.9086,1.9086,1.9086,1.9086,1.9086,1.9086,1.9086,1.9086,1.9086,1.9086,1.9086,1.9086,1.9086,1.9086,1.9086,1.9086,1.9086,1.9086,1.9086,1.9322,2.0251,2.1882,2.095,1.9551,1.9787,2.095,2.1648,1.9787,2.1185,2.2351,2.2117,2.0957,2.0487,2.1882,2.2351,2.189,2.142,2.3046,2.5139,2.4652,2.5925,2.7961,2.9375,3.0242,3.0371,3.0167,2.9681,2.9429,2.8416,2.8163,2.6648,2.5646,2.6346,2.6388,2.4009,2.2699,2.2162,2.2349,2.2106,2.2356,2.1348,2.1097,2.1348,1.7536,1.778,1.7813,1.815,1.8604,1.8703,1.8855,1.9053,1.9086,1.9086,1.9086,1.9086,1.9086,1.9086,1.9086,1.9086,1.9086,1.9086,1.9086,1.9086,1.9086,1.9086,1.9086,1.9086,1.9086,1.9086,1.9086,1.9086,1.9086,1.9086,1.9086,1.9086,1.9086,1.9086,1.9086,1.9086,1.9086,1.9086,1.9086,1.9086,1.9086,1.9086,1.9086,1.9086,1.9086,1.9086,1.9086,1.9086,1.9086,1.9086,1.9086,1.9086,1.9086,1.9086,1.9086,1.9086,1.9086,1.9086,1.9086,1.9086,1.9086,1.9086,1.9086,1.9086,1.9086,1.9086,1.9086,1.9086,1.9086,1.9086,1.9086,1.9086,1.9086,1.9315,1.9322,1.9086,1.9086,1.9322,1.9558,1.9329,1.9092,1.9322,1.9787,1.9558,1.9322,1.9787,1.9787,1.9787,1.9558,2.0023,2.1193,2.2369,2.3917,2.5672,2.6672,2.7216,2.7629,2.6902,2.5893,2.4633,2.3368,2.3119,2.2356,2.2106,2.2155,2.1891,2.1104,2.1368,2.1104,2.0839,2.0839,2.0839,2.0839,2.0839,2.1091,1.7438,1.755,1.7721,1.7925,1.8143,1.8539,1.8736,1.8842,1.9013,1.9086,1.9086,1.9086,1.9086,1.9086,1.9086,1.9086,1.9086,1.9086,1.9086,1.9086,1.9086,1.9086,1.9086,1.9086,1.9086,1.9086,1.9086,1.9086,1.9086,1.9086,1.9086,1.9086,1.9086,1.9086,1.9086,1.9086,1.9086,1.9086,1.9086,1.9086,1.9086,1.9086,1.9086,1.9086,1.9086,1.9086,1.9086,1.9086,1.9086,1.9086,1.9086,1.9086,1.9086,1.9086,1.9086,1.9086,1.9086,1.9086,1.9086,1.9086,1.9086,1.9086,1.9086,1.9086,1.9086,1.9086,1.9086,1.9086,1.9086,1.9086,1.9086,1.9086,1.9086,1.9086,1.9086,1.9086,1.9086,1.9086,1.9086,1.9086,1.9086,1.9086,1.9086,1.9086,1.9086,1.9086,1.9086,1.9086,1.9086,1.9086,1.9558,2.0384,2.1742,2.2798,2.3781,2.4399,2.4817,2.3835,2.2834,2.1592,2.0839,2.0839,2.0839,2.0839,2.0839,2.0839,2.0839,2.0839,2.0839,2.0839,2.0839,2.0839,2.0839,2.0839,2.0839,1.7372,1.7398,1.7589,1.7708,1.7853,1.8222,1.8466,1.8572,1.8842,1.8941,1.8941,1.9033,1.9086,1.9086,1.9086,1.9086,1.9086,1.9086,1.9086,1.9086,1.9086,1.9086,1.9086,1.9086,1.9086,1.9086,1.9086,1.9086,1.9086,1.9086,1.9086,1.9086,1.9086,1.9086,1.9086,1.9086,1.9086,1.9086,1.9086,1.9086,1.9086,1.9086,1.9086,1.9086,1.9086,1.9086,1.9086,1.9086,1.9086,1.9086,1.9086,1.9086,1.9086,1.9086,1.9086,1.9086,1.9086,1.9086,1.9086,1.9086,1.9086,1.9086,1.9086,1.9086,1.9086,1.9086,1.9086,1.9086,1.9086,1.9086,1.9086,1.9086,1.9086,1.9086,1.9086,1.9086,1.9086,1.9086,1.9086,1.9086,1.9086,1.9086,1.9086,1.9086,1.9086,1.9086,1.9086,1.9086,1.9086,1.9086,1.9086,1.9119,1.9508,2.0587,2.1577,2.2377,2.2595,2.1854,2.1489,2.0833,2.0839,2.0839,2.0839,2.0839,2.0839,2.0839,2.0839,2.0839,2.0839,2.0839,2.0839,2.0839,2.0839,2.0839,2.0839,1.7372,1.7378,1.7385,1.7543,1.7747,1.7846,1.7991,1.8262,1.8552,1.8631,1.8611,1.8914,1.9046,1.9073,1.9079,1.9079,1.9066,1.9079,1.9086,1.9086,1.9086,1.9086,1.9086,1.9086,1.9086,1.9086,1.9086,1.9086,1.9086,1.9086,1.9086,1.9086,1.9086,1.9086,1.9086,1.9086,1.9086,1.9086,1.9086,1.9086,1.9086,1.9086,1.9086,1.9086,1.9086,1.9086,1.9086,1.9086,1.9086,1.9086,1.9086,1.9086,1.9059,1.902,1.9053,1.9013,1.9053,1.9066,1.9053,1.9026,1.8993,1.8993,1.9046,1.9007,1.9026,1.9046,1.9059,1.9079,1.9086,1.9086,1.9086,1.9086,1.9086,1.9086,1.9086,1.9086,1.9086,1.9086,1.9086,1.9086,1.9086,1.9086,1.9086,1.9086,1.9086,1.9086,1.9086,1.9086,1.9086,1.9086,1.9086,1.9145,1.9402,1.9752,2.0048,2.0319,2.0352,2.0424,2.0602,2.0747,2.0721,2.0826,2.0826,2.0839,2.0839,2.0839,2.0839,2.0839,2.0839,2.0839,2.0839,2.0839,2.0839,2.0839,2.0839,1.7372,1.7372,1.7372,1.7424,1.753,1.7708,1.7846,1.7965,1.8248,1.8361,1.8394,1.8664,1.8809,1.8835,1.9007,1.9,1.8842,1.9007,1.9086,1.9086,1.9086,1.9086,1.9086,1.9086,1.9086,1.9086,1.9086,1.9086,1.9086,1.9086,1.9086,1.9086,1.9086,1.9086,1.9086,1.9086,1.9086,1.9086,1.9086,1.9086,1.9086,1.9086,1.9086,1.9086,1.9086,1.9086,1.9086,1.9086,1.9086,1.9086,1.9086,1.9013,1.9048,1.8624,1.8512,1.8512,1.8519,1.8512,1.8512,1.8512,1.8512,1.8512,1.8519,1.8611,1.8789,1.8809,1.8914,1.9046,1.9086,1.9086,1.9086,1.9079,1.9086,1.9086,1.9086,1.9086,1.9086,1.9086,1.9086,1.9086,1.9086,1.9086,1.9086,1.9086,1.9086,1.9086,1.9086,1.9086,1.9086,1.9086,1.9086,1.9112,1.9336,1.9351,1.954,1.9883,1.9916,2.0121,2.0312,2.045,2.0536,2.0727,2.082,2.0833,2.0839,2.0839,2.0839,2.0839,2.0839,2.0839,2.0839,2.0839,2.0839,2.0839,2.0839,1.7372,1.7372,1.7372,1.7372,1.7391,1.7563,1.7649,1.7668,1.7945,1.8077,1.813,1.8394,1.8519,1.8525,1.8703,1.8684,1.8558,1.8809,1.8941,1.8954,1.9046,1.9086,1.9086,1.9086,1.9086,1.9086,1.9086,1.9086,1.9086,1.9086,1.9086,1.9086,1.9086,1.9086,1.9086,1.9086,1.9086,1.9086,1.9086,1.9086,1.9086,1.9086,1.9086,1.9086,1.9086,1.9046,1.8954,1.8947,1.9128,1.9022,1.9022,1.8941,1.8997,1.8568,1.8235,1.8235,1.8235,1.8235,1.8235,1.8235,1.8235,1.8235,1.8235,1.8341,1.8479,1.8519,1.8585,1.875,1.8862,1.8868,1.8822,1.8782,1.8822,1.8914,1.8941,1.8967,1.9053,1.9086,1.9086,1.9086,1.9086,1.9086,1.9086,1.9086,1.9086,1.9086,1.9086,1.9086,1.9086,1.9086,1.9086,1.9125,1.9251,1.9396,1.9221,1.9475,1.9587,1.9824,2.0029,2.018,2.0246,2.0404,2.0569,2.0563,2.0576,2.0602,2.0813,2.082,2.0839,2.0839,2.0839,2.0839,2.0833,2.0839,2.0839,1.7372,1.7372,1.7372,1.7372,1.7372,1.7385,1.7385,1.7418,1.7662,1.778,1.7813,1.809,1.8209,1.8183,1.8222,1.8222,1.8255,1.8525,1.8657,1.8684,1.8901,1.9046,1.9073,1.9073,1.9073,1.9086,1.9086,1.9086,1.9086,1.9086,1.9086,1.9086,1.9086,1.9086,1.9086,1.9086,1.9086,1.9086,1.9086,1.9086,1.9086,1.9066,1.9053,1.9046,1.904,1.8901,1.8935,1.8901,1.9011,1.8953,1.8966,1.8946,1.8919,1.8441,1.8183,1.8169,1.8169,1.8176,1.8163,1.815,1.815,1.8169,1.8123,1.8189,1.8209,1.8216,1.8248,1.8255,1.8499,1.8499,1.8295,1.8308,1.8413,1.8624,1.8664,1.8782,1.902,1.9026,1.9066,1.9086,1.9086,1.9086,1.9086,1.9086,1.9086,1.9086,1.9086,1.9086,1.9086,1.9086,1.9086,1.9092,1.9099,1.9099,1.9125,1.9284,1.9448,1.9574,1.9732,1.9956,1.9963,2.0009,2.016,2.0272,2.0332,2.047,2.0694,2.078,2.0747,2.0708,2.0681,2.0754,2.0708,2.078,2.0839,1.7372,1.7372,1.7372,1.7372,1.7372,1.7372,1.7372,1.7385,1.7451,1.7484,1.7523,1.7787,1.7807,1.7655,1.7827,1.7912,1.7952,1.8229,1.8361,1.8367,1.8433,1.8585,1.8776,1.8789,1.8895,1.9059,1.9079,1.9086,1.9086,1.9086,1.9086,1.9086,1.9086,1.9086,1.9086,1.9086,1.9086,1.9086,1.9086,1.9086,1.9059,1.8895,1.8796,1.8776,1.8585,1.844,1.8361,1.7893,1.7842,1.7777,1.7771,1.7681,1.7704,1.7678,1.7593,1.7635,1.7609,1.7609,1.7609,1.7609,1.7609,1.7609,1.7616,1.7695,1.7866,1.7912,1.8011,1.8163,1.811,1.8011,1.7939,1.811,1.8255,1.8334,1.8361,1.8473,1.8743,1.8557,1.8622,1.9053,1.9059,1.9086,1.9086,1.9086,1.9086,1.9086,1.9086,1.9086,1.9086,1.9086,1.9086,1.9086,1.9086,1.9092,1.9092,1.9198,1.9191,1.927,1.9462,1.9659,1.9659,1.987,2.0055,2.0068,2.0193,2.0305,2.0358,2.0391,2.0378,2.0312,2.0371,2.0503,2.0523,2.0708,2.0793,1.7372,1.7372,1.7372,1.7372,1.7372,1.7372,1.7372,1.7372,1.7372,1.7372,1.7398,1.7543,1.753,1.7385,1.7543,1.7622,1.7642,1.7919,1.8057,1.8064,1.8196,1.8341,1.8486,1.8519,1.8591,1.8736,1.8868,1.8928,1.8934,1.904,1.9086,1.9086,1.9086,1.9086,1.9086,1.9086,1.9086,1.9086,1.9086,1.8974,1.8756,1.8578,1.8499,1.8479,1.8328,1.8183,1.784,1.7591,1.731,1.7215,1.743,1.7347,1.7398,1.7391,1.7274,1.7227,1.7194,1.7141,1.7022,1.7009,1.7062,1.7194,1.7194,1.7312,1.7589,1.7622,1.7629,1.7682,1.7543,1.7504,1.7616,1.778,1.7932,1.8038,1.8057,1.8169,1.8466,1.8264,1.8374,1.8875,1.8921,1.8947,1.9059,1.9086,1.9086,1.9086,1.9086,1.9086,1.9086,1.9086,1.9086,1.9092,1.9132,1.9152,1.9158,1.9152,1.8928,1.9191,1.931,1.9175,1.9201,1.9593,1.9738,2.0096,2.0069,2.0069,1.9709,2.0108,2.0141,2.0147,2.0213,2.0279,2.0259,2.0398,2.0503,1.7286,1.7293,1.7266,1.7293,1.7279,1.7312,1.7345,1.7372,1.7372,1.7358,1.7266,1.7293,1.7293,1.7332,1.7332,1.7358,1.7411,1.7642,1.7754,1.7787,1.7847,1.7752,1.7507,1.8242,1.8255,1.8295,1.8519,1.8637,1.8651,1.8868,1.9,1.9007,1.9007,1.8987,1.9,1.8993,1.9,1.9007,1.9013,1.8763,1.8268,1.8209,1.8196,1.8196,1.8163,1.7801,1.7321,1.7295,1.7398,1.7365,1.7345,1.7332,1.7286,1.7293,1.7167,1.6917,1.689,1.6778,1.6534,1.6488,1.662,1.6857,1.689,1.7002,1.7246,1.7286,1.7174,1.6989,1.6904,1.7022,1.7246,1.7326,1.7451,1.7655,1.7728,1.7873,1.8123,1.7964,1.8075,1.8598,1.8637,1.8491,1.8908,1.9,1.9033,1.902,1.9066,1.9125,1.9125,1.9119,1.8882,1.7922,1.7972,1.7777,1.7539,1.8034,1.7289,1.7545,1.804,1.7563,1.7092,1.7354,1.8108,1.683,1.8244,1.8052,1.8296,1.8961,1.8652,1.7613,1.7901,1.8745,1.9266,1.9571,1.9304,1.6686,1.6686,1.6686,1.6686,1.6712,1.693,1.7167,1.7365,1.7365,1.7115,1.6726,1.6686,1.6818,1.7022,1.7029,1.7154,1.7358,1.7438,1.7471,1.7477,1.7365,1.616,1.4066,1.6803,1.8084,1.8501,1.8314,1.8334,1.8341,1.8394,1.8433,1.8426,1.8433,1.8433,1.8426,1.8433,1.8426,1.8433,1.8426,1.8367,1.8229,1.8005,1.7892,1.7879,1.7688,1.7543,1.7254,1.7248,1.7332,1.7273,1.7253,1.7362,1.7346,1.7112,1.6866,1.66,1.6587,1.6561,1.6495,1.6488,1.6515,1.6581,1.6587,1.662,1.6679,1.6686,1.6653,1.66,1.6587,1.662,1.6726,1.6897,1.7055,1.7128,1.7326,1.7563,1.7833,1.7658,1.7552,1.8268,1.8341,1.8354,1.8459,1.8426,1.8337,1.8382,1.8817,1.8967,1.8986,1.8986,1.6778,1.3628,1.1711,1.1727,1.1727,1.1727,1.1727,1.1727,1.1727,1.1731,1.1727,1.1727,1.1756,1.1776,1.2019,1.1824,1.1828,1.1841,1.1853,1.1877,1.1893,1.2147,1.2752,1.6371,1.8448,1.6488,1.6488,1.6488,1.6488,1.6495,1.666,1.6824,1.6963,1.697,1.6785,1.6495,1.6488,1.6574,1.6719,1.6732,1.6818,1.6976,1.7115,1.7174,1.7187,1.7163,1.5534,1.2521,1.5905,1.7794,1.7939,1.8024,1.8077,1.8334,1.8196,1.8248,1.8268,1.8242,1.8235,1.8235,1.8235,1.8235,1.8229,1.7978,1.7846,1.7833,1.7688,1.7602,1.7602,1.7457,1.7319,1.7393,1.7393,1.7253,1.7373,1.6732,1.6653,1.6923,1.6692,1.6429,1.631,1.6304,1.6244,1.6099,1.6099,1.6152,1.629,1.6297,1.6244,1.6099,1.6093,1.6152,1.6284,1.6297,1.635,1.6482,1.6633,1.6732,1.6726,1.6864,1.7088,1.7339,1.7176,1.7346,1.7952,1.8254,1.8097,1.8016,1.8192,1.7602,1.4826,1.455,1.4513,1.4609,1.2158,0.9029,-0.0,-0.0,-0.0,0.5264,0.5264,0.5264,0.5264,0.5264,0.5264,0.5264,0.5264,0.5266,0.5266,0.5273,0.5277,0.527,-0.0,0.5264,0.5264,0.5264,0.5275,0.6761,1.3434,1.5418,1.6363,1.6363,1.637,1.6363,1.637,1.6409,1.6429,1.6429,1.6389,1.637,1.6363,1.637,1.6389,1.6429,1.6429,1.6449,1.6501,1.6745,1.6871,1.689,1.7007,1.4946,1.1423,1.544,1.7261,1.7261,1.7688,1.782,1.81,1.8024,1.8136,1.8156,1.8136,1.8103,1.8117,1.8117,1.8117,1.8103,1.7622,1.7372,1.7372,1.7372,1.7372,1.7372,1.7339,1.7194,1.7376,1.7106,1.716,1.7073,1.6009,1.5781,1.637,1.6147,1.6056,1.604,1.6014,1.5901,1.5651,1.5625,1.5737,1.5987,1.6014,1.5888,1.5598,1.5565,1.5691,1.5974,1.6007,1.6119,1.633,1.6403,1.6429,1.6436,1.6468,1.6587,1.6844,1.6884,1.7082,1.7583,1.7668,1.7787,1.761,1.6813,1.4105,0.9564,0.8299,0.8182,0.7545,0.3293,-0.0,-0.0,-0.0,-0.0,-0.0,-0.0,-0.0,-0.0,-0.0,-0.0,-0.0,-0.0,-0.0,-0.0,-0.0,-0.0,-0.0,-0.0,-0.0,-0.0,-0.0,-0.0,-0.0,0.8154,1.2233,1.5783,1.5783,1.5783,1.5783,1.5803,1.604,1.6152,1.6132,1.5882,0.0,0.0,1.5783,1.5915,1.6145,1.6152,1.6271,1.6482,1.6541,1.6561,1.6574,1.6712,1.3799,0.8955,1.4473,1.7426,1.722,1.7418,1.7517,1.753,1.7523,1.7536,1.7543,1.753,1.753,1.753,1.753,1.753,1.7517,1.7424,1.7372,1.7372,1.7372,1.7372,1.7372,1.7141,1.7199,1.7362,1.648,1.5806,1.5959,1.5739,1.563,1.5796,1.5581,1.5561,1.571,1.571,1.5677,1.5631,1.5625,1.5658,1.5697,1.5704,1.5585,1.5282,1.5262,1.5387,1.5684,1.571,1.5723,1.5776,1.5994,1.6152,1.6152,1.635,1.6495,1.6554,1.6561,1.6699,1.7002,1.7095,1.7213,1.7109,1.3306,0.8259,0.3134,-0.0,0.161,0.1613,-0.0,-0.0,-0.0,-0.0,-0.0,-0.0,-0.0,-0.0,-0.0,-0.0,-0.0,-0.0,-0.0,-0.0,-0.0,-0.0,-0.0,-0.0,-0.0,-0.0,-0.0,-0.0,-0.0,-0.0,0.19,-0.0,1.5625,1.5625,1.5625,1.5625,0.0,1.5789,1.5849,1.5836,1.5691,1.5625,1.5625,1.5625,1.571,1.5849,1.5849,1.5928,1.6053,1.6205,1.629,1.6304,1.6291,1.1983,0.4127,0.9809,1.1125,0.8817,1.2242,1.5065,1.6812,1.6956,1.6937,1.6963,1.6937,1.6996,1.7148,1.7148,1.7075,1.6923,1.693,1.693,1.6923,1.6923,1.693,1.6917,1.6785,0.0,0.0,0.0,0.0,0.0,0.0,0.0,0.0,1.5407,0.0,1.6676,1.5746,1.5558,1.6662,1.5739,1.5196,1.5196,1.5196,1.5064,1.4774,1.4886,1.5038,1.5183,1.5321,1.54,1.5414,1.5677,1.5849,1.5855,1.5967,1.6119,1.6244,1.6277,1.6396,1.6653,1.6732,1.6805,1.6792,0.9672,0.3256,-0.0,-0.0,-0.0,-0.0,-0.0,-0.0,-0.0,-0.0,-0.0,-0.0,-0.0,-0.0,-0.0,-0.0,-0.0,-0.0,-0.0,-0.0,-0.0,-0.0,-0.0,-0.0,-0.0,-0.0,-0.0,-0.0,-0.0,0.75,0.3959,-0.0,1.5625,1.5625,1.5625,1.5625,1.5618,1.5506,1.5466,1.5466,1.5466,1.5466,1.5473,1.5386,1.5431,1.5625,1.5625,1.5625,1.5644,1.5882,1.6,1.6027,1.6069,1.1239,0.3473,0.635,0.5948,0.3491,0.905,1.363,1.6401,1.6528,1.6508,1.6746,1.6508,1.6607,1.6838,0.0,0.0,0.0,1.6692,1.6692,1.6488,1.6488,1.6488,1.6488,1.6436,0.0,1.5675,1.5611,1.5476,1.5444,1.5572,0.0,0.0,0.0,0.0,0.0,0.0,0.0,0.0,0.0,0.0,0.0,1.4563,1.4253,1.4029,1.4326,1.457,1.4682,1.4893,1.5044,1.5104,1.5328,1.5486,1.5539,1.5545,1.5664,1.5948,1.5987,1.6099,1.6376,1.6652,1.6297,1.4731,0.816,0.2535,-0.0,-0.0,-0.0,-0.0,-0.0,-0.0,-0.0,-0.0,-0.0,-0.0,-0.0,-0.0,-0.0,-0.0,-0.0,-0.0,-0.0,-0.0,-0.0,-0.0,-0.0,-0.0,-0.0,-0.0,-0.0,-0.0,0.5712,1.4541,0.7924,-0.0,1.5625,1.5625,1.5625,1.5625,1.5585,1.5091,1.488,1.488,1.488,1.488,1.4919,1.521,1.5425,1.5625,1.5625,1.5625,1.5625,1.5671,1.5684,1.5697,1.5568,1.5007,1.3423,0.96,0.9884,1.357,1.4783,1.5715,1.6138,1.6508,1.6488,1.6495,1.6488,1.6508,1.6528,1.6304,1.6284,1.6271,1.6488,1.6692,1.6488,1.6488,1.6488,1.6482,1.6251,1.5907,1.5662,1.562,1.547,1.5618,1.5571,1.5417,1.5183,1.4952,1.4877,0.0,1.4563,0.0,0.0,0.0,0.0,0.0,0.0,0.0,0.0,1.3489,1.4023,1.4346,1.4418,1.455,1.4801,1.486,1.4979,1.5209,1.5242,1.5361,1.5638,1.5677,1.5803,1.6093,1.6152,1.4219,1.0074,1.1834,0.9781,-0.0,-0.0,-0.0,-0.0,-0.0,-0.0,-0.0,-0.0,-0.0,-0.0,-0.0,-0.0,-0.0,-0.0,-0.0,-0.0,-0.0,-0.0,-0.0,-0.0,-0.0,-0.0,-0.0,-0.0,-0.0,0.7288,1.3114,1.4225,0.7611,-0.0,1.5157,1.5157,1.5157,1.515,1.513,1.4886,1.4768,1.4768,1.4768,1.4777,1.468,1.4899,1.4962,1.515,1.515,1.5157,1.515,1.515,1.5249,1.5223,1.5223,1.5327,1.5516,1.3211,1.3266,1.5514,1.5796,1.5835,1.5835,1.602,1.6014,1.6014,1.6007,1.6007,1.6007,1.5888,1.5888,1.5809,1.6014,1.6014,1.6014,1.6014,1.6007,1.6007,1.5888,1.5633,1.562,1.5539,1.5578,1.5571,1.5498,1.5187,1.4471,1.4201,1.4427,0.0,0.0,0.0,0.0,0.0,0.0,0.0,0.0,0.0,0.0,0.0,1.3248,1.3489,1.366,1.3904,1.4036,1.4339,1.4576,1.4695,1.486,1.5005,1.5137,1.5288,1.5433,1.5565,1.5756,1.3716,0.8596,1.2387,1.2702,0.5319,0.6795,0.8664,0.8203,0.3319,-0.0,-0.0,-0.0,-0.0,-0.0,-0.0,-0.0,-0.0,-0.0,-0.0,-0.0,-0.0,-0.0,-0.0,-0.0,-0.0,-0.0,0.2168,0.5418,0.8237,1.2601,1.4235,1.1798,0.9913,0.6369,1.4768,1.4754,1.4471,1.4352,1.4359,1.4359,1.4359,1.4359,1.4359,1.4283,1.4412,1.4416,1.4396,1.4389,1.4442,1.4596,1.4669,1.4669,1.4833,1.493,1.5104,1.5229,1.5301,1.5262,1.544,1.5281,1.5506,1.5519,1.5526,1.5592,1.5625,1.5618,1.5486,1.546,1.5519,1.5519,1.5552,1.5625,1.5625,1.5625,1.5625,1.5625,1.5625,1.5625,1.5625,1.5592,1.5526,1.5498,1.5504,1.5363,1.5274,1.4653,1.3706,1.3409,0.0,0.0,0.0,0.0,0.0,0.0,0.0,0.0,0.0,1.0998,1.1478,0.0,1.2255,0.0,1.2777,1.3185,1.3251,1.3719,0.0,0.0,1.4385,1.459,1.4662,1.4913,1.5084,1.5091,1.5184,1.401,0.9894,1.1883,1.2635,0.9986,1.3039,1.5514,1.5327,0.856,0.2885,-0.0,-0.0,-0.0,-0.0,-0.0,-0.0,-0.0,-0.0,-0.0,-0.0,-0.0,-0.0,-0.0,-0.0,-0.0,-0.0,0.5588,0.9719,1.4596,1.5793,1.4335,1.0659,1.1521,1.1773,1.4768,1.4675,1.3614,1.3172,1.3159,1.3159,1.3166,1.3159,1.3166,1.3139,1.3119,1.3429,1.3483,1.3603,1.383,0.0,1.4365,1.4365,1.4517,1.4807,1.4807,1.482,1.4853,1.4847,1.484,1.486,1.5097,1.5222,1.5229,1.5486,1.5625,1.5611,1.5104,1.4965,1.5209,1.5222,1.5354,1.5625,1.5625,1.5625,1.5625,1.5625,1.5625,1.5625,1.5625,1.5506,1.5619,1.5585,1.5322,1.4788,1.4289,1.3686,1.3126,0.0,0.0,0.0,0.0,0.0,0.0,0.0,0.0,0.0,0.0,0.0,0.0,0.0,0.0,0.0,1.1781,0.0,1.2625,1.2941,0.0,0.0,0.0,1.4056,1.4332,1.4629,1.4801,1.4807,0.0,0.0,1.4317,1.0845,0.9742,1.3665,1.5025,1.5588,1.5627,1.4456,1.074,0.1617,-0.0,-0.0,-0.0,-0.0,-0.0,-0.0,-0.0,-0.0,-0.0,-0.0,-0.0,-0.0,-0.0,-0.0,1.267,1.0304,0.9391,1.4665,1.5581,1.5456,1.4486,1.1691,1.013,1.3614,1.3409,1.2955,1.2665,1.2661,1.372,1.4021,1.4167,1.5241,1.5602,1.5526,1.4597,1.4182,1.4221,1.3455,0.0,0.0,0.0,1.4863,1.399,1.5171,1.5204,1.4491,1.451,1.4596,1.4774,1.4886,1.4939,1.4932,1.5051,1.5568,1.646,0.0,0.0,1.4932,1.5097,1.5242,1.5171,1.534,1.5625,1.5625,1.5625,1.5625,1.5618,1.5453,1.5308,1.5565,1.4863,1.4476,1.4236,1.3615,1.2995,0.0,0.0,0.0,0.0,0.0,0.0,0.0,0.0,0.0,0.0,0.0,1.3268,1.2895,0.0,0.0,0.0,1.2842,1.2478,1.1913,1.2058,0.0,0.0,0.0,0.0,0.0,0.0,0.0,1.3739,1.4286,1.4578,1.4576,1.3029,1.2453,1.441,1.506,1.5249,1.5268,0.0,0.9303,0.5337,0.7381,0.9439,0.9239,0.4208,0.2204,0.8251,0.4419,-0.0,-0.0,-0.0,-0.0,-0.0,0.5007,1.0431,1.4685,1.3769,1.2901,1.4816,1.5387,1.5301,1.5607,1.4063,1.2899,1.3167,0.0,0.0,0.0,0.0,1.4654,1.5227,1.5373,1.6532,1.7036,1.6933,1.5731,0.0,0.0,0.0,0.0,0.0,0.0,1.488,1.4014,1.5308,1.5283,1.3957,1.3957,1.4069,1.4273,1.4359,1.4576,1.5267,1.4924,1.5235,1.602,0.0,0.0,0.0,0.0,1.4709,1.4871,1.5158,1.5499,1.5308,1.5585,1.5585,1.5506,1.5411,1.517,1.5004,1.4214,1.3733,1.3403,1.3039,0.0,0.0,0.0,0.0,0.0,0.0,0.0,0.0,0.0,0.0,0.0,0.0,0.0,0.0,0.0,0.0,0.0,0.0,0.0,1.1677,1.1451,1.152,0.0,0.0,0.0,0.0,0.0,0.0,0.0,0.0,0.0,1.4659,1.4799,1.4707,0.0,0.0,1.4923,1.4736,1.1883,0.9885,0.989,1.3117,0.0,1.3573,0.7045,0.5281,1.4017,0.8247,0.2152,0.214,0.2139,0.2134,0.2117,0.9062,1.5109,1.5242,1.5071,1.4873,1.5011,1.5064,1.515,1.5367,1.5427,1.5236,0.0,0.0,0.0,0.0,0.0,0.0,0.0,0.0,1.6354,1.6457,0.0,1.6312,0.0,0.0,0.0,0.0,1.6455,1.5024,0.0,0.0,1.5215,1.4489,1.3215,1.306,1.3073,1.31,1.3377,1.4489,1.6079,1.5448,0.0,0.0,0.0,0.0,0.0,0.0,1.4031,1.4389,1.4865,1.5189,1.5008,1.5281,1.5486,1.5592,1.5507,1.5083,1.397,1.3884,1.3357,1.2282,1.2228,0.0,0.0,0.0,0.0,0.0,0.0,0.0,0.0,0.0,0.0,0.0,0.0,0.0,0.0,0.0,0.0,0.0,0.0,0.0,0.0,1.116,0.0,0.0,0.0,0.0,0.0,0.0,0.0,0.0,0.0,1.5471,1.5195,1.5531,1.5403,1.4036,0.0,0.0,0.0,0.0,1.4702,1.4544,1.5161,1.3728,0.8977,0.7802,0.9374,1.4725,0.0,0.0,0.7443,0.7611,0.7376,0.6863,1.1314,1.4833,1.4801,1.491,1.491,1.4937,1.491,1.4774,1.4794,1.497,1.4787,0.0,0.0,0.0,0.0,0.0,0.0,0.0,0.0,0.0,1.8024,0.0,1.6839,0.0,0.0,0.0,0.0,0.0,0.0,0.0,0.0,1.7012,1.6928,1.5417,1.5426,1.5551,0.0,1.5928,1.5919,0.0,0.0,0.0,0.0,0.0,0.0,0.0,0.0,1.3803,1.4018,1.4662,1.4913,1.4919,1.5011,1.5025,1.511,1.501,1.4677,1.3891,1.3159,1.2579,0.0,0.0,0.0,0.0,0.0,0.0,0.0,0.0,0.0,0.0,0.0,0.0,0.0,0.0,0.0,0.0,0.0,0.0,0.0,0.0,0.0,0.0,0.0,1.146,0.0,0.0,0.0,0.0,0.0,0.0,0.0,0.0,0.0,1.5785,1.5376,1.5031,1.4744,1.4377,1.4194,1.4018,0.0,0.0,0.0,0.0,0.0,0.0,0.0,1.3027,1.4781,1.3413,1.2229,1.2366,1.1978,1.1756,1.1841,0.0,0.0,1.7117,1.7445,1.7587,1.7808,1.7445,1.6907,1.6356,1.5747,1.5214,0.0,0.0,0.0,0.0,0.0,0.0,0.0,0.0,0.0,1.8857,1.88,0.0,0.0,0.0,0.0,0.0,0.0,0.0,0.0,0.0,0.0,0.0,1.6071,1.6212,0.0,0.0,0.0,0.0,0.0,0.0,0.0,0.0,0.0,0.0,0.0,0.0,1.3449,1.3746,1.422,1.4517,1.4623,1.4721,1.4728,1.4623,1.453,1.4247,1.3752,0.0,0.0,0.0,0.0,0.0,0.0,0.0,0.0,0.0,0.0,0.0,0.0,0.0,0.0,0.0,0.0,0.0,0.0,0.0,0.0,0.0,0.0,0.0,0.0,0.0,1.253,0.0,0.0,0.0,0.0,0.0,0.0,0.0,0.0,0.0,0.0,0.0,1.6487,1.6139,1.6012,1.5906,1.5562,1.6153,1.6599,0.0,0.0,0.0,0.0,0.0,0.0,0.0,0.0,0.0,0.0,0.0,0.0,0.0,0.0,1.5958,1.803,1.8336,1.8419,1.8755,0.0,0.0,0.0,0.0,0.0,0.0,0.0,0.0,0.0,0.0,0.0,0.0,0.0,0.0,0.0,1.8852,0.0,0.0,1.8802,0.0,0.0,0.0,0.0,0.0,0.0,0.0,0.0,0.0,0.0,0.0,0.0,0.0,0.0,0.0,0.0,0.0,0.0,0.0,0.0,0.0,0.0,1.2605,1.3423,1.3713,1.4009,1.4299,1.4583,1.4576,1.4306,1.4023,1.3733,1.3775,0.0,0.0,0.0,0.0,0.0,0.0,0.0,0.0,0.0,0.0,0.0,0.0,0.0,0.0,0.0,0.0,0.0,0.0,0.0,0.0,0.0,0.0,0.0,0.0,0.0,0.0,1.3017,1.4686,1.6586,0.0,0.0,0.0,0.0,0.0,0.0,0.0,0.0,0.0,1.8075,1.9209,1.9977,1.8936,1.9575,2.0111,2.0111,2.0782,2.1468,2.1271,1.9506,1.884,0.0,0.0,0.0,0.0,0.0,0.0,0.0,0.0,0.0,0.0,0.0,0.0,0.0,0.0,0.0,0.0,0.0,0.0,0.0,0.0,0.0,0.0,0.0,0.0,0.0,0.0,0.0,0.0,0.0,0.0,0.0,0.0,0.0,0.0,0.0,0.0,0.0,0.0,0.0,0.0,0.0,0.0,0.0,0.0,0.0,0.0,0.0,0.0,0.0,0.0,0.0,0.0,0.0,0.0,1.2302,1.2552,1.3034,1.3429,1.3719,1.3607,1.3601,1.3713,1.3436,1.3053,0.0,0.0,0.0,0.0,0.0,0.0,0.0,0.0,0.0,0.0,0.0,0.0,0.0,0.0,0.0,0.0,0.0,0.0,0.0,0.0,0.0,0.0,0.0,0.0,0.0,0.0,0.0,0.0,1.4332,1.5437,1.7463,0.0,0.0,0.0,0.0,0.0,0.0,0.0,0.0,0.0,0.0,2.0084,1.9665,2.0632,2.0781,1.94,2.0697,2.1175,1.9931,1.913,1.8801,1.9613,0.0,0.0,0.0,0.0,0.0,0.0,0.0,0.0,0.0,0.0,0.0,0.0,0.0,0.0,0.0,0.0,0.0,0.0,0.0,0.0,0.0,0.0,0.0,0.0,0.0,0.0,0.0,0.0,0.0,0.0,0.0,0.0,0.0,0.0,0.0,0.0,0.0,0.0,0.0,0.0,0.0,0.0,0.0,0.0,0.0,0.0,0.0,0.0,0.0,0.0,0.0,0.0,0.0,1.267,1.2327,1.2618,1.2994,1.3278,1.3119,1.3113,1.3291,1.3014,1.2638,0.0,0.0,0.0,0.0,0.0,0.0,0.0,0.0,0.0,0.0,0.0,0.0,0.0,0.0,0.0,0.0,0.0,0.0,0.0,0.0,0.0,0.0,0.0,0.0,0.0,0.0,0.0,0.0,1.4937,1.5559,1.788,0.0,0.0,0.0,0.0,0.0,0.0,0.0,0.0,0.0,0.0,2.1903,2.1788,2.2904,0.0,0.0,2.276,2.3624,2.17,2.0762,2.0376,2.1127,1.9561,0.0,0.0,0.0,0.0,0.0,0.0,0.0,0.0,0.0,0.0,0.0,0.0,0.0,0.0,0.0,0.0,0.0,0.0,0.0,0.0,0.0,0.0,0.0,0.0,0.0,0.0,0.0,0.0,0.0,0.0,0.0,0.0,0.0,0.0,0.0,0.0,0.0,0.0,0.0,0.0,0.0,0.0,0.0,0.0,0.0,0.0,0.0,0.0,0.0,0.0,0.0,0.0,0.0,1.239,1.2534,1.2671,1.2981,1.2974,1.2974,1.2988,1.2691,1.2388,0.0,0.0,0.0,0.0,0.0,0.0,0.0,0.0,0.0,0.0,0.0,0.0,0.0,0.0,0.0,0.0,0.0,0.0,0.0,0.0,0.0,0.0,0.0,0.0,0.0,0.0,0.0,0.0,0.0,0.0,0.0,0.0,0.0,0.0,0.0,0.0,0.0,0.0,0.0,0.0,0.0,2.5074,2.4741,2.5954,2.6167,0.0,2.6451,2.7804,2.5921,2.3858,2.3054,2.4672,0.0,0.0,0.0,0.0,0.0,0.0,0.0,0.0,0.0,0.0,0.0,0.0,0.0,0.0,0.0,0.0,0.0,0.0,0.0,0.0,0.0,0.0,0.0,0.0,0.0,0.0,0.0,0.0,0.0,0.0,0.0,0.0,0.0,0.0,0.0,0.0,0.0,0.0,0.0,0.0,0.0,0.0,0.0,0.0,0.0,0.0,0.0,0.0,0.0,0.0,0.0,0.0,0.0,0.0,1.3319,1.2364,1.2183,1.2665,1.2493,1.248,1.2671,1.2196,0.0,0.0,0.0,0.0,0.0,0.0,0.0,0.0,0.0,0.0,0.0,0.0,0.0,0.0,0.0,0.0,0.0,0.0,0.0,0.0,0.0,0.0,0.0,0.0,0.0,0.0,0.0,1.563,0.0,0.0,0.0,0.0,0.0,0.0,0.0,0.0,0.0,0.0,0.0,0.0,0.0,0.0,2.7423,2.5838,2.758,2.795,0.0,0.0,2.7383,2.6727,2.5211,2.4233,0.0,0.0,0.0,0.0,0.0,0.0,0.0,0.0,0.0,0.0,0.0,0.0,0.0,0.0,0.0,0.0,0.0,0.0,0.0,0.0,0.0,0.0,0.0,0.0,0.0,0.0,0.0,0.0,0.0,0.0,0.0,0.0,0.0,0.0,0.0,0.0,0.0,0.0,0.0,0.0,0.0,0.0,0.0,0.0,0.0,0.0,0.0,0.0,0.0,0.0,0.0,0.0,0.0,0.0,1.464,1.4737,1.346,1.2886,1.3223,1.2492,1.2045,1.2203,1.1761,1.148,0.0,0.0,0.0,0.0,0.0,0.0,0.0,0.0,0.0,0.0,0.0,0.0,0.0,0.0,0.0,0.0,0.0,0.0,0.0,0.0,0.0,0.0,0.0,0.0,0.0,0.0,0.0,0.0,0.0,0.0,0.0,0.0,0.0,0.0,0.0,0.0,0.0,0.0,0.0,0.0,0.0,0.0,2.7078,2.8042,0.0,0.0,0.0,2.8096,2.7132,0.0,0.0,0.0,0.0,0.0,0.0,0.0,0.0,0.0,0.0,0.0,0.0,0.0,0.0,0.0,0.0,0.0,0.0,0.0,0.0,0.0,0.0,0.0,0.0,0.0,0.0,0.0,0.0,0.0,0.0,0.0,0.0,0.0,0.0,0.0,0.0,0.0,0.0,0.0,0.0,0.0,0.0,0.0,0.0,0.0,0.0,0.0,0.0,0.0,0.0,0.0,0.0,0.0,0.0,0.0,0.0,0.0,1.6266,1.5079,1.4296,1.4059,1.2657,1.1813,1.1662,1.1386,1.0977,0.0,0.0,0.0,0.0,0.0,0.0,0.0,0.0,0.0,0.0,0.0,0.0,0.0,0.0,0.0,0.0,0.0,0.0,0.0,0.0,0.0,0.0,0.0,0.0,0.0,0.0,0.0,0.0,0.0,0.0,0.0,0.0,0.0,0.0,0.0,0.0,0.0,0.0,0.0,0.0,0.0,2.5657,2.8064,2.816,2.8055,0.0,0.0,2.9215,2.7708,2.656,0.0,0.0,0.0,0.0,0.0,0.0,0.0,0.0,0.0,0.0,0.0,0.0,0.0,0.0,0.0,0.0,0.0,0.0,0.0,0.0,0.0,0.0,0.0,0.0,0.0,0.0,0.0,0.0,0.0,0.0,0.0,0.0,0.0,0.0,0.0,0.0,0.0,0.0,0.0,0.0,0.0,0.0,0.0,0.0,0.0,0.0,0.0,0.0,0.0,0.0,0.0,0.0,0.0,0.0,0.0,0.0,1.79,1.6424,1.5061,1.3847,1.3593,1.2762,1.1359,1.1095,1.0786,0.0,0.0,0.0,0.0,0.0,0.0,0.0,0.0,0.0,0.0,0.0,0.0,0.0,0.0,0.0,0.0,0.0,0.0,0.0,0.0,0.0,0.0,0.0,0.0,0.0,0.0,0.0,0.0,0.0,0.0,0.0,0.0,0.0,0.0,0.0,0.0,0.0,0.0,0.0,0.0,0.0,2.9118,2.7438,2.8923,0.0,0.0,0.0,0.0,3.0076,2.814,0.0,0.0,0.0,0.0,0.0,0.0,0.0,0.0,0.0,0.0,0.0,0.0,0.0,0.0,0.0,0.0,0.0,0.0,0.0,0.0,0.0,0.0,0.0,0.0,0.0,0.0,0.0,0.0,0.0,0.0,0.0,0.0,0.0,0.0,0.0,0.0,0.0,0.0,0.0,0.0,0.0,0.0,0.0,0.0,0.0,0.0,0.0,0.0,0.0,0.0,0.0,0.0,0.0,0.0,0.0,0.0,1.8986,1.7854,1.6761,1.6037,1.525,1.4043,1.2414,1.1823,1.1301,0.0,0.0,0.0,0.0,0.0,0.0,0.0,0.0,0.0,0.0,0.0,0.0,0.0,0.0,0.0,0.0,0.0,0.0,0.0,0.0,0.0,0.0,0.0,0.0,0.0,0.0,0.0,0.0,0.0,0.0,0.0,0.0,0.0,0.0,0.0,0.0,0.0,0.0,0.0,0.0,2.9903,2.9804,2.9274,0.0,0.0,0.0,0.0,0.0,0.0,2.9032,2.7791,0.0,0.0,0.0,0.0,0.0,0.0,0.0,0.0,0.0,0.0,0.0,0.0,0.0,0.0,0.0,0.0,0.0,0.0,0.0,0.0,0.0,0.0,0.0,0.0,0.0,0.0,0.0,0.0,0.0,0.0,0.0,0.0,0.0,0.0,0.0,0.0,0.0,0.0,0.0,0.0,0.0,0.0,0.0,0.0,0.0,0.0,0.0,0.0,0.0,0.0,0.0,0.0,0.0,0.0,0.0,1.9999,1.9516,1.8995,1.8351,1.7068,1.5466,1.3679,1.3104,1.2443,1.1775,0.0,0.0,0.0,0.0,0.0,0.0,0.0,0.0,0.0,0.0,0.0,0.0,0.0,0.0,0.0,0.0,0.0,0.0,0.0,0.0,0.0,0.0,0.0,0.0,0.0,0.0,0.0,0.0,0.0,0.0,0.0,0.0,0.0,0.0,0.0,0.0,0.0,0.0,0.0,3.089,3.0293,0.0,0.0,0.0,0.0,0.0,0.0,0.0,0.0,2.9539,0.0,0.0,0.0,0.0,0.0,0.0,0.0,0.0,0.0,0.0,0.0,0.0,0.0,0.0,0.0,0.0,0.0,0.0,0.0,0.0,0.0,0.0,0.0,0.0,0.0,0.0,0.0,0.0,0.0,0.0,0.0,0.0,0.0,0.0,0.0,0.0,0.0,0.0,0.0,0.0,0.0,0.0,0.0,0.0,0.0,0.0,0.0,0.0,0.0,0.0,0.0,0.0,0.0,0.0,0.0,0.0,2.1919,2.0938,1.8243,1.7878,1.6658,1.4544,1.4289,1.4827,1.6094,0.0,0.0,0.0,0.0,0.0,0.0,0.0,0.0,0.0,0.0,0.0,0.0,0.0,0.0,0.0,0.0,0.0,0.0,0.0,0.0,0.0,0.0,0.0,0.0,0.0,0.0,0.0,0.0,0.0,0.0,0.0,0.0,0.0,0.0,0.0,0.0,0.0,0.0,3.5927,3.4881,0.0,0.0,0.0,0.0,0.0,0.0,0.0,0.0,3.1363,0.0,0.0,0.0,0.0,0.0,0.0,0.0,0.0,0.0,0.0,0.0,0.0,0.0,0.0,0.0,0.0,0.0,0.0,0.0,0.0,0.0,0.0,0.0,0.0,0.0,0.0,0.0,0.0,0.0,0.0,0.0,0.0,0.0,0.0,0.0,0.0,0.0,0.0,0.0,0.0,0.0,0.0,0.0,0.0,0.0,0.0,0.0,0.0,0.0,0.0,0.0,0.0,0.0,0.0,0.0,0.0,0.0,0.0,2.1701,2.067,1.9464,1.7973,1.601,1.691,1.8064,0.0,0.0,0.0,0.0,0.0,0.0,0.0,0.0,0.0,0.0,0.0,0.0,0.0,0.0,0.0,0.0,0.0,0.0,0.0,0.0,0.0,0.0,0.0,0.0,0.0,0.0,0.0,0.0,0.0,0.0,0.0,0.0,0.0,0.0,0.0,0.0,0.0,0.0,0.0,0.0,0.0,0.0,0.0,0.0,0.0,0.0,0.0,0.0,0.0,0.0,0.0,0.0,0.0,0.0,0.0,0.0,0.0,0.0,0.0,0.0,0.0,0.0,0.0,0.0,0.0,0.0,0.0,0.0,0.0,0.0,0.0,0.0,0.0,0.0,0.0,0.0,0.0,0.0,0.0,0.0,0.0,0.0,0.0,0.0,0.0,0.0,0.0,0.0,0.0,0.0,0.0,0.0,0.0,0.0,0.0,0.0,0.0,0.0,0.0,0.0,0.0,0.0,0.0,0.0,0.0,0.0,0.0,0.0,2.2664,2.2801,2.1183,1.9593,1.8153,1.9536,2.0494,0.0,0.0,0.0,0.0,0.0,0.0,0.0,0.0,0.0,0.0,0.0,0.0,0.0,0.0,0.0,0.0,0.0,0.0,0.0,0.0,0.0,0.0,0.0,0.0,0.0,0.0,0.0,0.0,0.0,0.0,0.0,0.0,0.0,0.0,0.0,0.0,0.0,0.0,0.0,0.0,0.0,0.0,0.0,0.0,0.0,0.0,0.0,0.0,3.3067,0.0,0.0,0.0,0.0,0.0,0.0,0.0,0.0,0.0,0.0,0.0,0.0,0.0,0.0,0.0,0.0,0.0,0.0,0.0,0.0,0.0,0.0,0.0,0.0,0.0,0.0,0.0,0.0,0.0,0.0,0.0,0.0,0.0,0.0,0.0,0.0,0.0,0.0,0.0,0.0,0.0,0.0,0.0,0.0,0.0,0.0,0.0,0.0,0.0,0.0,0.0,0.0,0.0,0.0,0.0,0.0,0.0,0.0,0.0,2.4848,2.2814,2.2516,2.2082,2.1464,2.1043,2.0902,0.0,0.0,0.0,0.0,0.0,0.0,0.0,0.0,0.0,0.0,0.0,0.0,0.0,0.0,0.0,0.0,0.0,0.0,0.0,0.0,0.0,0.0,0.0,0.0,0.0,0.0,0.0,0.0,0.0,0.0,0.0,0.0,0.0,0.0,0.0,0.0,0.0,0.0,0.0,0.0,0.0,0.0,0.0,0.0,0.0,0.0,0.0,0.0,0.0,0.0,0.0,0.0,0.0,0.0,0.0,0.0,0.0,0.0,0.0,0.0,0.0,0.0,0.0,0.0,0.0,0.0,0.0,0.0,0.0,0.0,0.0,0.0,0.0,0.0,0.0,0.0,0.0,0.0,0.0,0.0,0.0,0.0,0.0,0.0,0.0,0.0,0.0,0.0,0.0,0.0,0.0,0.0,0.0,0.0,0.0,0.0,0.0,0.0,0.0,0.0,0.0,0.0,0.0,0.0,0.0,0.0,0.0,0.0,2.5349,2.4123,2.2964,2.3087,2.4706,2.378,2.3242,0.0,0.0,0.0,0.0,0.0,0.0,0.0,0.0,0.0,0.0,0.0,0.0,0.0,0.0,0.0,0.0,0.0,0.0,0.0,0.0,0.0,0.0,0.0,0.0,0.0,0.0,0.0,0.0,0.0,0.0,0.0,0.0,0.0,0.0,0.0,0.0,0.0,0.0,0.0,0.0,0.0,0.0,0.0,0.0,0.0,0.0,0.0,0.0,0.0,0.0,0.0,0.0,0.0,0.0,0.0,0.0,0.0,0.0,0.0,0.0,0.0,0.0,0.0,0.0,0.0,0.0,0.0,0.0,0.0,0.0,0.0,0.0,0.0,0.0,0.0,0.0,0.0,0.0,0.0,0.0,0.0,0.0,0.0,0.0,0.0,0.0,0.0,0.0,0.0,0.0,0.0,0.0,0.0,0.0,0.0,0.0,0.0,0.0,0.0,0.0,0.0,0.0,0.0,0.0,0.0,0.0,0.0,0.0,0.0,2.5962,2.449,2.4858,2.715,2.6356,2.6223,0.0,0.0,0.0,0.0,0.0,0.0,0.0,0.0,0.0,0.0,0.0,0.0,0.0,0.0,0.0,0.0,0.0,0.0,0.0,0.0,0.0,0.0,0.0,0.0,0.0,0.0,0.0,0.0,0.0,0.0,0.0,0.0,0.0,0.0,0.0,0.0,0.0,0.0,0.0,0.0,0.0,0.0,0.0,0.0,0.0,0.0,0.0,0.0,0.0,0.0,0.0,0.0,0.0,0.0,0.0,0.0,0.0,0.0,0.0,0.0,0.0,0.0,0.0,0.0,0.0,0.0,0.0,0.0,0.0,0.0,0.0,0.0,0.0,0.0,0.0,0.0,0.0,0.0,0.0,0.0,0.0,0.0,0.0,0.0,0.0,0.0,0.0,0.0,0.0,0.0,0.0,0.0,0.0,0.0,0.0,0.0,0.0,0.0,0.0,0.0,0.0,0.0,0.0,0.0,0.0,0.0,0.0,0.0,0.0,2.8364,2.8321,2.8256,2.8481,2.8392,2.9435,0.0,0.0,0.0,0.0,0.0,0.0,0.0,0.0,0.0,0.0,0.0,0.0,0.0,0.0,0.0,0.0,0.0,0.0,0.0,0.0,0.0,0.0,0.0,0.0,0.0,0.0,0.0,0.0,0.0,0.0,0.0,0.0,0.0,0.0,0.0,0.0,0.0,0.0,0.0,0.0,0.0,0.0,0.0,0.0,0.0,0.0,0.0,0.0,0.0,0.0,0.0,0.0,0.0,0.0,0.0,0.0,0.0,0.0,0.0,0.0,0.0,0.0,0.0,0.0,0.0,0.0,0.0,0.0,0.0,0.0,0.0,0.0,0.0,0.0,0.0,0.0,0.0,0.0,0.0,0.0,0.0,0.0,0.0,0.0,0.0,0.0,0.0,0.0,0.0,0.0,0.0,0.0,0.0,0.0,0.0,0.0,0.0,0.0,0.0,0.0,0.0,0.0,0.0,0.0,0.0,0.0,0.0,0.0,0.0,3.2636,3.2012,3.1288,3.0658,3.0682,3.1103,3.2081,0.0,0.0,0.0,0.0,0.0,0.0,0.0,0.0,0.0,0.0,0.0,0.0,0.0,0.0,0.0,0.0,0.0,0.0,0.0,0.0,0.0,0.0,0.0,0.0,0.0,0.0,0.0,0.0,0.0,0.0,0.0,0.0,0.0,0.0,0.0,0.0,0.0,0.0,0.0,0.0,0.0,0.0,0.0,0.0,0.0,0.0,0.0,0.0,0.0,0.0,0.0,0.0,0.0,0.0,0.0,0.0,0.0,0.0,0.0,0.0,0.0,0.0,0.0,0.0,0.0,0.0,0.0,0.0,0.0,0.0,0.0,0.0,0.0,0.0,0.0,0.0,0.0,0.0,0.0,0.0,0.0,0.0,0.0,0.0,0.0,0.0,0.0,0.0,0.0,0.0,0.0,0.0,0.0,0.0,0.0,0.0,0.0,0.0,0.0,0.0,0.0,0.0,0.0,0.0,0.0,0.0,0.0,0.0,3.5625,3.4574,3.3683,3.2905,3.2905,3.293,0.0,0.0,0.0,0.0,0.0,0.0,0.0,0.0,0.0,0.0,0.0,0.0,0.0,0.0,0.0,0.0,0.0,0.0,0.0,0.0,0.0,0.0,0.0,0.0,0.0,0.0,0.0,0.0,0.0,0.0,0.0,0.0,0.0,0.0,0.0,0.0,0.0,0.0,0.0,0.0,0.0,0.0,0.0,0.0,0.0,0.0,0.0,0.0,0.0,0.0,0.0,0.0,0.0,0.0,0.0,0.0,0.0,0.0,0.0,0.0,0.0,0.0,0.0,0.0,0.0,0.0,0.0,0.0,0.0,0.0,0.0,0.0,0.0,0.0,0.0,0.0,0.0,0.0,0.0,0.0,0.0,0.0,0.0,0.0,0.0,0.0,0.0,0.0,0.0,0.0,0.0,0.0,0.0,0.0,0.0,0.0,0.0,0.0,0.0,0.0,0.0,0.0,0.0,0.0,0.0,0.0,0.0,0.0,3.7721,3.6724,3.5728,3.5168,3.5091,3.5091,3.5118,0.0,0.0,0.0,0.0,0.0,0.0,0.0,0.0,0.0,0.0,0.0,0.0,0.0,0.0,0.0,0.0,0.0,0.0,0.0,0.0,0.0,0.0,0.0,0.0,0.0,0.0,0.0,0.0,0.0,0.0,0.0,0.0,0.0,0.0,0.0,0.0,0.0,0.0,0.0,0.0,0.0,0.0,0.0,0.0,0.0,0.0,0.0,0.0,0.0,0.0,0.0,0.0,0.0,0.0,0.0,0.0,0.0,0.0,0.0,0.0,0.0,0.0,0.0,0.0,0.0,0.0,0.0,0.0,0.0,0.0,0.0,0.0,0.0,0.0,0.0,0.0,0.0,0.0,0.0,0.0,0.0,0.0,0.0,0.0,0.0,0.0,0.0,0.0,0.0,0.0,0.0,0.0,0.0,0.0,0.0,0.0,0.0,0.0,0.0,0.0,0.0,0.0,0.0,0.0,0.0,0.0,0.0,0.0,0.0,3.7793,0.0,3.6944,0.0,3.6253,3.6596,0.0,0.0,0.0,0.0,0.0,0.0,0.0,0.0,0.0,0.0,0.0,0.0,0.0,0.0,0.0,0.0,0.0,0.0,0.0,0.0,0.0,0.0,0.0,0.0,0.0,0.0,0.0,0.0,0.0,0.0,0.0,0.0,0.0,0.0,0.0,0.0,0.0,0.0,0.0,0.0,0.0,0.0,0.0,0.0,0.0,0.0,0.0,0.0,0.0,0.0,0.0,0.0,0.0,0.0,0.0,0.0,0.0,0.0,0.0,0.0,0.0,0.0,0.0,0.0,0.0,0.0,0.0,0.0,0.0,0.0,0.0,0.0,0.0,0.0,0.0,0.0,0.0,0.0,0.0,0.0,0.0,0.0,0.0,0.0,0.0,0.0,0.0,0.0,0.0,0.0,0.0,0.0,0.0,0.0,0.0,0.0,0.0,0.0,0.0,0.0,0.0,0.0,0.0,0.0,0.0,0.0,0.0,0.0,0.0,3.8303,3.8303,3.7963,3.7335,3.7335,3.7578,0.0,0.0,0.0,0.0,0.0,0.0,0.0,0.0,0.0,0.0,0.0,0.0,0.0,0.0,0.0,0.0,0.0,0.0,0.0,0.0,0.0,0.0,0.0,0.0,0.0,0.0,0.0,0.0,0.0,0.0,0.0,0.0,0.0,0.0,0.0,0.0,0.0,0.0,0.0,0.0,0.0,0.0,0.0,0.0,0.0,0.0,0.0,0.0,0.0,0.0,0.0,0.0,0.0,0.0,0.0,0.0,0.0,0.0,0.0,0.0,0.0,0.0,0.0,0.0,0.0,0.0,0.0,0.0,0.0,0.0,0.0,0.0,0.0,0.0,0.0,0.0,0.0,0.0,0.0,0.0,0.0,0.0,0.0,0.0,0.0,0.0,0.0,0.0,0.0,0.0,0.0,0.0,0.0,0.0,0.0,0.0,0.0,0.0,0.0,0.0,0.0,0.0,0.0,0.0,0.0,0.0,0.0,0.0,0.0,0.0,3.8303,3.8274,3.8274,3.8344,3.8315,0.0,0.0,0.0,0.0,0.0,0.0,0.0,0.0,0.0,0.0,0.0,0.0,0.0,0.0,0.0,0.0,0.0,0.0,0.0,0.0,0.0,0.0,0.0,0.0,0.0,0.0,0.0,0.0,0.0,0.0,0.0,0.0,0.0,0.0,0.0,0.0,0.0,0.0,0.0,0.0,0.0,0.0,0.0,0.0,0.0,0.0,0.0,0.0,0.0,0.0,0.0,0.0,0.0,0.0,0.0,0.0,0.0,0.0,0.0,0.0,0.0,0.0,0.0,0.0,0.0,0.0,0.0,0.0,0.0,0.0,0.0,0.0,0.0,0.0,0.0,0.0,0.0,0.0,0.0,0.0,0.0,0.0,0.0,0.0,0.0,0.0,0.0,0.0,0.0,0.0,0.0,0.0,0.0,0.0,0.0,0.0,0.0,0.0,0.0,0.0,0.0,0.0,0.0,0.0,0.0,0.0,0.0,0.0,0.0,0.0,3.8303,0.0,3.8344,3.9122,3.9214,3.8373,0.0,0.0,0.0,0.0,0.0,0.0,0.0,0.0,0.0,0.0,0.0,0.0,0.0,0.0,0.0,0.0,0.0,0.0,0.0,0.0,0.0,0.0,0.0,0.0,0.0,0.0,0.0,0.0,0.0,0.0,0.0,0.0,0.0,0.0,0.0,0.0,0.0,0.0,0.0,0.0,0.0,0.0,0.0,0.0,0.0,0.0,0.0,0.0,0.0,0.0,0.0,0.0,0.0,0.0,0.0,0.0,0.0,0.0,0.0,0.0,0.0,0.0,0.0,0.0,0.0,0.0,0.0,0.0,0.0,0.0,0.0,0.0,0.0,0.0,0.0,0.0,0.0,0.0,0.0,0.0,0.0,0.0,0.0,0.0,0.0,0.0,0.0,0.0,0.0,0.0,0.0,0.0,0.0,0.0,0.0,0.0,0.0,0.0,0.0,0.0,0.0,0.0,0.0,0.0,0.0,0.0,0.0,0.0,0.0,0.0,0.0,3.8299,3.9281,3.9963,0.0,0.0,0.0,0.0,0.0,0.0,0.0,0.0,0.0,0.0,0.0,0.0,0.0,0.0,0.0,0.0,0.0,0.0,0.0,0.0,0.0,0.0,0.0,0.0,0.0,0.0,0.0,0.0,0.0,0.0,0.0,0.0,0.0,0.0,0.0,0.0,0.0,0.0,0.0,0.0,0.0,0.0,0.0,0.0,0.0,0.0,0.0,0.0,0.0,0.0,0.0,0.0,0.0,0.0,0.0,0.0,0.0,0.0,0.0,0.0,0.0,0.0,0.0,0.0,0.0,0.0,0.0,0.0,0.0,0.0,0.0,0.0,0.0,0.0,0.0,0.0,0.0,0.0,0.0,0.0,0.0,0.0,0.0,0.0,0.0,0.0,0.0,0.0,0.0,0.0,0.0,0.0,0.0,0.0,0.0,0.0,0.0,0.0,0.0,0.0,0.0,0.0,0.0,0.0,0.0,0.0,0.0,0.0,0.0,0.0,0.0,3.8358,3.8336,3.9085,0.0,4.315,0.0,0.0,0.0,0.0,0.0,0.0,0.0,0.0,0.0,0.0,0.0,0.0,0.0,0.0,0.0,0.0,0.0,0.0,0.0,0.0,0.0,0.0,0.0,0.0,0.0,0.0,0.0,0.0,0.0,0.0,0.0,0.0,0.0,0.0,0.0,0.0,0.0,0.0,0.0,0.0,0.0,0.0,0.0,0.0,0.0,0.0,0.0,0.0,0.0,0.0,0.0,0.0,0.0,0.0,0.0,0.0,0.0,0.0,0.0,0.0,0.0,0.0,0.0,0.0,0.0,0.0,0.0,0.0,0.0,0.0,0.0,0.0,0.0,0.0,0.0,0.0,0.0,0.0,0.0,0.0,0.0,0.0,0.0,0.0,0.0,0.0,0.0,0.0,0.0,0.0,0.0,0.0,0.0,0.0,0.0,0.0,0.0,0.0,0.0,0.0,0.0,0.0,0.0,0.0,0.0,0.0,0.0,0.0,0.0,0.0,0.0,0.0,3.9019,4.0703,4.3218,0.0,0.0,0.0,0.0,0.0,0.0,0.0,0.0,0.0,0.0,0.0,0.0,0.0,0.0,0.0,0.0,0.0,0.0,0.0,0.0,0.0,0.0,0.0,0.0,0.0,0.0,0.0,0.0,0.0,0.0,0.0,0.0,0.0,0.0,0.0,0.0,0.0,0.0,0.0,0.0,0.0,0.0,0.0,0.0,0.0,0.0,0.0,0.0,0.0,0.0,0.0,0.0,0.0,0.0,0.0,0.0,0.0,0.0,0.0,0.0,0.0,0.0,0.0,0.0,0.0,0.0,0.0,0.0,0.0,0.0,0.0,0.0,0.0,0.0,0.0,0.0,0.0,0.0,0.0,0.0,0.0,0.0,0.0,0.0,0.0,0.0,0.0,0.0,0.0,0.0,0.0,0.0,0.0,0.0,0.0,0.0,0.0,0.0,0.0,0.0,0.0,0.0,0.0,0.0,0.0,0.0,0.0,0.0,0.0,0.0,3.8656,3.8369,3.9774,4.1421,4.3225,0.0,0.0,0.0,0.0,0.0,0.0,0.0,0.0,0.0,0.0,0.0,0.0,0.0,0.0,0.0,0.0,0.0,0.0,0.0,0.0,0.0,0.0,0.0,0.0,0.0,0.0,0.0,0.0,0.0,0.0,0.0,0.0,0.0,0.0,0.0,0.0,0.0,0.0,0.0,0.0,0.0,0.0,0.0,0.0,0.0,0.0,0.0,0.0,0.0,0.0,0.0,0.0,0.0,0.0,0.0,0.0,0.0,0.0,0.0,0.0,0.0,0.0,0.0,0.0,0.0,0.0,0.0,0.0,0.0,0.0,0.0,0.0,0.0,0.0,0.0,0.0,0.0,0.0,0.0,0.0,0.0,0.0,0.0,0.0,0.0,0.0,0.0,0.0,0.0,0.0,0.0,0.0,0.0,0.0,0.0,0.0,0.0,0.0,0.0,0.0,0.0,0.0,0.0,0.0,0.0,0.0,0.0,0.0,0.0,0.0,0.0,0.0,0.0,0.0,4.3313,0.0,0.0,0.0,0.0,0.0,0.0,0.0,0.0,0.0,0.0,0.0,0.0,0.0,0.0,0.0,0.0,0.0,0.0,0.0,0.0,0.0,0.0,0.0,0.0,0.0,0.0,0.0,0.0,0.0,0.0,0.0,0.0,0.0,0.0,0.0,0.0,0.0,0.0,0.0,0.0,0.0,0.0,0.0,0.0,0.0,0.0,0.0,0.0,0.0,0.0,0.0,0.0,0.0,0.0,0.0,0.0,0.0,0.0,0.0,0.0,0.0,0.0,0.0,0.0,0.0,0.0,0.0,0.0,0.0,0.0,0.0,0.0,0.0,0.0,0.0,0.0,0.0,0.0,0.0,0.0,0.0,0.0,0.0,0.0,0.0,0.0,0.0,0.0,0.0,0.0,0.0,0.0,0.0,0.0,0.0,0.0,0.0,0.0,0.0,0.0,0.0,0.0,0.0,0.0,0.0,0.0,0.0,0.0,0.0,0.0,0.0,0.0,0.0,0.0,0.0,0.0,0.0,0.0,0.0,0.0,0.0,0.0,0.0,0.0,0.0,0.0,0.0,0.0,0.0,0.0,0.0,0.0,0.0,0.0,0.0,0.0,0.0,0.0,0.0,0.0,0.0,0.0,0.0,0.0,0.0,0.0,0.0,0.0,0.0,0.0,0.0,0.0,0.0,0.0,0.0,0.0,0.0,0.0,0.0,0.0,0.0,0.0,0.0,0.0,0.0,0.0,0.0,0.0,0.0,0.0,0.0,0.0,0.0,0.0,0.0,0.0,0.0,0.0,0.0,0.0,0.0,0.0,0.0,0.0,0.0,0.0,0.0,0.0,0.0,0.0,0.0,0.0,0.0,0.0,0.0,0.0,0.0,0.0,0.0,0.0,0.0,0.0,0.0,0.0,0.0,0.0,0.0,0.0,0.0,0.0,0.0,0.0,0.0,0.0,0.0,0.0,0.0,0.0,0.0,0.0,0.0,0.0,0.0,0.0,0.0,0.0,0.0,0.0,0.0,0.0,0.0,0.0,0.0,0.0,0.0,0.0,0.0,0.0,0.0,0.0,0.0,0.0,0.0,0.0,0.0,0.0,0.0,0.0,0.0,0.0,0.0,0.0,0.0,0.0,0.0,0.0,0.0,0.0,0.0,0.0,0.0,0.0,0.0,0.0,0.0,0.0,0.0,0.0,0.0,0.0,0.0,0.0,0.0,0.0,0.0,0.0,0.0,0.0,0.0,0.0,0.0,0.0,0.0,0.0,0.0,0.0,0.0,0.0,0.0,0.0,0.0,0.0,0.0,0.0,0.0,0.0,0.0,0.0,0.0,0.0,0.0,0.0,0.0,0.0,0.0,0.0,0.0,0.0,0.0,0.0,0.0,0.0,0.0,0.0,0.0,0.0,0.0,0.0,0.0,0.0,0.0,0.0,0.0,0.0,0.0,0.0,0.0,0.0,0.0,0.0,0.0,0.0,0.0,0.0,0.0,0.0,0.0,0.0,0.0,0.0,0.0,0.0,0.0,0.0,0.0,0.0,0.0,0.0,0.0,0.0,0.0,0.0,0.0,0.0,0.0,0.0,0.0,0.0,0.0,0.0,0.0,0.0,0.0,0.0,0.0,0.0,0.0,0.0,0.0,0.0,0.0,0.0,0.0,0.0,0.0,0.0,0.0,0.0,0.0,0.0,0.0,0.0,0.0,0.0,0.0,0.0,0.0,0.0,0.0,0.0,0.0,0.0,0.0,0.0,0.0,0.0,0.0,0.0,0.0,0.0,0.0,0.0,0.0,0.0,0.0,0.0,0.0,0.0,0.0,0.0,0.0,0.0,0.0,0.0,0.0,0.0,0.0,0.0,0.0,0.0,0.0,0.0,0.0,0.0,0.0,0.0,0.0,0.0,0.0,0.0,0.0,0.0,0.0,0.0,0.0,0.0,0.0,0.0,0.0,0.0,0.0,0.0,0.0,0.0,0.0,0.0,0.0,0.0,0.0,0.0,0.0,0.0,0.0,0.0,0.0,0.0,0.0,0.0,0.0,0.0,0.0,0.0,0.0,0.0,0.0,0.0,0.0,0.0,0.0,0.0,0.0,0.0,0.0,0.0,0.0,0.0,0.0,0.0,0.0,0.0,0.0,0.0,0.0,0.0,0.0,0.0,0.0,0.0,0.0,0.0,0.0,0.0,0.0,0.0,0.0,0.0,0.0,0.0,0.0,0.0,0.0,0.0,0.0,0.0,0.0,0.0,0.0,0.0,0.0,0.0,0.0,0.0,0.0,0.0,0.0,0.0,0.0,0.0,0.0,0.0,0.0,0.0,0.0,0.0,0.0,0.0,0.0,0.0,0.0,0.0,0.0,0.0,0.0,0.0,0.0,0.0,0.0,0.0,0.0,0.0,0.0,0.0,0.0,0.0,0.0,0.0,0.0,0.0,0.0,0.0,0.0,0.0,0.0,0.0,0.0,0.0,0.0,0.0,0.0,0.0,0.0,0.0,0.0,0.0,0.0,0.0,0.0,0.0,0.0,0.0,0.0,0.0,0.0,0.0,0.0,0.0,0.0,0.0,0.0,0.0,0.0,0.0,0.0,0.0,0.0,0.0,0.0,0.0,0.0,0.0,0.0,0.0,0.0,0.0,0.0,0.0,0.0,0.0,0.0,0.0,0.0,0.0,0.0,0.0,0.0,0.0,0.0,0.0,0.0,0.0,0.0,0.0,0.0,0.0,0.0,0.0,0.0,0.0,0.0,0.0,0.0,0.0,0.0,0.0,0.0,0.0,0.0,0.0,0.0,0.0,0.0,0.0,0.0,0.0,0.0,0.0,0.0,0.0,0.0,0.0,0.0,0.0,0.0,0.0,0.0,0.0,0.0,0.0,0.0,0.0,0.0,0.0,0.0,0.0,0.0,0.0,0.0,0.0,0.0,0.0,0.0,0.0,0.0,0.0,0.0,0.0,0.0,0.0,0.0,0.0,0.0,0.0,0.0,0.0,0.0,0.0,0.0,0.0,0.0,0.0,0.0,0.0,0.0,0.0,0.0,0.0,0.0,0.0,0.0,0.0,0.0,0.0,0.0,0.0,0.0,0.0,0.0,0.0,0.0,0.0,0.0,0.0,0.0,0.0,0.0,0.0,0.0,0.0,0.0,0.0,0.0,0.0,0.0,0.0,0.0,0.0,0.0,0.0,0.0,0.0,0.0,0.0,0.0,0.0,0.0,0.0,0.0,0.0,0.0,0.0,0.0,0.0,0.0,0.0,0.0,0.0,0.0,0.0,0.0,0.0,0.0,0.0,0.0,0.0,0.0,0.0,0.0,0.0,0.0,0.0,0.0,0.0,0.0,0.0,0.0,0.0,0.0,0.0,0.0,0.0,0.0,0.0,0.0,0.0,0.0,0.0,0.0,0.0,0.0,0.0,0.0,0.0,0.0,0.0,0.0,0.0,0.0,0.0,0.0,0.0,0.0,0.0,0.0,0.0,0.0,0.0,0.0,0.0,0.0,0.0,0.0,0.0,0.0,0.0,0.0,0.0,0.0,0.0,0.0,0.0,0.0,0.0,0.0,0.0,0.0,0.0,0.0,0.0,0.0,0.0,0.0,0.0,0.0,0.0,0.0,0.0,0.0,0.0,0.0,0.0,0.0,0.0,0.0,0.0,0.0,0.0,0.0,0.0,0.0,0.0,0.0,0.0,0.0,0.0,0.0,0.0,0.0,0.0,0.0,0.0,0.0,0.0,0.0,0.0,0.0,0.0,0.0,0.0,0.0,0.0,0.0,0.0,0.0,0.0,0.0,0.0,0.0,0.0,0.0,0.0,0.0,0.0,0.0,0.0,0.0,0.0,0.0,0.0,0.0,0.0,0.0,0.0,0.0,0.0,0.0,0.0,0.0,0.0,0.0,0.0,0.0,0.0,0.0,0.0,0.0,0.0,0.0,0.0,0.0,0.0,0.0,0.0,0.0,0.0,0.0,0.0,0.0,0.0,0.0,0.0,0.0,0.0,0.0,0.0,0.0,0.0,0.0,0.0,0.0,0.0,0.0,0.0,0.0,0.0,0.0,0.0,0.0,0.0,0.0,0.0,0.0,0.0,0.0,0.0,0.0,0.0,0.0,0.0,0.0,0.0,0.0,0.0,0.0,0.0,0.0,0.0,0.0,0.0,0.0,0.0,0.0,0.0,0.0,0.0,0.0,0.0,0.0,0.0,0.0,0.0,0.0,0.0,0.0,0.0,0.0,0.0,0.0,0.0,0.0,0.0,0.0,0.0,0.0,0.0,0.0,0.0,0.0,0.0,0.0,0.0,0.0,0.0,0.0,0.0,0.0,0.0,0.0,0.0,0.0,0.0,0.0,0.0,0.0,0.0,0.0,0.0,0.0,0.0]}],[{"header":{"parameterUnit":"kt","parameterCategory":2,"dx":1,"dy":1,"la1":29.587661999999998,"la2":31.0,"lo1":-88.76705300000003,"lo2":-86.6583820000003,"nx":115,"ny":88,"refTime":"2022-09-26T06:00:00:Z","depth":0,"parameterNumber":2,"parameterNumberName":"V-component_of_WINDS"},"data":[-5.9814,-6.1275,-6.2661,-6.3521,-6.3934,-6.3906,-6.407,-6.4642,-6.6011,-6.6716,-6.755,-6.9188,-7.0575,-7.2264,-7.3345,-7.3728,-7.361,-7.4211,-7.5168,-7.5927,-7.5386,-7.6871,-7.8096,-7.8304,-7.8479,-7.9191,-8.0036,-8.0563,-8.0568,-8.1413,-8.2007,-8.1728,-8.1729,-8.1262,-8.1418,-8.1978,-8.2164,-8.2409,-8.2653,-8.3256,-8.3882,-8.4728,-8.6495,-8.6637,-8.6637,-8.6637,-8.6637,-8.6637,-8.6637,-8.6637,-8.6637,-8.6637,-8.6637,-8.6637,-8.6637,-8.6637,-8.6637,-8.6637,-8.6637,-8.6385,-8.6275,-8.6275,-8.6164,-8.5988,-8.5988,-8.5988,-8.6021,-8.6021,-8.6021,-8.6131,-8.6131,-8.6131,-8.6021,-8.6021,-8.6021,-8.4497,-8.3764,-8.4645,-8.5395,-8.476,-8.4031,-8.3764,-8.3105,-8.3225,-8.3256,-8.3614,-8.4381,-8.4265,-8.3732,-8.3977,-8.4457,-8.4073,-8.3566,-8.3368,-8.3583,-8.4349,-8.4297,-8.3408,-8.2896,-8.3614,-8.3495,-8.2622,-8.2864,-8.4265,-8.476,-8.4875,-8.5475,-8.562,-8.6242,-8.6131,-8.6495,-8.667,-8.6637,-8.6131,-8.562,-6.2688,-6.294,-6.3356,-6.4316,-6.5584,-6.5822,-6.6698,-6.8136,-6.8548,-6.9554,-7.1025,-7.2324,-7.2923,-7.3686,-7.4691,-7.5096,-7.5761,-7.683,-7.7242,-7.7743,-7.7806,-7.9559,-8.0403,-8.0623,-8.1513,-8.2531,-8.3179,-8.3339,-8.3403,-8.3658,-8.3764,-8.3527,-8.2653,-8.173,-8.2132,-8.2896,-8.3796,-8.418,-8.4645,-8.5653,-8.6021,-8.6527,-8.6637,-8.6637,-8.6637,-8.6637,-8.6637,-8.6637,-8.6637,-8.6637,-8.6637,-8.6637,-8.6637,-8.6637,-8.6637,-8.6637,-8.6637,-8.6637,-8.6637,-8.6637,-8.6637,-8.6637,-8.6637,-8.6637,-8.6495,-8.6495,-8.6495,-8.6527,-8.6527,-8.6637,-8.6637,-8.6495,-8.6495,-8.6495,-8.6495,-8.6131,-8.5988,-8.6242,-8.6385,-8.6385,-8.6131,-8.6131,-8.5988,-8.5988,-8.6021,-8.6131,-8.6275,-8.6131,-8.5909,-8.5605,-8.5525,-8.5151,-8.4774,-8.5347,-8.5923,-8.6021,-8.5877,-8.4989,-8.4645,-8.5508,-8.5877,-8.5103,-8.5103,-8.5988,-8.6021,-8.5988,-8.6495,-8.6637,-8.6637,-8.6495,-8.6702,-8.6768,-8.6867,-8.7196,-8.6965,-6.3934,-6.5127,-6.6891,-6.82,-6.9012,-6.9847,-7.0635,-7.1353,-7.1502,-7.244,-7.398,-7.5336,-7.6449,-7.735,-7.8646,-7.9505,-7.9526,-7.9996,-8.0449,-8.1138,-8.1937,-8.2823,-8.3614,-8.4229,-8.4747,-8.5055,-8.5475,-8.5508,-8.5443,-8.554,-8.5508,-8.5395,-8.5136,-8.4645,-8.4645,-8.5022,-8.554,-8.554,-8.6131,-8.6495,-8.6495,-8.6637,-8.6637,-8.6637,-8.6637,-8.6637,-8.6637,-8.6637,-8.6637,-8.6637,-8.6637,-8.6637,-8.6637,-8.6637,-8.6637,-8.6637,-8.6637,-8.6637,-8.6637,-8.6637,-8.6637,-8.6637,-8.6637,-8.6637,-8.6637,-8.6637,-8.6637,-8.6637,-8.6637,-8.6637,-8.6637,-8.6637,-8.6637,-8.6637,-8.6637,-8.6637,-8.6637,-8.6637,-8.6637,-8.6637,-8.6637,-8.6637,-8.6637,-8.6637,-8.6637,-8.6637,-8.6637,-8.6385,-8.6495,-8.6307,-8.6418,-8.6275,-8.6053,-8.6385,-8.6637,-8.6637,-8.6637,-8.6637,-8.6242,-8.6495,-8.6385,-8.6604,-8.6637,-8.6527,-8.6418,-8.6768,-8.6735,-8.6637,-8.6637,-8.7228,-8.7228,-8.7163,-8.7557,-8.805,-8.8642,-6.5927,-6.8103,-7.0272,-7.1412,-7.1852,-7.3037,-7.3407,-7.3551,-7.4469,-7.5928,-7.7272,-7.8483,-7.956,-8.0374,-8.1722,-8.2377,-8.2679,-8.295,-8.39,-8.4384,-8.4571,-8.527,-8.6706,-8.6166,-8.6614,-8.6962,-8.6854,-8.6495,-8.6385,-8.6495,-8.6637,-8.6637,-8.6385,-8.6131,-8.6131,-8.6242,-8.6385,-8.6385,-8.6637,-8.6637,-8.6637,-8.6637,-8.6637,-8.6637,-8.6637,-8.6637,-8.6637,-8.6637,-8.6637,-8.6637,-8.6637,-8.6637,-8.6637,-8.6637,-8.6637,-8.6637,-8.6637,-8.6637,-8.6637,-8.6637,-8.6637,-8.6637,-8.6637,-8.6637,-8.6637,-8.6637,-8.6637,-8.6637,-8.6637,-8.6637,-8.6637,-8.6637,-8.6637,-8.6637,-8.6637,-8.6637,-8.6637,-8.6637,-8.6637,-8.6637,-8.6637,-8.6637,-8.6637,-8.6637,-8.6637,-8.6637,-8.6637,-8.6637,-8.6637,-8.6801,-8.6834,-8.69,-8.6834,-8.6867,-8.6637,-8.6637,-8.6637,-8.6637,-8.6834,-8.6735,-8.6637,-8.6637,-8.6637,-8.667,-8.7097,-8.7634,-8.7766,-8.7393,-8.7656,-8.8215,-8.8445,-8.884,-8.9201,-8.9972,-9.0795,-7.0147,-7.2633,-7.1617,-7.1969,-7.3263,-7.36,-7.3806,-7.398,-7.7837,-8.0248,-8.1405,-8.1799,-8.2104,-8.2606,-8.4071,-8.463,-8.4751,-8.5694,-8.6395,-8.6449,-8.6688,-8.7212,-8.7753,-8.7397,-8.7853,-8.775,-8.7645,-8.7364,-8.6896,-8.7111,-8.7291,-8.667,-8.6854,-8.6713,-8.6746,-8.6637,-8.7004,-8.721,-8.7309,-8.7202,-8.7061,-8.6821,-8.6637,-8.6713,-8.6821,-8.6746,-8.6637,-8.668,-8.6637,-8.6637,-8.6637,-8.6637,-8.6637,-8.6637,-8.6637,-8.6637,-8.6637,-8.6637,-8.6637,-8.6637,-8.6637,-8.6637,-8.6637,-8.6637,-8.6637,-8.6637,-8.6637,-8.6637,-8.6637,-8.6637,-8.6637,-8.6637,-8.6637,-8.6637,-8.6637,-8.6637,-8.6637,-8.6637,-8.6637,-8.6637,-8.6637,-8.6637,-8.6637,-8.6637,-8.6637,-8.6637,-8.6637,-8.6637,-8.6735,-8.7031,-8.713,-8.7261,-8.7524,-8.7755,-8.7623,-8.7722,-8.7327,-8.6998,-8.7097,-8.7196,-8.7853,-8.7459,-8.6768,-8.7524,-8.8379,-8.8754,-8.8905,-8.9399,-8.9694,-8.9727,-8.9793,-9.0352,-9.1322,-9.2194,-9.3265,-7.241,-7.3263,-7.2809,-7.3426,-7.481,-7.58,-7.7345,-7.905,-8.1454,-8.2809,-8.3575,-8.5027,-8.5431,-8.5113,-8.665,-8.739,-8.6885,-8.803,-8.8633,-8.8533,-8.8794,-8.9058,-8.9252,-8.9155,-8.9058,-8.9155,-8.9092,-8.8533,-8.8896,-8.8831,-8.8265,-8.782,-8.775,-8.7364,-8.6971,-8.7045,-8.7541,-8.8224,-8.8696,-8.8796,-8.8564,-8.8197,-8.7923,-8.782,-8.782,-8.7291,-8.6896,-8.7526,-8.7282,-8.6755,-8.6746,-8.6637,-8.6779,-8.6746,-8.6713,-8.6746,-8.6746,-8.6821,-8.6821,-8.6821,-8.6746,-8.6637,-8.6637,-8.6953,-8.6986,-8.7433,-8.74,-8.7217,-8.7052,-8.6768,-8.6702,-8.667,-8.6702,-8.6735,-8.6735,-8.6735,-8.6735,-8.6768,-8.6768,-8.6801,-8.6801,-8.6867,-8.6768,-8.6637,-8.667,-8.6998,-8.7163,-8.7196,-8.7459,-8.7985,-8.8379,-8.8445,-8.8675,-8.8807,-8.9366,-8.9629,-8.9366,-8.9103,-8.8741,-8.8708,-8.93,-8.9234,-8.8905,-8.9201,-8.9727,-8.9548,-8.9581,-9.0435,-9.1404,-9.0779,-9.0615,-9.2239,-9.3932,-9.4631,-9.5694,-7.3935,-7.4765,-7.4816,-7.5629,-7.7101,-7.8976,-8.1285,-8.3811,-8.4819,-8.563,-8.6003,-8.7918,-8.8088,-8.766,-8.9276,-8.9403,-8.9505,-8.9695,-9.0127,-9.0035,-8.9789,-9.0345,-9.0436,-9.0254,-9.0436,-9.0436,-9.0345,-8.9849,-9.0162,-9.0069,-8.9505,-8.9092,-8.8994,-8.8533,-8.8096,-8.7722,-8.8794,-8.958,-8.9771,-8.983,-8.971,-8.9286,-8.9092,-8.8896,-8.8862,-8.8639,-8.8222,-8.8635,-8.8601,-8.7954,-8.7754,-8.7754,-8.7589,-8.735,-8.7118,-8.7151,-8.7185,-8.7218,-8.7291,-8.7574,-8.7469,-8.6929,-8.8678,-8.8573,-8.9089,-8.9566,-8.9457,-8.9478,-8.9331,-8.9019,-8.8865,-8.8754,-8.8642,-8.8642,-8.8642,-8.8675,-8.8708,-8.8708,-8.8741,-8.8708,-8.8622,-8.8655,-8.8544,-8.8346,-8.8116,-8.7985,-8.8018,-8.8215,-8.8609,-8.9629,-9.0122,-9.0122,-9.0221,-8.999,-9.0516,-9.1319,-9.1238,-9.1157,-9.0549,-9.0352,-9.0663,-9.0729,-9.0812,-9.1256,-9.2059,-9.1634,-9.0977,-9.1716,-9.3081,-9.2423,-9.2489,-9.4589,-9.6338,-9.6977,-9.7921,-7.5164,-7.7659,-7.7837,-7.8662,-8.0326,-8.2903,-8.5358,-8.779,-8.7914,-8.8705,-8.9944,-8.9932,-9.0092,-9.0082,-9.0242,-9.0345,-9.0345,-9.0402,-9.0583,-9.0583,-9.0851,-9.1324,-9.1446,-9.1185,-9.1446,-9.1446,-9.1272,-9.1063,-9.0402,-9.0797,-9.0797,-9.038,-9.0254,-9.0162,-9.0173,-9.0126,-9.0361,-9.0766,-9.0915,-9.092,-9.0866,-9.0436,-9.0162,-9.0162,-9.0082,-8.9897,-8.9707,-8.9864,-8.9942,-8.9746,-8.9771,-8.9863,-8.9651,-8.9005,-8.8568,-8.8332,-8.8332,-8.8366,-8.8601,-8.9592,-8.9136,-8.9027,-9.1773,-9.3755,-9.4121,-9.3153,-9.2553,-9.2111,-9.1733,-9.132,-9.0883,-9.0672,-9.0493,-9.0526,-9.0414,-9.0286,-9.0352,-9.0418,-9.0418,-9.0253,-9.0136,-9.0038,-8.9892,-9.0056,-8.9826,-9.0196,-9.0906,-9.1149,-9.2363,-9.3077,-9.3144,-9.3144,-9.2577,-9.1941,-9.1715,-9.2451,-9.2617,-9.3128,-9.2537,-9.2537,-9.1781,-9.1748,-9.2776,-9.3855,-9.4398,-9.4664,-9.4523,-9.4797,-9.5101,-9.5051,-9.513,-9.6843,-9.8415,-9.9099,-9.9404,-7.9795,-8.0751,-8.0695,-8.1478,-8.3238,-8.6607,-8.8488,-8.945,-9.0386,-9.0923,-9.1547,-9.2274,-9.2157,-9.1787,-9.2074,-9.2321,-9.1532,-9.2157,-9.2635,-9.2635,-9.2519,-9.2716,-9.2911,-9.2911,-9.2716,-9.299,-9.2796,-9.2519,-9.2356,-9.2555,-9.2473,-9.2192,-9.1941,-9.2046,-9.2567,-9.2706,-9.2716,-9.266,-9.2685,-9.2671,-9.2532,-9.2116,-9.162,-9.1655,-9.1582,-9.1289,-9.0818,-9.0704,-9.1091,-9.0351,-9.0127,-9.0136,-9.0068,-8.9778,-8.9669,-8.9532,-8.96,-8.9703,-9.0181,-9.1148,-9.2421,-9.2007,-9.4418,-9.5737,-9.5212,-9.5652,-9.5105,-9.4744,-9.4205,-9.3941,-9.3538,-9.2392,-9.2144,-9.1887,-9.1625,-9.1154,-9.1139,-9.137,-9.1256,-9.0911,-9.0828,-9.0747,-9.0779,-9.1223,-9.2153,-9.3111,-9.3986,-9.5524,-9.6769,-9.7112,-9.7284,-9.7112,-9.6732,-9.6075,-9.5586,-9.4909,-9.4679,-9.5002,-9.5348,-9.5627,-9.4902,-9.4311,-9.5438,-9.655,-9.6591,-9.6886,-9.745,-9.7848,-9.7819,-9.7848,-9.7944,-9.8929,-10.029,-10.08,-10.1149,-8.2231,-8.2367,-8.3174,-8.4871,-8.7119,-8.9857,-9.1063,-9.1532,-9.2309,-9.2751,-9.2911,-9.345,-9.3373,-9.3104,-9.3373,-9.3373,-9.2911,-9.3749,-9.3935,-9.3825,-9.3749,-9.3935,-9.3825,-9.3638,-9.3749,-9.3899,-9.3899,-9.3749,-9.3971,-9.3638,-9.3825,-9.386,-9.3096,-9.3749,-9.5067,-9.554,-9.5505,-9.5505,-9.5469,-9.5469,-9.5464,-9.4919,-9.4516,-9.4586,-9.4586,-9.4334,-9.377,-9.4457,-9.448,-9.3891,-9.387,-9.3676,-9.3606,-9.2861,-9.2709,-9.2549,-9.248,-9.2445,-9.2826,-9.4319,-9.5927,-9.6999,-9.8406,-9.9021,-9.8173,-9.7958,-9.7522,-9.7475,-9.753,-9.7078,-9.6532,-9.5477,-9.4965,-9.4619,-9.4163,-9.3508,-9.3211,-9.3266,-9.3154,-9.2988,-9.3732,-9.4296,-9.4473,-9.5451,-9.5626,-9.6249,-9.6664,-9.8005,-9.8686,-9.9232,-9.9669,-9.9703,-9.9703,-9.9504,-9.9133,-9.7693,-9.7203,-9.7237,-9.7577,-9.7843,-9.7843,-9.7475,-9.7966,-9.8176,-9.8514,-9.8916,-9.8923,-9.9032,-9.9677,-10.049,-10.0681,-10.1369,-10.1856,-10.2157,-10.2367,-8.2602,-8.2738,-8.5346,-8.8512,-9.1472,-9.2109,-9.2751,-9.345,-9.3714,-9.3749,-9.3749,-9.3825,-9.3825,-9.3825,-9.3749,-9.3825,-9.3674,-9.3825,-9.3935,-9.3935,-9.3935,-9.3935,-9.3935,-9.3935,-9.3935,-9.3935,-9.4256,-9.4399,-9.4185,-9.472,-9.4648,-9.4502,-9.4889,-9.5637,-9.8394,-9.8644,-9.868,-9.8644,-9.8394,-9.8252,-9.8109,-9.7924,-9.7695,-9.766,-9.7624,-9.7394,-9.6983,-9.7382,-9.7247,-9.7008,-9.7169,-9.7204,-9.7233,-9.6479,-9.628,-9.6264,-9.6369,-9.6475,-9.6913,-9.9503,-10.0308,-10.0663,-10.1171,-10.1978,-10.2714,-10.282,-10.1972,-10.0391,-10.0688,-10.0311,-9.9819,-9.9128,-9.8887,-9.8549,-9.8175,-9.773,-9.7386,-9.7316,-9.6902,-9.6626,-9.8039,-9.9099,-9.903,-9.8927,-9.8552,-9.8925,-9.9301,-9.947,-9.9831,-10.0131,-10.042,-10.0551,-10.0646,-10.0551,-10.0611,-9.9802,-9.9404,-9.9404,-9.9303,-9.9269,-9.9303,-9.9303,-9.9438,-9.9639,-9.9945,-10.0183,-10.0187,-10.0156,-10.1149,-10.2015,-10.2646,-10.2731,-10.3141,-10.3224,-10.3105,-8.7796,-8.7959,-8.8652,-9.0203,-9.2074,-9.3025,-9.3562,-9.3899,-9.3935,-9.3935,-9.3935,-9.3935,-9.3935,-9.3935,-9.3971,-9.4006,-9.4078,-9.4149,-9.4042,-9.4149,-9.4185,-9.3935,-9.3935,-9.4078,-9.4399,-9.422,-9.4827,-9.5647,-9.5683,-9.6789,-9.7187,-9.7258,-9.7396,-9.7717,-9.8965,-9.8744,-9.8744,-9.8787,-9.8794,-9.8758,-9.8858,-9.8894,-9.893,-9.9001,-9.9072,-9.91,-9.919,-9.9181,-9.9119,-9.9136,-9.9079,-9.8907,-9.8644,-9.8451,-9.8211,-9.8095,-9.8095,-9.8095,-9.8922,-10.0695,-10.2558,-10.2533,-10.3246,-10.3353,-10.3425,-10.3307,-10.3307,-10.266,-10.2696,-10.266,-10.2296,-10.1242,-10.0741,-10.0646,-10.0324,-10.0033,-9.9999,-9.9999,-9.9901,-9.9802,-9.9504,-9.9569,-9.9634,-9.9797,-10.0019,-10.1102,-10.1369,-10.146,-10.146,-10.1369,-10.1586,-10.1586,-10.1586,-10.1766,-10.2069,-10.1334,-10.0741,-10.0741,-10.0706,-10.0706,-10.0706,-10.0706,-10.0835,-10.1092,-10.1312,-10.1474,-10.1636,-10.1832,-10.2544,-10.3378,-10.326,-10.3141,-10.3425,-10.3425,-10.3425,-9.0127,-9.0311,-9.1272,-9.2074,-9.2831,-9.3562,-9.3935,-9.3935,-9.3935,-9.3935,-9.3935,-9.3935,-9.3935,-9.4149,-9.4363,-9.4863,-9.4934,-9.5398,-9.5826,-9.5754,-9.5754,-9.579,-9.579,-9.5933,-9.5683,-9.6111,-9.6718,-9.7288,-9.7366,-9.7931,-9.9157,-10.0528,-10.0658,-10.0579,-10.0535,-10.0811,-10.0776,-10.0713,-10.0686,-10.0615,-10.0535,-10.0571,-10.0571,-10.0571,-10.0571,-10.0553,-10.0496,-10.045,-10.0485,-10.0685,-10.074,-10.082,-10.0776,-10.074,-10.074,-10.074,-10.0776,-10.074,-10.1204,-10.213,-10.3389,-10.3425,-10.3425,-10.3425,-10.3425,-10.3425,-10.3425,-10.3425,-10.3342,-10.3224,-10.3342,-10.261,-10.1945,-10.1856,-10.1641,-10.1369,-10.1242,-10.146,-10.146,-10.1586,-10.1149,-10.0646,-10.0646,-10.0741,-10.198,-10.3021,-10.3224,-10.3342,-10.3021,-10.2901,-10.2731,-10.2696,-10.261,-10.2817,-10.2817,-10.2489,-10.2157,-10.2157,-10.2121,-10.2157,-10.2157,-10.2069,-10.1945,-10.2489,-10.2731,-10.256,-10.2646,-10.3224,-10.3425,-10.3342,-10.3342,-10.3532,-10.3496,-10.3425,-10.3425,-9.0436,-9.0617,-9.2911,-9.3825,-9.3825,-9.3935,-9.3935,-9.3935,-9.4078,-9.4149,-9.3931,-9.4327,-9.4684,-9.4791,-9.5968,-9.6539,-9.6651,-9.8151,-9.8341,-9.8484,-9.8877,-9.8643,-9.8538,-9.8576,-9.864,-9.8676,-9.9258,-9.9328,-9.9281,-10.0087,-10.1966,-10.41,-10.3444,-10.3479,-10.3364,-10.2941,-10.289,-10.2898,-10.2757,-10.2854,-10.2925,-10.2997,-10.2997,-10.3104,-10.3282,-10.3425,-10.3389,-10.2986,-10.2808,-10.2808,-10.2665,-10.2747,-10.2569,-10.264,-10.2604,-10.2604,-10.264,-10.2604,-10.264,-10.3139,-10.3425,-10.3425,-10.3425,-10.3425,-10.3425,-10.3425,-10.3425,-10.3425,-10.3425,-10.3425,-10.3425,-10.3342,-10.3021,-10.2901,-10.261,-10.2402,-10.2402,-10.261,-10.2696,-10.3224,-10.3105,-10.2524,-10.2402,-10.2192,-10.3141,-10.3224,-10.3425,-10.3425,-10.3425,-10.3425,-10.3425,-10.3425,-10.3425,-10.3425,-10.3425,-10.3224,-10.2817,-10.2781,-10.2781,-10.2986,-10.3105,-10.3224,-10.2901,-10.3224,-10.3224,-10.3307,-10.3425,-10.3425,-10.3425,-10.3425,-10.3675,-10.4103,-10.4174,-10.4745,-10.4745,-9.299,-9.299,-9.3638,-9.3935,-9.3935,-9.3935,-9.3971,-9.4113,-9.5295,-9.5148,-9.4782,-9.6397,-9.7431,-9.7681,-9.7901,-9.83,-9.8258,-9.9154,-9.955,-9.9863,-10.0128,-10.0571,-10.0725,-10.0608,-10.0571,-10.0507,-10.1569,-10.2137,-10.2575,-10.3333,-10.4237,-10.5455,-10.5166,-10.5166,-10.5065,-10.4642,-10.4278,-10.4244,-10.3851,-10.3552,-10.3471,-10.3507,-10.3425,-10.3425,-10.3425,-10.3425,-10.3425,-10.3425,-10.3425,-10.3425,-10.3425,-10.3425,-10.3425,-10.3425,-10.3425,-10.3425,-10.3425,-10.3425,-10.3425,-10.3425,-10.3425,-10.3425,-10.3425,-10.3425,-10.3425,-10.3425,-10.3425,-10.3425,-10.3425,-10.3425,-10.3425,-10.3425,-10.3425,-10.3425,-10.3425,-10.3425,-10.3342,-10.3141,-10.3224,-10.3425,-10.3425,-10.3425,-10.3425,-10.3425,-10.3425,-10.3425,-10.3425,-10.3425,-10.3425,-10.3425,-10.3425,-10.3425,-10.3425,-10.3425,-10.3425,-10.3425,-10.3425,-10.3307,-10.3307,-10.3342,-10.3307,-10.3342,-10.3425,-10.3425,-10.3342,-10.3746,-10.4531,-10.396,-10.3496,-10.4245,-10.4887,-10.4995,-10.5494,-10.6493,-10.6885,-9.3935,-9.3935,-9.3935,-9.3935,-9.4045,-9.5128,-9.5306,-9.5518,-9.7425,-9.8215,-9.8325,-9.9115,-9.9079,-9.8899,-9.9977,-10.0264,-10.0594,-10.1917,-10.2502,-10.2843,-10.3059,-10.3232,-10.3131,-10.3182,-10.3182,-10.3538,-10.4062,-10.4667,-10.5506,-10.6191,-10.6482,-10.6388,-10.6129,-10.6007,-10.5694,-10.5397,-10.5222,-10.502,-10.4784,-10.4274,-10.4042,-10.3887,-10.3765,-10.346,-10.3425,-10.3425,-10.3425,-10.3425,-10.3425,-10.3425,-10.3425,-10.3425,-10.3425,-10.3425,-10.3425,-10.3425,-10.3425,-10.3425,-10.3425,-10.3425,-10.3425,-10.3425,-10.3425,-10.3425,-10.3425,-10.3425,-10.3425,-10.3425,-10.3425,-10.3425,-10.3425,-10.3425,-10.3425,-10.3425,-10.3425,-10.3425,-10.3425,-10.3425,-10.3425,-10.3425,-10.3425,-10.3425,-10.3425,-10.3425,-10.3425,-10.3425,-10.3425,-10.3425,-10.3425,-10.3425,-10.3425,-10.3425,-10.3425,-10.3425,-10.3425,-10.3425,-10.3425,-10.3425,-10.3425,-10.3425,-10.3425,-10.3425,-10.3425,-10.3425,-10.3817,-10.4602,-10.5565,-10.5601,-10.5637,-10.5886,-10.6172,-10.6457,-10.685,-10.7813,-10.8277,-9.4012,-9.4012,-9.4337,-9.4446,-9.4984,-9.708,-9.7631,-9.7427,-10.0079,-10.2291,-10.3461,-10.1835,-10.0466,-10.0289,-10.174,-10.2643,-10.3279,-10.4559,-10.5504,-10.5491,-10.5777,-10.5949,-10.6109,-10.6212,-10.5949,-10.5969,-10.6056,-10.7031,-10.7454,-10.7273,-10.7273,-10.7171,-10.6708,-10.6308,-10.6539,-10.6212,-10.6068,-10.6007,-10.5945,-10.547,-10.4858,-10.475,-10.4423,-10.4042,-10.3844,-10.3922,-10.4078,-10.3749,-10.3642,-10.3588,-10.3532,-10.3425,-10.3425,-10.3425,-10.3425,-10.3425,-10.3425,-10.3425,-10.3425,-10.3425,-10.3425,-10.3425,-10.3425,-10.3425,-10.3425,-10.3425,-10.3425,-10.3425,-10.3425,-10.3425,-10.3425,-10.3425,-10.3425,-10.3425,-10.3425,-10.3425,-10.3425,-10.3425,-10.3425,-10.3425,-10.3425,-10.3425,-10.3425,-10.3425,-10.3425,-10.3425,-10.3425,-10.3425,-10.3425,-10.3425,-10.3425,-10.3425,-10.3425,-10.3425,-10.3425,-10.3425,-10.3425,-10.3425,-10.3425,-10.3425,-10.3425,-10.3425,-10.3425,-10.421,-10.4495,-10.5173,-10.6279,-10.7135,-10.7742,-10.792,-10.792,-10.8098,-10.8348,-10.8705,-10.924,-9.4782,-9.4994,-9.6903,-9.7758,-9.8013,-9.9681,-10.0279,-10.0547,-10.2145,-10.4563,-10.6814,-10.5418,-10.3728,-10.3253,-10.413,-10.5108,-10.5344,-10.6171,-10.6872,-10.6978,-10.7373,-10.7733,-10.7779,-10.7779,-10.7687,-10.7507,-10.7603,-10.7989,-10.8199,-10.8033,-10.7995,-10.7825,-10.7907,-10.7817,-10.7592,-10.7083,-10.6874,-10.665,-10.6299,-10.595,-10.5702,-10.5653,-10.5565,-10.5434,-10.547,-10.5368,-10.5178,-10.4675,-10.4421,-10.4239,-10.3853,-10.346,-10.3425,-10.3425,-10.3425,-10.3425,-10.3425,-10.3425,-10.3425,-10.3507,-10.3552,-10.3552,-10.3425,-10.3425,-10.3425,-10.3425,-10.3425,-10.3425,-10.3425,-10.3425,-10.3425,-10.3425,-10.3425,-10.3425,-10.3425,-10.3425,-10.3425,-10.3425,-10.3425,-10.3425,-10.3425,-10.3425,-10.3425,-10.3425,-10.3425,-10.3425,-10.3425,-10.3425,-10.3425,-10.3425,-10.3425,-10.3425,-10.3425,-10.3425,-10.3425,-10.3425,-10.346,-10.3746,-10.3996,-10.421,-10.4031,-10.3924,-10.4709,-10.5672,-10.5993,-10.685,-10.7242,-10.8027,-10.8776,-10.9347,-10.9597,-10.9811,-11.0096,-11.0382,-11.0596,-9.5642,-9.5788,-9.7872,-9.8778,-9.9239,-10.1636,-10.2667,-10.2624,-10.4693,-10.6703,-10.7576,-10.7039,-10.5782,-10.5152,-10.5651,-10.6152,-10.6578,-10.7323,-10.7603,-10.7733,-10.8033,-10.8241,-10.8199,-10.8199,-10.8241,-10.8241,-10.8241,-10.8241,-10.8241,-10.8241,-10.8241,-10.8241,-10.8241,-10.8241,-10.8156,-10.7862,-10.7677,-10.7619,-10.7347,-10.7126,-10.7113,-10.6593,-10.6249,-10.6031,-10.5945,-10.5962,-10.5839,-10.5386,-10.5249,-10.5156,-10.4839,-10.4474,-10.4293,-10.4348,-10.4679,-10.4679,-10.4679,-10.4715,-10.4643,-10.4159,-10.4042,-10.3964,-10.3597,-10.3425,-10.3425,-10.3507,-10.3425,-10.3425,-10.3425,-10.3425,-10.3425,-10.3425,-10.3425,-10.3425,-10.3425,-10.3425,-10.3425,-10.3425,-10.3425,-10.3425,-10.3425,-10.3425,-10.3425,-10.3425,-10.3425,-10.3425,-10.3425,-10.3425,-10.3425,-10.3425,-10.3425,-10.3425,-10.3425,-10.3425,-10.346,-10.3496,-10.3567,-10.4352,-10.4887,-10.5351,-10.553,-10.6065,-10.6671,-10.742,-10.8384,-10.9311,-10.9704,-10.9846,-11.0168,-11.056,-11.0881,-11.1238,-11.1666,-11.1951,-11.2094,-9.6578,-9.6945,-9.8764,-9.972,-10.0565,-10.3821,-10.4942,-10.4769,-10.6979,-10.828,-10.819,-10.7583,-10.6939,-10.6504,-10.6375,-10.6708,-10.7323,-10.7779,-10.8156,-10.8199,-10.8199,-10.8241,-10.8241,-10.8241,-10.8241,-10.8241,-10.8241,-10.8241,-10.8241,-10.8241,-10.8241,-10.8241,-10.8241,-10.8241,-10.8241,-10.8241,-10.8156,-10.807,-10.8033,-10.8033,-10.7937,-10.7544,-10.7031,-10.6652,-10.6615,-10.6549,-10.6408,-10.6235,-10.6152,-10.6091,-10.604,-10.5614,-10.5389,-10.5721,-10.5883,-10.582,-10.5694,-10.5629,-10.5565,-10.5166,-10.489,-10.4678,-10.4312,-10.4,-10.3922,-10.3922,-10.4118,-10.4042,-10.4,-10.3801,-10.3678,-10.3471,-10.3425,-10.3425,-10.3425,-10.3425,-10.3425,-10.3425,-10.3425,-10.3425,-10.3425,-10.3425,-10.3425,-10.3425,-10.3425,-10.3425,-10.3425,-10.3425,-10.3425,-10.3425,-10.3425,-10.3425,-10.346,-10.3567,-10.3782,-10.3996,-10.4673,-10.5744,-10.6208,-10.6707,-10.7099,-10.7884,-10.8919,-10.9775,-11.0703,-11.1183,-11.1647,-11.2058,-11.2094,-11.163,-11.2058,-11.2594,-11.2451,-11.2308,-11.2665,-9.8005,-9.935,-10.1729,-10.3543,-10.5041,-10.6801,-10.7504,-10.7459,-10.8124,-10.8231,-10.8226,-10.8188,-10.7877,-10.7883,-10.7825,-10.7907,-10.8076,-10.8241,-10.8241,-10.8241,-10.8241,-10.8241,-10.8241,-10.8241,-10.8241,-10.8241,-10.8241,-10.8241,-10.8241,-10.8241,-10.8241,-10.8241,-10.8241,-10.8241,-10.8241,-10.8241,-10.8241,-10.8241,-10.8241,-10.8241,-10.8199,-10.8119,-10.7951,-10.7687,-10.765,-10.769,-10.7596,-10.7211,-10.6888,-10.6846,-10.6271,-10.625,-10.6559,-10.6835,-10.6671,-10.6007,-10.6092,-10.6249,-10.6189,-10.5909,-10.5721,-10.5757,-10.5499,-10.5499,-10.5434,-10.5301,-10.5301,-10.5404,-10.527,-10.5029,-10.4424,-10.3964,-10.3552,-10.3425,-10.3425,-10.3425,-10.3425,-10.3425,-10.3552,-10.3552,-10.3642,-10.3642,-10.3597,-10.3801,-10.3552,-10.3425,-10.3425,-10.3425,-10.3425,-10.3425,-10.3471,-10.3552,-10.3782,-10.3996,-10.4887,-10.5351,-10.6707,-10.7492,-10.767,-10.7991,-10.8205,-10.9077,-10.9933,-11.1362,-11.22,-11.243,-11.2716,-11.3105,-11.3054,-11.2701,-11.2843,-11.334,-11.3206,-11.279,-11.3256,-9.8942,-10.0506,-10.2549,-10.439,-10.6035,-10.7568,-10.8241,-10.8241,-10.8241,-10.8241,-10.8241,-10.8241,-10.8241,-10.8241,-10.8241,-10.8241,-10.8241,-10.8241,-10.8241,-10.8241,-10.8241,-10.8241,-10.8241,-10.8241,-10.8241,-10.8241,-10.8241,-10.8241,-10.8241,-10.8241,-10.8241,-10.8241,-10.8241,-10.8241,-10.8241,-10.8241,-10.8241,-10.8241,-10.8241,-10.8241,-10.8241,-10.8241,-10.8241,-10.8241,-10.8241,-10.8241,-10.8241,-10.7867,-10.7719,-10.765,-10.7409,-10.7373,-10.7687,-10.7687,-10.7555,-10.7222,-10.7171,-10.7171,-10.7068,-10.6817,-10.6596,-10.6559,-10.6092,-10.6068,-10.5945,-10.5945,-10.5945,-10.5945,-10.5945,-10.582,-10.5331,-10.4497,-10.4123,-10.3928,-10.3642,-10.3425,-10.3507,-10.3801,-10.4159,-10.4534,-10.4274,-10.4082,-10.4274,-10.4785,-10.4679,-10.4159,-10.4082,-10.431,-10.4234,-10.3922,-10.3922,-10.3909,-10.4205,-10.4935,-10.597,-10.7099,-10.8348,-10.9026,-10.9204,-10.9418,-11.0097,-11.0706,-11.1157,-11.1873,-11.2834,-11.312,-11.3638,-11.37,-11.3818,-11.3838,-11.3935,-11.4093,-11.4171,-11.3935,-11.4212,-9.9679,-10.1548,-10.2894,-10.4577,-10.6446,-10.7717,-10.8241,-10.8241,-10.8241,-10.8241,-10.8241,-10.8241,-10.8241,-10.8241,-10.8241,-10.8241,-10.8241,-10.8241,-10.8241,-10.8241,-10.8241,-10.8241,-10.8241,-10.8241,-10.8241,-10.8241,-10.8241,-10.8241,-10.8241,-10.8241,-10.8241,-10.8241,-10.8241,-10.8241,-10.8241,-10.8241,-10.8241,-10.8241,-10.8241,-10.8241,-10.8241,-10.8241,-10.8241,-10.8241,-10.8241,-10.8241,-10.8241,-10.8241,-10.8241,-10.8241,-10.8199,-10.8076,-10.8156,-10.8199,-10.8156,-10.8076,-10.8119,-10.8199,-10.8156,-10.7687,-10.736,-10.7323,-10.6888,-10.6445,-10.6482,-10.6503,-10.6539,-10.6482,-10.6482,-10.6482,-10.6152,-10.5397,-10.4993,-10.482,-10.4423,-10.4118,-10.4118,-10.4534,-10.5061,-10.5463,-10.5264,-10.489,-10.496,-10.5499,-10.5397,-10.4993,-10.4993,-10.5197,-10.5029,-10.4679,-10.4534,-10.4312,-10.491,-10.5952,-10.7053,-10.8063,-10.9454,-11.0489,-11.0738,-11.1076,-11.2404,-11.3233,-11.3218,-11.3501,-11.371,-11.4093,-11.4778,-11.4814,-11.4478,-11.4959,-11.5307,-11.5029,-11.4958,-11.5169,-11.5307,-10.0352,-10.3193,-10.3343,-10.5175,-10.768,-10.8203,-10.8241,-10.8241,-10.8241,-10.8241,-10.8241,-10.8241,-10.8241,-10.8241,-10.8241,-10.8241,-10.8241,-10.8241,-10.8241,-10.8241,-10.8241,-10.8241,-10.8241,-10.8241,-10.8241,-10.8241,-10.8241,-10.8241,-10.8241,-10.8241,-10.8241,-10.8241,-10.8241,-10.8241,-10.8241,-10.8241,-10.8241,-10.8241,-10.8241,-10.8241,-10.8241,-10.8241,-10.8241,-10.8241,-10.8241,-10.8241,-10.8241,-10.8241,-10.8241,-10.8241,-10.8241,-10.8241,-10.8241,-10.8241,-10.8241,-10.8241,-10.8241,-10.8241,-10.8199,-10.8156,-10.8076,-10.8033,-10.7951,-10.8033,-10.7862,-10.7733,-10.7733,-10.7733,-10.7995,-10.7555,-10.7031,-10.6367,-10.5909,-10.5784,-10.582,-10.5694,-10.5694,-10.5757,-10.582,-10.5883,-10.5909,-10.582,-10.582,-10.5883,-10.5945,-10.581,-10.5847,-10.6031,-10.5995,-10.5528,-10.5166,-10.5174,-10.6091,-10.705,-10.8122,-10.9283,-11.0957,-11.2166,-11.2442,-11.2872,-11.4181,-11.463,-11.4994,-11.5357,-11.5506,-11.5834,-11.6047,-11.5672,-11.526,-11.5525,-11.6152,-11.5902,-11.5643,-11.6128,-11.625,-9.9866,-10.2034,-10.3006,-10.4764,-10.6895,-10.7867,-10.8241,-10.8241,-10.8241,-10.8241,-10.8241,-10.8241,-10.8241,-10.8241,-10.8241,-10.8241,-10.8241,-10.8241,-10.8241,-10.8241,-10.8241,-10.8241,-10.8241,-10.8241,-10.8241,-10.8241,-10.8241,-10.8241,-10.8241,-10.8241,-10.8241,-10.8241,-10.8241,-10.8241,-10.8241,-10.8241,-10.8241,-10.8241,-10.8241,-10.8241,-10.8241,-10.8241,-10.8241,-10.8241,-10.8241,-10.8241,-10.8241,-10.8241,-10.8241,-10.8241,-10.8241,-10.8241,-10.8241,-10.8241,-10.8241,-10.8241,-10.8241,-10.8241,-10.8241,-10.8241,-10.8241,-10.8241,-10.8241,-10.8241,-10.8241,-10.8241,-10.8241,-10.8241,-10.8241,-10.8076,-10.7779,-10.7507,-10.7083,-10.6726,-10.7031,-10.7273,-10.7273,-10.6872,-10.6835,-10.7031,-10.6925,-10.6615,-10.6615,-10.7031,-10.7031,-10.6763,-10.6652,-10.6817,-10.6978,-10.6271,-10.5956,-10.6741,-10.7642,-10.865,-10.9646,-11.1714,-11.3567,-11.4009,-11.4303,-11.4449,-11.5029,-11.5169,-11.5643,-11.626,-11.6995,-11.7466,-11.7392,-11.7221,-11.6622,-11.6437,-11.6924,-11.7144,-11.7144,-11.7429,-11.7429,-9.9492,-10.0987,-10.2258,-10.3978,-10.5997,-10.7082,-10.7867,-10.8241,-10.8241,-10.8241,-10.8241,-10.8241,-10.8241,-10.8241,-10.8241,-10.8241,-10.8241,-10.8241,-10.8241,-10.8241,-10.8241,-10.8241,-10.8241,-10.8241,-10.8241,-10.8241,-10.8241,-10.8241,-10.8241,-10.8241,-10.8241,-10.8241,-10.8241,-10.8241,-10.8241,-10.8241,-10.8241,-10.8241,-10.8241,-10.8241,-10.8241,-10.8241,-10.8241,-10.8241,-10.8241,-10.8241,-10.8241,-10.8241,-10.8241,-10.8241,-10.8241,-10.8241,-10.8241,-10.8241,-10.8241,-10.8241,-10.8241,-10.8241,-10.8241,-10.8241,-10.8241,-10.8241,-10.8241,-10.8241,-10.8241,-10.8241,-10.8241,-10.8241,-10.8241,-10.8241,-10.8241,-10.8199,-10.7951,-10.7555,-10.7779,-10.8119,-10.8076,-10.7779,-10.7603,-10.8076,-10.7733,-10.7459,-10.7507,-10.7817,-10.7907,-10.7555,-10.7459,-10.7592,-10.7687,-10.7273,-10.6763,-10.785,-10.9035,-11.0098,-11.1575,-11.3859,-11.5357,-11.5607,-11.5811,-11.5875,-11.6128,-11.6189,-11.6585,-11.6887,-11.7626,-11.7812,-11.8009,-11.8152,-11.8138,-11.7717,-11.784,-11.7754,-11.8057,-11.814,-11.8057,-9.9454,-10.0838,-10.1025,-10.2931,-10.5511,-10.6072,-10.6932,-10.8054,-10.8241,-10.8241,-10.8241,-10.8241,-10.8241,-10.8241,-10.8241,-10.8241,-10.8241,-10.8241,-10.8241,-10.8241,-10.8241,-10.8241,-10.8241,-10.8241,-10.8241,-10.8241,-10.8241,-10.8241,-10.8241,-10.8241,-10.8241,-10.8241,-10.8241,-10.8241,-10.8241,-10.8241,-10.8241,-10.8241,-10.8241,-10.8241,-10.8241,-10.8241,-10.8241,-10.8241,-10.8241,-10.8241,-10.8241,-10.8241,-10.8241,-10.8241,-10.8241,-10.8241,-10.8241,-10.8241,-10.8241,-10.8241,-10.8241,-10.8241,-10.8241,-10.8241,-10.8241,-10.8241,-10.8241,-10.8241,-10.8241,-10.8241,-10.8241,-10.8241,-10.8241,-10.8241,-10.8241,-10.8241,-10.8241,-10.8161,-10.8199,-10.8241,-10.8241,-10.8199,-10.8156,-10.8236,-10.8278,-10.8199,-10.8076,-10.8156,-10.8199,-10.8076,-10.8076,-10.8076,-10.8156,-10.8033,-10.7771,-10.8734,-11.0153,-11.12,-11.2174,-11.4464,-11.62,-11.6527,-11.6794,-11.7144,-11.748,-11.7568,-11.7754,-11.784,-11.8101,-11.8112,-11.8178,-11.8169,-11.8178,-11.8186,-11.8186,-11.8186,-11.8186,-11.8186,-11.8103,-9.8893,-9.9529,-10.0501,-10.166,-10.2894,-10.5137,-10.6259,-10.6857,-10.7829,-10.8241,-10.8241,-10.8241,-10.8241,-10.8241,-10.8241,-10.8241,-10.8241,-10.8241,-10.8241,-10.8241,-10.8241,-10.8241,-10.8241,-10.8241,-10.8241,-10.8241,-10.8241,-10.8241,-10.8241,-10.8241,-10.8241,-10.8241,-10.8241,-10.8241,-10.8241,-10.8241,-10.8241,-10.8241,-10.8241,-10.8241,-10.8241,-10.8241,-10.8241,-10.8241,-10.8241,-10.8241,-10.8241,-10.8241,-10.8241,-10.8241,-10.8241,-10.8241,-10.8241,-10.8241,-10.8241,-10.8241,-10.8241,-10.8241,-10.8241,-10.8241,-10.8241,-10.8241,-10.8241,-10.8241,-10.8241,-10.8241,-10.8241,-10.8241,-10.8241,-10.8241,-10.8241,-10.8241,-10.8241,-10.8241,-10.8241,-10.8241,-10.8241,-10.8241,-10.8241,-10.8241,-10.8241,-10.8241,-10.8241,-10.8241,-10.8241,-10.8241,-10.8241,-10.8241,-10.8241,-10.8241,-10.8156,-10.866,-11.0565,-11.2057,-11.3094,-11.4787,-11.6756,-11.7154,-11.7469,-11.7935,-11.8186,-11.8186,-11.8186,-11.8186,-11.8186,-11.8186,-11.8186,-11.8186,-11.8186,-11.8186,-11.8186,-11.8186,-11.8186,-11.8186,-11.8186,-9.852,-9.8669,-9.9753,-10.0426,-10.1249,-10.3343,-10.4726,-10.5324,-10.6857,-10.7418,-10.7418,-10.7942,-10.8241,-10.8241,-10.8241,-10.8241,-10.8241,-10.8241,-10.8241,-10.8241,-10.8241,-10.8241,-10.8241,-10.8241,-10.8241,-10.8241,-10.8241,-10.8241,-10.8241,-10.8241,-10.8241,-10.8241,-10.8241,-10.8241,-10.8241,-10.8241,-10.8241,-10.8241,-10.8241,-10.8241,-10.8241,-10.8241,-10.8241,-10.8241,-10.8241,-10.8241,-10.8241,-10.8241,-10.8241,-10.8241,-10.8241,-10.8241,-10.8241,-10.8241,-10.8241,-10.8241,-10.8241,-10.8241,-10.8241,-10.8241,-10.8241,-10.8241,-10.8241,-10.8241,-10.8241,-10.8241,-10.8241,-10.8241,-10.8241,-10.8241,-10.8241,-10.8241,-10.8241,-10.8241,-10.8241,-10.8241,-10.8241,-10.8241,-10.8241,-10.8241,-10.8241,-10.8241,-10.8241,-10.8241,-10.8241,-10.8241,-10.8241,-10.8241,-10.8241,-10.8241,-10.8241,-10.8428,-11.0634,-11.2445,-11.3651,-11.5121,-11.6239,-11.6497,-11.7375,-11.8149,-11.8186,-11.8186,-11.8186,-11.8186,-11.8186,-11.8186,-11.8186,-11.8186,-11.8186,-11.8186,-11.8186,-11.8186,-11.8186,-11.8186,-11.8186,-9.852,-9.8557,-9.8594,-9.9492,-10.0651,-10.1212,-10.2034,-10.3567,-10.5212,-10.5661,-10.5549,-10.7269,-10.8016,-10.8166,-10.8203,-10.8203,-10.8129,-10.8203,-10.8241,-10.8241,-10.8241,-10.8241,-10.8241,-10.8241,-10.8241,-10.8241,-10.8241,-10.8241,-10.8241,-10.8241,-10.8241,-10.8241,-10.8241,-10.8241,-10.8241,-10.8241,-10.8241,-10.8241,-10.8241,-10.8241,-10.8241,-10.8241,-10.8241,-10.8241,-10.8241,-10.8241,-10.8241,-10.8241,-10.8241,-10.8241,-10.8241,-10.8241,-10.8091,-10.7867,-10.8054,-10.7829,-10.8054,-10.8129,-10.8054,-10.7904,-10.7717,-10.7717,-10.8016,-10.7792,-10.7904,-10.8016,-10.8091,-10.8203,-10.8241,-10.8241,-10.8241,-10.8241,-10.8241,-10.8241,-10.8241,-10.8241,-10.8241,-10.8241,-10.8241,-10.8241,-10.8241,-10.8241,-10.8241,-10.8241,-10.8241,-10.8241,-10.8241,-10.8241,-10.8241,-10.8241,-10.8241,-10.8577,-11.0035,-11.2017,-11.3699,-11.5232,-11.5419,-11.5831,-11.684,-11.7663,-11.7513,-11.8111,-11.8111,-11.8186,-11.8186,-11.8186,-11.8186,-11.8186,-11.8186,-11.8186,-11.8186,-11.8186,-11.8186,-11.8186,-11.8186,-9.852,-9.852,-9.852,-9.8819,-9.9417,-10.0426,-10.1212,-10.1885,-10.3492,-10.4128,-10.4315,-10.5848,-10.667,-10.682,-10.7792,-10.7755,-10.6857,-10.7792,-10.8241,-10.8241,-10.8241,-10.8241,-10.8241,-10.8241,-10.8241,-10.8241,-10.8241,-10.8241,-10.8241,-10.8241,-10.8241,-10.8241,-10.8241,-10.8241,-10.8241,-10.8241,-10.8241,-10.8241,-10.8241,-10.8241,-10.8241,-10.8241,-10.8241,-10.8241,-10.8241,-10.8241,-10.8241,-10.8241,-10.8241,-10.8241,-10.8241,-10.7829,-10.6666,-10.5623,-10.4988,-10.4988,-10.5025,-10.4988,-10.4988,-10.4988,-10.4988,-10.4988,-10.5025,-10.5549,-10.6558,-10.667,-10.7269,-10.8016,-10.8241,-10.8241,-10.8241,-10.8203,-10.8241,-10.8241,-10.8241,-10.8241,-10.8241,-10.8241,-10.8241,-10.8241,-10.8241,-10.8241,-10.8241,-10.8241,-10.8241,-10.8241,-10.8241,-10.8241,-10.8241,-10.8241,-10.8241,-10.839,-10.9661,-11.1162,-11.2247,-11.2765,-11.2952,-11.4111,-11.5195,-11.598,-11.6466,-11.7551,-11.8074,-11.8149,-11.8186,-11.8186,-11.8186,-11.8186,-11.8186,-11.8186,-11.8186,-11.8186,-11.8186,-11.8186,-11.8186,-9.852,-9.852,-9.852,-9.852,-9.8632,-9.9604,-10.009,-10.0202,-10.1772,-10.252,-10.2819,-10.4315,-10.5025,-10.5063,-10.6072,-10.596,-10.525,-10.667,-10.7418,-10.7493,-10.8016,-10.8241,-10.8241,-10.8241,-10.8241,-10.8241,-10.8241,-10.8241,-10.8241,-10.8241,-10.8241,-10.8241,-10.8241,-10.8241,-10.8241,-10.8241,-10.8241,-10.8241,-10.8241,-10.8241,-10.8241,-10.8241,-10.8241,-10.8241,-10.8241,-10.8016,-10.7493,-10.7456,-10.7115,-10.6517,-10.6517,-10.6068,-10.5056,-10.3975,-10.3418,-10.3418,-10.3418,-10.3418,-10.3418,-10.3418,-10.3418,-10.3418,-10.3418,-10.4016,-10.4801,-10.5025,-10.5399,-10.6334,-10.6969,-10.7007,-10.6745,-10.6521,-10.6745,-10.7269,-10.7418,-10.7568,-10.8054,-10.8241,-10.8241,-10.8241,-10.8241,-10.8241,-10.8241,-10.8241,-10.8241,-10.8241,-10.8241,-10.8241,-10.8241,-10.8241,-10.8241,-10.8465,-10.9175,-10.9998,-11.0414,-11.0447,-11.1082,-11.2428,-11.3587,-11.4447,-11.4821,-11.5718,-11.6653,-11.6616,-11.6691,-11.684,-11.8037,-11.8074,-11.8186,-11.8186,-11.8186,-11.8186,-11.8149,-11.8186,-11.8186,-9.852,-9.852,-9.852,-9.852,-9.852,-9.8594,-9.8594,-9.8781,-10.0165,-10.0838,-10.1025,-10.2595,-10.3268,-10.3118,-10.3343,-10.3343,-10.353,-10.5063,-10.581,-10.596,-10.7194,-10.8016,-10.8166,-10.8166,-10.8166,-10.8241,-10.8241,-10.8241,-10.8241,-10.8241,-10.8241,-10.8241,-10.8241,-10.8241,-10.8241,-10.8241,-10.8241,-10.8241,-10.8241,-10.8241,-10.8241,-10.8129,-10.8054,-10.8016,-10.7979,-10.7194,-10.6031,-10.5844,-10.513,-10.352,-10.3595,-10.3483,-10.3333,-10.3265,-10.3118,-10.3044,-10.3044,-10.3081,-10.3006,-10.2931,-10.2931,-10.3044,-10.2782,-10.3156,-10.3268,-10.3305,-10.3492,-10.353,-10.4913,-10.4913,-10.3754,-10.3829,-10.4427,-10.5623,-10.5848,-10.6521,-10.7867,-10.7904,-10.8129,-10.8241,-10.8241,-10.8241,-10.8241,-10.8241,-10.8241,-10.8241,-10.8241,-10.8241,-10.8241,-10.8241,-10.8241,-10.8278,-10.8315,-10.8315,-10.8465,-10.9362,-11.0297,-11.1007,-11.1905,-11.3176,-11.3213,-11.3475,-11.4335,-11.4971,-11.5307,-11.6092,-11.7364,-11.785,-11.7663,-11.7438,-11.7289,-11.77,-11.7438,-11.785,-11.8186,-9.852,-9.852,-9.852,-9.852,-9.852,-9.852,-9.852,-9.8594,-9.8968,-9.9155,-9.938,-10.0875,-10.0987,-10.0127,-10.1099,-10.1585,-10.181,-10.338,-10.4128,-10.4165,-10.4539,-10.5399,-10.6483,-10.6558,-10.7156,-10.8091,-10.8203,-10.8241,-10.8241,-10.8241,-10.8241,-10.8241,-10.8241,-10.8241,-10.8241,-10.8241,-10.8241,-10.8241,-10.8241,-10.8241,-10.8091,-10.7156,-10.6596,-10.6483,-10.5399,-10.4577,-10.4128,-10.4132,-10.3833,-10.3459,-10.3421,-10.2897,-10.1699,-10.155,-10.1063,-10.0015,-9.9866,-9.9866,-9.9866,-9.9866,-9.9866,-9.9866,-9.9903,-10.0352,-10.1324,-10.1585,-10.2146,-10.3006,-10.2707,-10.2146,-10.1735,-10.2707,-10.353,-10.3978,-10.4128,-10.4764,-10.6296,-10.6599,-10.6973,-10.8054,-10.8091,-10.8241,-10.8241,-10.8241,-10.8241,-10.8241,-10.8241,-10.8241,-10.8241,-10.8241,-10.8241,-10.8241,-10.8241,-10.8278,-10.8278,-10.8876,-10.8839,-10.9288,-11.0372,-11.1494,-11.1494,-11.269,-11.3737,-11.3812,-11.4522,-11.5158,-11.5457,-11.5644,-11.5569,-11.5195,-11.5532,-11.6279,-11.6391,-11.7438,-11.7924,-9.852,-9.852,-9.852,-9.852,-9.852,-9.852,-9.852,-9.852,-9.852,-9.852,-9.8669,-9.9492,-9.9417,-9.8594,-9.9492,-9.994,-10.0053,-10.1623,-10.2408,-10.2445,-10.3193,-10.4016,-10.4838,-10.5025,-10.5437,-10.6259,-10.7007,-10.7343,-10.7381,-10.7979,-10.8241,-10.8241,-10.8241,-10.8241,-10.8241,-10.8241,-10.8241,-10.8241,-10.8241,-10.7605,-10.6371,-10.5362,-10.4913,-10.4801,-10.3941,-10.3118,-10.2485,-10.2374,-10.2075,-10.1513,-10.1438,-10.0952,-9.9941,-9.9904,-9.9231,-9.7697,-9.751,-9.7211,-9.6538,-9.6463,-9.6762,-9.751,-9.751,-9.8183,-9.9753,-9.994,-9.9978,-10.0277,-9.9492,-9.9267,-9.9903,-10.0838,-10.1698,-10.2296,-10.2408,-10.3044,-10.4726,-10.4916,-10.5552,-10.7044,-10.7306,-10.7456,-10.8091,-10.8241,-10.8241,-10.8241,-10.8241,-10.8241,-10.8241,-10.8241,-10.8241,-10.8278,-10.8502,-10.8615,-10.8652,-10.8615,-10.8731,-10.8839,-10.9512,-11.0152,-11.0302,-11.112,-11.1942,-11.2534,-11.2385,-11.2385,-11.3219,-11.4036,-11.4223,-11.426,-11.4634,-11.5008,-11.4896,-11.5681,-11.6279,-9.8034,-9.8071,-9.7921,-9.8071,-9.7996,-9.8183,-9.837,-9.852,-9.852,-9.8445,-9.7921,-9.8071,-9.8071,-9.8295,-9.8295,-9.8445,-9.8744,-10.0053,-10.0688,-10.0875,-10.2522,-10.3309,-10.3235,-10.3455,-10.353,-10.3754,-10.5025,-10.5698,-10.5773,-10.7007,-10.7755,-10.7792,-10.7792,-10.768,-10.7755,-10.7717,-10.7755,-10.7792,-10.7829,-10.6409,-10.3604,-10.3268,-10.3193,-10.3193,-10.3006,-10.226,-10.0802,-10.0652,-9.9941,-9.8482,-9.837,-9.8295,-9.8034,-9.8071,-9.7361,-9.594,-9.579,-9.5155,-9.3771,-9.3509,-9.4257,-9.5603,-9.579,-9.6426,-9.7809,-9.8034,-9.7398,-9.6351,-9.5865,-9.6538,-9.7809,-9.8258,-9.8968,-10.0127,-10.0539,-10.1361,-10.2782,-10.3195,-10.3831,-10.5474,-10.5698,-10.6225,-10.7231,-10.7755,-10.7942,-10.7867,-10.8129,-10.8465,-10.8465,-10.8428,-10.8469,-10.8555,-10.8854,-10.9156,-10.9194,-10.9229,-10.9157,-10.9232,-10.9267,-10.9344,-10.9457,-10.957,-10.9679,-11.0957,-11.0503,-11.0842,-11.2341,-11.3308,-11.2975,-11.2796,-11.302,-11.3537,-11.3604,-11.3898,-11.3828,-9.4631,-9.4631,-9.4631,-9.4631,-9.4781,-9.6015,-9.7361,-9.8482,-9.8482,-9.7061,-9.4855,-9.4631,-9.5379,-9.6538,-9.6575,-9.7286,-9.8445,-9.8893,-9.908,-9.9118,-9.9754,-10.061,-10.1691,-10.1775,-10.2558,-10.3602,-10.3866,-10.3978,-10.4016,-10.4315,-10.4539,-10.4502,-10.4539,-10.4539,-10.4502,-10.4539,-10.4502,-10.4539,-10.4502,-10.4165,-10.338,-10.2109,-10.1473,-10.1399,-10.0314,-9.9492,-9.9118,-9.9081,-9.8295,-9.6725,-9.6613,-9.6014,-9.4744,-9.4632,-9.4445,-9.4145,-9.407,-9.3921,-9.3547,-9.3509,-9.3659,-9.4033,-9.407,-9.4257,-9.4594,-9.4631,-9.4444,-9.4145,-9.407,-9.4257,-9.4855,-9.5828,-9.6725,-9.7136,-9.8258,-9.9604,-10.1137,-10.1437,-10.2149,-10.3604,-10.4016,-10.4091,-10.4689,-10.5851,-10.6714,-10.6976,-10.8095,-10.8955,-10.9068,-10.9068,-10.9007,-10.9024,-10.9132,-10.9283,-10.9283,-10.9283,-10.9283,-10.9283,-10.9283,-10.9321,-10.9283,-10.9283,-10.9547,-10.9736,-10.9748,-11.0189,-11.0227,-11.034,-11.0453,-11.068,-11.0831,-11.0918,-11.192,-11.2906,-11.3278,-9.3509,-9.3509,-9.3509,-9.3509,-9.3547,-9.4482,-9.5416,-9.6201,-9.6239,-9.5192,-9.3547,-9.3509,-9.3996,-9.4818,-9.4893,-9.5379,-9.6276,-9.7061,-9.7398,-9.7473,-9.8595,-9.9479,-10.0171,-10.042,-10.0912,-10.1735,-10.2221,-10.252,-10.2667,-10.3193,-10.3492,-10.3604,-10.3455,-10.3418,-10.3418,-10.3418,-10.3418,-10.338,-10.1959,-10.1212,-10.1137,-10.0314,-9.9828,-9.9828,-9.9006,-9.822,-9.7398,-9.7398,-9.6613,-9.4893,-9.4893,-9.4444,-9.3586,-9.3473,-9.3173,-9.25,-9.2463,-9.2126,-9.1304,-9.1304,-9.1603,-9.2388,-9.2425,-9.2126,-9.1304,-9.1266,-9.1603,-9.235,-9.2425,-9.2724,-9.3472,-9.4332,-9.4893,-9.4855,-9.5641,-9.6912,-9.8333,-9.8669,-9.9642,-10.181,-10.2219,-10.2632,-10.3494,-10.4504,-10.5183,-10.5495,-10.6913,-10.8412,-10.9127,-10.8816,-10.8663,-10.9417,-10.9607,-10.9607,-10.9594,-10.9594,-10.9594,-10.9594,-10.9594,-10.9594,-10.9594,-10.9594,-10.9632,-10.9632,-10.9784,-10.986,-10.9708,-10.9607,-10.9594,-10.9594,-10.9594,-10.9822,-11.0539,-11.1419,-11.1469,-9.2799,-9.2799,-9.2836,-9.2799,-9.2836,-9.3061,-9.3173,-9.3173,-9.2949,-9.2836,-9.2799,-9.2836,-9.2949,-9.3173,-9.3173,-9.3285,-9.3584,-9.4968,-9.5678,-9.579,-9.7697,-9.8533,-9.8353,-9.8879,-9.9156,-9.9156,-10.0314,-10.1062,-10.1359,-10.2221,-10.2857,-10.2969,-10.2857,-10.267,-10.2745,-10.2745,-10.2745,-10.267,-9.994,-9.852,-9.852,-9.852,-9.852,-9.852,-9.8333,-9.751,-9.6089,-9.5791,-9.4894,-9.325,-9.3169,-9.3054,-9.2836,-9.276,-9.2236,-9.0967,-9.0817,-9.0182,-8.8761,-8.8612,-8.9247,-9.0668,-9.0817,-9.0107,-8.8462,-8.8275,-8.8985,-9.0593,-9.078,-9.1416,-9.2612,-9.3023,-9.3173,-9.321,-9.3397,-9.407,-9.5528,-9.5753,-9.6874,-9.9716,-10.0202,-10.0875,-10.2486,-10.3235,-10.364,-10.4081,-10.5446,-10.694,-10.7901,-10.7772,-10.7822,-10.8923,-10.9303,-10.9303,-10.8923,-10.9379,-10.9493,-10.9645,-10.9759,-10.9948,-10.9986,-10.9986,-10.9986,-10.9986,-11.0024,-11.0024,-11.0024,-11.0062,-10.9986,-10.9986,-10.9986,-10.9986,-11.01,-10.9722,-10.9495,-8.9509,-8.9509,-8.9509,-8.9509,-8.9621,-9.0967,-9.1603,-9.149,-9.007,0.0,0.0,-8.9509,-9.0257,-9.1565,-9.1603,-9.2276,-9.3472,-9.3809,-9.3921,-9.3996,-9.4781,-9.5172,-9.5177,-9.6838,-9.7584,-9.766,-9.8781,-9.9342,-9.9417,-9.938,-9.9454,-9.9492,-9.9417,-9.9417,-9.9417,-9.9417,-9.9417,-9.9342,-9.8819,-9.852,-9.852,-9.852,-9.852,-9.852,-9.7211,-9.6314,-9.6014,-9.4667,-9.3204,-9.1675,-9.1597,-9.0961,-8.9584,-8.9506,-8.9394,-8.9098,-8.9098,-8.8911,-8.8649,-8.8612,-8.8799,-8.9023,-8.906,-8.8387,-8.6667,-8.6555,-8.7266,-8.8948,-8.9098,-8.9172,-8.9471,-9.0705,-9.1603,-9.1603,-9.2724,-9.3547,-9.3883,-9.3921,-9.4706,-9.6426,-9.6949,-9.7622,-9.9567,-10.1066,-10.2098,-10.2573,-10.3988,-10.5418,-10.5608,-10.5582,-10.5582,-10.5962,-10.6266,-10.6038,-10.6076,-10.7025,-10.786,-10.7974,-10.9037,-10.9986,-11.0062,-11.0062,-11.0062,-10.9759,-11.0024,-10.991,-10.9986,-10.9797,-11.0062,-11.0062,-11.0062,-11.0062,-10.991,-10.8869,-10.7898,-8.8612,-8.8612,-8.8612,-8.8612,0.0,-8.9546,-8.9883,-8.9808,-8.8985,-8.8612,-8.8612,-8.8612,-8.9098,-8.9883,-8.9883,-9.0331,-9.1042,-9.1902,-9.2388,-9.2463,-9.3583,-9.4193,-9.452,-9.5322,-9.5789,-9.5953,-9.6227,-9.6478,-9.6575,-9.6164,-9.6052,-9.6201,-9.6052,-9.6388,-9.7248,-9.7248,-9.6837,-9.5977,-9.6015,-9.6015,-9.5977,-9.5977,-9.6015,-9.594,-9.5192,0.0,0.0,0.0,0.0,0.0,0.0,0.0,0.0,-8.7378,0.0,-8.5791,-8.6005,-8.6039,-8.5717,-8.5968,-8.6181,-8.6181,-8.6181,-8.5434,-8.3788,-8.4424,-8.5284,-8.6107,-8.6892,-8.734,-8.7415,-8.8911,-8.9883,-8.992,-9.0556,-9.1416,-9.2126,-9.2313,-9.2986,-9.4444,-9.4893,-9.5304,-9.6463,-9.8198,-9.9455,-9.9888,-10.2014,-10.3684,-10.3684,-10.3684,-10.3684,-10.3684,-10.433,-10.4937,-10.5013,-10.5734,-10.619,-10.6266,-10.6873,-10.7405,-10.7481,-10.7443,-10.7443,-10.7481,-10.7481,-10.7443,-10.7481,-10.7443,-10.7443,-10.7481,-10.7481,-10.7405,-10.7257,-10.6686,-10.6228,-8.8612,-8.8612,-8.8612,-8.8612,-8.8574,-8.7939,-8.7714,-8.7714,-8.7714,-8.7714,-8.7752,-8.8384,-8.8645,-8.8612,-8.8612,-8.8612,-8.8724,-9.007,-9.0743,-9.0892,-9.2311,-9.3214,-9.3597,-9.375,-9.3891,-9.409,-9.3986,-9.4007,-9.4219,-9.3734,-9.3622,-9.3772,-9.3622,-9.4182,-9.5491,0.0,0.0,0.0,-9.3473,-9.3473,-9.3509,-9.3509,-9.3509,-9.3509,-9.321,0.0,-9.1223,-9.0849,-9.0063,-8.872,-8.8312,0.0,0.0,0.0,0.0,0.0,0.0,0.0,0.0,0.0,0.0,0.0,-8.1551,-8.0835,-7.9563,-8.1246,-8.2629,-8.3265,-8.4461,-8.5321,-8.5658,-8.6929,-8.7826,-8.8125,-8.8163,-8.8836,-9.0444,-9.0668,-9.1304,-9.2874,-9.3249,-9.362,-9.434,-9.5668,-9.6817,-9.7268,-9.966,-10.1292,-10.0989,-10.1216,-10.1482,-10.1596,-10.2735,-10.3874,-10.4026,-10.4216,-10.4481,-10.4557,-10.4633,-10.5051,-10.5127,-10.5089,-10.5013,-10.5089,-10.4937,-10.5051,-10.5051,-10.4937,-10.5165,-10.4937,-10.5013,-10.4629,-10.3465,-10.3571,-10.4102,-8.8612,-8.8612,-8.8612,-8.8612,-8.8387,-8.5583,-8.4387,-8.4387,-8.4387,-8.4387,-8.4611,-8.7374,-8.8608,-8.8612,-8.8612,-8.8612,-8.8612,-8.8873,-8.8948,-8.9023,-8.9431,-8.9681,-8.9816,-9.1336,-9.2107,-9.2174,-9.3333,-9.3912,-9.3917,-9.3622,-9.3509,-9.3547,-9.3509,-9.3622,-9.3734,-9.2463,-9.235,-9.347,-9.3509,-9.3473,-9.3509,-9.3509,-9.3509,-9.3472,-9.2163,-9.1376,-9.1148,-8.973,-8.887,-8.8574,-8.7194,-8.6335,-8.6107,-8.4798,-8.3307,0.0,-8.1551,0.0,0.0,0.0,0.0,0.0,0.0,0.0,0.0,-7.5534,-7.8524,-8.1358,-8.1769,-8.2517,-8.3938,-8.4274,-8.4947,-8.6256,-8.6443,-8.7116,-8.8686,-8.8911,-8.9621,-9.1266,-9.1603,-9.2383,-9.3882,-9.4671,-9.5058,-9.5484,-9.704,-9.7686,-9.6509,-9.7382,-9.8331,-9.8179,-9.9546,-10.0571,-10.0685,-10.1748,-10.2583,-10.2811,-10.3532,-10.4899,-10.4557,-10.4633,-10.4747,-10.4709,-10.4481,-10.4633,-10.4937,-10.4747,-10.4709,-10.4178,-10.4227,-10.3081,-9.9637,-9.9483,-10.0989,-8.5957,-8.5957,-8.5957,-8.592,-8.5807,-8.4424,-8.3751,-8.3751,-8.3751,-8.2747,-8.1183,-8.4499,-8.5952,-8.592,-8.592,-8.5957,-8.592,-8.592,-8.648,-8.7449,-8.7449,-8.8047,-8.9132,-8.9733,-9.0108,-9.0288,-9.074,-9.0964,-9.0964,-9.0855,-9.0817,-9.0817,-9.078,-9.078,-9.078,-9.0107,-9.0107,-9.0815,-9.0817,-9.0817,-9.0817,-9.0817,-9.078,-9.078,-9.0107,-8.9805,-8.973,-8.8125,-8.7232,-8.7194,-8.5703,-8.3985,-8.2069,-8.0536,-7.8798,0.0,0.0,0.0,0.0,0.0,0.0,0.0,0.0,0.0,0.0,0.0,-7.3262,-7.5534,-7.747,-7.8853,-7.9601,-8.1321,-8.2667,-8.334,-8.4274,-8.5097,-8.5845,-8.6705,-8.7527,-8.8275,-8.9359,-9.0425,-9.1359,-9.2532,-9.3332,-9.3662,-9.4214,-9.4289,-9.3759,-9.5046,-9.6167,-9.6205,-9.6774,-9.7192,-9.723,-9.7875,-9.8369,-9.8407,-9.8976,-9.947,-9.947,-9.947,-9.947,-9.9432,-9.9508,-9.947,-9.947,-9.937,-9.9246,-9.9128,-9.9051,-9.8178,-9.6091,-9.6342,-9.7173,-8.3751,-8.3676,-8.2069,-8.1396,-8.1433,-8.1433,-8.1433,-8.1433,-8.1433,-7.9981,-7.7758,-8.0729,-8.2698,-8.374,-8.296,-8.2779,-8.319,-8.319,-8.4125,-8.5765,-8.5658,-8.6368,-8.7897,-8.7673,-8.7565,-8.7785,-8.7939,-8.8013,-8.8051,-8.8425,-8.8612,-8.8574,-8.7826,-8.7677,-8.8013,-8.8013,-8.82,-8.8612,-8.8612,-8.8612,-8.8612,-8.8612,-8.8612,-8.8612,-8.8612,-8.8425,-8.8051,-8.6783,-8.5741,-8.4956,-8.3428,-8.1033,-7.7731,-7.6049,0.0,0.0,0.0,0.0,0.0,0.0,0.0,0.0,0.0,-6.0822,-6.193,0.0,-6.7771,0.0,-7.246,-7.4778,-7.5152,-7.7806,0.0,0.0,-8.1582,-8.2741,-8.3153,-8.4574,-8.5546,-8.5583,-8.7224,-8.8458,-8.8554,-9.0263,-9.1349,-9.118,-9.133,-9.1482,-9.159,-9.3155,-9.4414,-9.4496,-9.4876,-9.5028,-9.5142,-9.5028,-9.518,-9.5028,-9.5104,-9.5028,-9.5066,-9.5028,-9.5028,-9.5028,-9.5028,-9.4952,-9.5142,-9.4749,-9.4453,-9.3478,-9.3129,-9.3134,-9.355,-9.383,-9.4181,-8.3751,-8.3228,-7.7208,-7.4703,-7.4628,-7.4628,-7.4666,-7.4628,-7.4666,-7.4516,-7.4404,-7.6161,-7.9504,-8.3525,-8.0485,0.0,-8.147,-8.147,-8.233,-8.3975,-8.3975,-8.405,-8.4237,-8.42,-8.4162,-8.4274,-8.562,-8.6331,-8.6368,-8.7826,-8.8612,-8.8537,-8.5658,-8.4873,-8.6256,-8.6331,-8.7079,-8.8612,-8.8612,-8.8612,-8.8612,-8.8612,-8.8612,-8.8612,-8.8612,-8.7939,-8.6376,-8.6189,-8.4732,-8.178,-8.0019,-7.7619,-7.4441,0.0,0.0,0.0,0.0,0.0,0.0,0.0,0.0,0.0,0.0,0.0,0.0,0.0,0.0,0.0,-6.6814,0.0,-7.16,-7.3394,0.0,0.0,0.0,-7.9713,-8.1283,-8.2966,-8.3938,-8.3975,0.0,0.0,-8.6716,-8.8328,-8.8953,-8.7513,-8.86,-8.9543,-8.9768,-9.1271,-9.247,-9.266,-9.4003,-9.4952,-9.4686,-9.4724,-9.4724,-9.4724,-9.5028,-9.4838,-9.4838,-9.4838,-9.499,-9.48,-9.4838,-9.461,-9.4639,-9.4086,-9.3265,-9.0045,-8.9506,-8.9951,-9.1458,-9.1895,-9.2501,-7.7208,-7.6049,-7.3469,-7.1824,-7.0899,-7.0586,-7.0488,-7.042,-7.0195,-6.8949,-6.7252,-7.0177,-7.3822,-7.7677,-7.5347,0.0,0.0,0.0,-7.7364,-7.9339,-7.8967,-8.0082,-8.2181,-8.2293,-8.2779,-8.3788,-8.4424,-8.4723,-8.4686,-8.5359,-8.5034,-8.3706,0.0,0.0,-8.4686,-8.562,-8.6443,-8.7149,-8.8122,-8.8612,-8.8612,-8.8612,-8.8612,-8.8574,-8.7639,-8.6817,-8.6077,-8.3233,-8.1065,-7.972,-7.6244,-7.2768,0.0,0.0,0.0,0.0,0.0,0.0,0.0,0.0,0.0,0.0,0.0,-5.2723,-5.2698,0.0,0.0,0.0,-6.1739,-6.4948,-6.6713,-6.8384,0.0,0.0,0.0,0.0,0.0,0.0,0.0,-7.7918,-8.1022,-8.3746,-8.4825,-8.4654,-8.4587,-8.4969,-8.6513,-8.7598,-8.771,0.0,-9.0412,-9.0505,-9.1237,-9.1734,-9.1755,-9.178,-9.1812,-9.2001,-9.1999,-9.2029,-9.2029,-9.2029,-9.1953,-9.1839,-9.1702,-9.155,-9.1426,-8.9457,-8.7629,-8.7364,-8.7266,-8.7897,-8.9655,-9.0064,-9.0353,-7.0189,0.0,0.0,0.0,0.0,-6.6787,-6.662,-6.6587,-6.6308,-6.414,-6.106,-6.4902,0.0,0.0,0.0,0.0,0.0,0.0,-7.2328,-7.4704,-7.4411,-7.5966,-7.9152,-7.9152,-7.9788,-8.0947,-8.1433,-8.1626,-8.1383,-8.0521,-7.9303,-7.7869,0.0,0.0,0.0,0.0,-8.4494,-8.5429,-8.7074,-8.7901,-8.7935,-8.8387,-8.8387,-8.7939,-8.6297,-8.4952,-8.4018,-8.061,-7.7881,-7.6012,-7.2104,0.0,0.0,0.0,0.0,0.0,0.0,0.0,0.0,0.0,0.0,0.0,0.0,0.0,0.0,0.0,0.0,0.0,0.0,0.0,-6.1507,-6.3325,-6.4508,0.0,0.0,0.0,0.0,0.0,0.0,0.0,0.0,0.0,-8.0067,-7.9849,-8.0329,0.0,0.0,-8.5728,-8.576,-8.7313,-8.8479,-8.8517,-8.9094,0.0,-8.9486,-8.9512,-8.9557,-8.9764,-8.9752,-8.9649,-8.9156,-8.9118,-8.889,-8.8207,-8.8071,-8.7931,-8.7561,-8.5471,-8.4349,-8.5134,-8.5434,-8.592,-8.7153,-8.749,-8.7523,0.0,0.0,0.0,0.0,0.0,0.0,0.0,0.0,-6.2671,-6.0364,0.0,-6.0875,0.0,0.0,0.0,0.0,-6.5388,-6.5732,0.0,0.0,-7.0822,-7.202,-7.4001,-7.4067,-7.4142,-7.4292,-7.5862,-7.6314,-7.5646,-7.2675,0.0,0.0,0.0,0.0,0.0,0.0,-8.0604,-8.374,-8.5391,-8.6144,-8.6214,-8.7785,-8.7826,-8.6226,-8.4698,-8.2383,-7.9227,-7.8741,-7.575,-6.9655,-6.7621,0.0,0.0,0.0,0.0,0.0,0.0,0.0,0.0,0.0,0.0,0.0,0.0,0.0,0.0,0.0,0.0,0.0,0.0,0.0,0.0,-5.8088,0.0,0.0,0.0,0.0,0.0,0.0,0.0,0.0,0.0,-7.2787,-7.1487,-7.386,-7.6561,-7.8598,0.0,0.0,0.0,0.0,-8.6691,-8.691,-8.823,-8.9194,-8.9148,-8.9182,-8.9184,-8.9189,0.0,0.0,-8.727,-8.6989,-8.6475,-8.4842,-8.4517,-8.4125,-8.3938,-8.3494,-8.3494,-8.3644,-8.3494,-8.3788,-8.3901,-8.3831,-8.3863,0.0,0.0,0.0,0.0,0.0,0.0,0.0,0.0,0.0,-5.4661,0.0,-5.5077,0.0,0.0,0.0,0.0,0.0,0.0,0.0,0.0,-6.4618,-6.6051,-6.8134,-6.8171,-6.8727,0.0,-7.0393,-6.8954,0.0,0.0,0.0,0.0,0.0,0.0,0.0,0.0,-7.9295,-8.0529,-8.3153,-8.4574,-8.4611,-8.5134,-8.5209,-8.4616,-8.4055,-8.2186,-7.8778,-7.4628,-7.1338,0.0,0.0,0.0,0.0,0.0,0.0,0.0,0.0,0.0,0.0,0.0,0.0,0.0,0.0,0.0,0.0,0.0,0.0,0.0,0.0,0.0,0.0,0.0,-5.5706,0.0,0.0,0.0,0.0,0.0,0.0,0.0,0.0,0.0,-6.5749,-6.8649,-7.1483,-7.3286,-7.7572,-8.0498,-8.0529,0.0,0.0,0.0,0.0,0.0,0.0,0.0,-8.5883,-8.6022,-8.59,-8.5655,-8.529,-8.523,-8.4993,-8.4253,0.0,0.0,-7.7208,-7.7095,-7.7725,-7.7908,-7.7095,-7.706,-7.9505,-7.9164,-7.9191,0.0,0.0,0.0,0.0,0.0,0.0,0.0,0.0,0.0,-5.1113,-5.0284,0.0,0.0,0.0,0.0,0.0,0.0,0.0,0.0,0.0,0.0,0.0,-6.2705,-6.3256,0.0,0.0,0.0,0.0,0.0,0.0,0.0,0.0,0.0,0.0,0.0,0.0,-7.6273,-7.7956,-8.0648,-8.233,-8.2928,-8.3489,-8.3527,-8.2928,-8.2405,-8.0797,-7.7993,0.0,0.0,0.0,0.0,0.0,0.0,0.0,0.0,0.0,0.0,0.0,0.0,0.0,0.0,0.0,0.0,0.0,0.0,0.0,0.0,0.0,0.0,0.0,0.0,0.0,-5.1693,0.0,0.0,0.0,0.0,0.0,0.0,0.0,0.0,0.0,0.0,0.0,-6.6124,-6.9215,-7.298,-7.5644,-7.649,-7.9392,-8.1587,0.0,0.0,0.0,0.0,0.0,0.0,0.0,0.0,0.0,0.0,0.0,0.0,0.0,0.0,-7.6719,-7.1647,-7.2197,-7.3194,-7.252,0.0,0.0,0.0,0.0,0.0,0.0,0.0,0.0,0.0,0.0,0.0,0.0,0.0,0.0,0.0,-4.7252,0.0,0.0,-5.1659,0.0,0.0,0.0,0.0,0.0,0.0,0.0,0.0,0.0,0.0,0.0,0.0,0.0,0.0,0.0,0.0,0.0,0.0,0.0,0.0,0.0,0.0,-7.1487,-7.6124,-7.7769,-7.9451,-8.1096,-8.2704,-8.2667,-8.1134,-7.9526,-7.7881,-7.6176,0.0,0.0,0.0,0.0,0.0,0.0,0.0,0.0,0.0,0.0,0.0,0.0,0.0,0.0,0.0,0.0,0.0,0.0,0.0,0.0,0.0,0.0,0.0,0.0,0.0,0.0,-4.8159,-4.9184,-5.0298,0.0,0.0,0.0,0.0,0.0,0.0,0.0,0.0,0.0,-6.6298,-6.8111,-6.9669,-7.1924,-7.5014,-7.7071,-7.7071,-7.9643,-8.1543,-8.1516,-8.2035,-8.2424,0.0,0.0,0.0,0.0,0.0,0.0,0.0,0.0,0.0,0.0,0.0,0.0,0.0,0.0,0.0,0.0,0.0,0.0,0.0,0.0,0.0,0.0,0.0,0.0,0.0,0.0,0.0,0.0,0.0,0.0,0.0,0.0,0.0,0.0,0.0,0.0,0.0,0.0,0.0,0.0,0.0,0.0,0.0,0.0,0.0,0.0,0.0,0.0,0.0,0.0,0.0,0.0,0.0,0.0,-6.9768,-7.1188,-7.3918,-7.6161,-7.7806,-7.7171,-7.7133,-7.7769,-7.6198,-7.403,0.0,0.0,0.0,0.0,0.0,0.0,0.0,0.0,0.0,0.0,0.0,0.0,0.0,0.0,0.0,0.0,0.0,0.0,0.0,0.0,0.0,0.0,0.0,0.0,0.0,0.0,0.0,0.0,-4.6514,-4.7159,-4.8308,0.0,0.0,0.0,0.0,0.0,0.0,0.0,0.0,0.0,0.0,-6.7264,-6.802,-7.0784,-7.3072,-7.3686,-7.4003,-7.4459,-7.5038,-7.5324,-7.5407,-7.5161,0.0,0.0,0.0,0.0,0.0,0.0,0.0,0.0,0.0,0.0,0.0,0.0,0.0,0.0,0.0,0.0,0.0,0.0,0.0,0.0,0.0,0.0,0.0,0.0,0.0,0.0,0.0,0.0,0.0,0.0,0.0,0.0,0.0,0.0,0.0,0.0,0.0,0.0,0.0,0.0,0.0,0.0,0.0,0.0,0.0,0.0,0.0,0.0,0.0,0.0,0.0,0.0,0.0,-6.754,-6.903,-7.1562,-7.3693,-7.5301,-7.4404,-7.4366,-7.5376,-7.3806,-7.1674,0.0,0.0,0.0,0.0,0.0,0.0,0.0,0.0,0.0,0.0,0.0,0.0,0.0,0.0,0.0,0.0,0.0,0.0,0.0,0.0,0.0,0.0,0.0,0.0,0.0,0.0,0.0,0.0,-4.4004,-4.4553,-4.5391,0.0,0.0,0.0,0.0,0.0,0.0,0.0,0.0,0.0,0.0,-6.2283,-6.3729,-6.6518,0.0,0.0,-7.0048,-7.0603,-7.1535,-7.1813,-7.1648,-7.0756,-7.0536,0.0,0.0,0.0,0.0,0.0,0.0,0.0,0.0,0.0,0.0,0.0,0.0,0.0,0.0,0.0,0.0,0.0,0.0,0.0,0.0,0.0,0.0,0.0,0.0,0.0,0.0,0.0,0.0,0.0,0.0,0.0,0.0,0.0,0.0,0.0,0.0,0.0,0.0,0.0,0.0,0.0,0.0,0.0,0.0,0.0,0.0,0.0,0.0,0.0,0.0,0.0,0.0,0.0,-6.8518,-7.0189,-7.1861,-7.3619,-7.3581,-7.3581,-7.3656,-7.1974,-7.0254,0.0,0.0,0.0,0.0,0.0,0.0,0.0,0.0,0.0,0.0,0.0,0.0,0.0,0.0,0.0,0.0,0.0,0.0,0.0,0.0,0.0,0.0,0.0,0.0,0.0,0.0,0.0,0.0,0.0,0.0,0.0,0.0,0.0,0.0,0.0,0.0,0.0,0.0,0.0,0.0,0.0,-5.5662,-5.9364,-6.2273,-6.4361,0.0,-6.7151,-6.8818,-6.9793,-7.0284,-6.9912,-6.7784,0.0,0.0,0.0,0.0,0.0,0.0,0.0,0.0,0.0,0.0,0.0,0.0,0.0,0.0,0.0,0.0,0.0,0.0,0.0,0.0,0.0,0.0,0.0,0.0,0.0,0.0,0.0,0.0,0.0,0.0,0.0,0.0,0.0,0.0,0.0,0.0,0.0,0.0,0.0,0.0,0.0,0.0,0.0,0.0,0.0,0.0,0.0,0.0,0.0,0.0,0.0,0.0,0.0,0.0,-6.4742,-6.6709,-6.9095,-7.1824,-7.0852,-7.0777,-7.1861,-6.9169,0.0,0.0,0.0,0.0,0.0,0.0,0.0,0.0,0.0,0.0,0.0,0.0,0.0,0.0,0.0,0.0,0.0,0.0,0.0,0.0,0.0,0.0,0.0,0.0,0.0,0.0,0.0,-3.8686,0.0,0.0,0.0,0.0,0.0,0.0,0.0,0.0,0.0,0.0,0.0,0.0,0.0,0.0,-5.382,-5.7025,-5.8478,-5.994,0.0,0.0,-6.1866,-6.3348,-6.3191,-6.2719,0.0,0.0,0.0,0.0,0.0,0.0,0.0,0.0,0.0,0.0,0.0,0.0,0.0,0.0,0.0,0.0,0.0,0.0,0.0,0.0,0.0,0.0,0.0,0.0,0.0,0.0,0.0,0.0,0.0,0.0,0.0,0.0,0.0,0.0,0.0,0.0,0.0,0.0,0.0,0.0,0.0,0.0,0.0,0.0,0.0,0.0,0.0,0.0,0.0,0.0,0.0,0.0,0.0,0.0,-5.9267,-6.1978,-6.4713,-6.7074,-6.8826,-6.8229,-6.8309,-6.9207,-6.6702,-6.4284,0.0,0.0,0.0,0.0,0.0,0.0,0.0,0.0,0.0,0.0,0.0,0.0,0.0,0.0,0.0,0.0,0.0,0.0,0.0,0.0,0.0,0.0,0.0,0.0,0.0,0.0,0.0,0.0,0.0,0.0,0.0,0.0,0.0,0.0,0.0,0.0,0.0,0.0,0.0,0.0,0.0,0.0,-5.3143,-5.474,0.0,0.0,0.0,-5.8905,-6.0939,0.0,0.0,0.0,0.0,0.0,0.0,0.0,0.0,0.0,0.0,0.0,0.0,0.0,0.0,0.0,0.0,0.0,0.0,0.0,0.0,0.0,0.0,0.0,0.0,0.0,0.0,0.0,0.0,0.0,0.0,0.0,0.0,0.0,0.0,0.0,0.0,0.0,0.0,0.0,0.0,0.0,0.0,0.0,0.0,0.0,0.0,0.0,0.0,0.0,0.0,0.0,0.0,0.0,0.0,0.0,0.0,0.0,-6.018,-6.3419,-6.5156,-6.544,-6.588,-6.6153,-6.6141,-6.4571,-6.2252,0.0,0.0,0.0,0.0,0.0,0.0,0.0,0.0,0.0,0.0,0.0,0.0,0.0,0.0,0.0,0.0,0.0,0.0,0.0,0.0,0.0,0.0,0.0,0.0,0.0,0.0,0.0,0.0,0.0,0.0,0.0,0.0,0.0,0.0,0.0,0.0,0.0,0.0,0.0,0.0,0.0,-4.6766,-4.8854,-5.1065,-5.2763,0.0,0.0,-5.7338,-5.9759,-5.7613,0.0,0.0,0.0,0.0,0.0,0.0,0.0,0.0,0.0,0.0,0.0,0.0,0.0,0.0,0.0,0.0,0.0,0.0,0.0,0.0,0.0,0.0,0.0,0.0,0.0,0.0,0.0,0.0,0.0,0.0,0.0,0.0,0.0,0.0,0.0,0.0,0.0,0.0,0.0,0.0,0.0,0.0,0.0,0.0,0.0,0.0,0.0,0.0,0.0,0.0,0.0,0.0,0.0,0.0,0.0,0.0,-5.9476,-6.0766,-6.2135,-6.3777,-6.3948,-6.4158,-6.4421,-6.2925,-6.1168,0.0,0.0,0.0,0.0,0.0,0.0,0.0,0.0,0.0,0.0,0.0,0.0,0.0,0.0,0.0,0.0,0.0,0.0,0.0,0.0,0.0,0.0,0.0,0.0,0.0,0.0,0.0,0.0,0.0,0.0,0.0,0.0,0.0,0.0,0.0,0.0,0.0,0.0,0.0,0.0,0.0,-4.3784,-4.7286,-4.8616,0.0,0.0,0.0,0.0,-5.3431,-5.1293,0.0,0.0,0.0,0.0,0.0,0.0,0.0,0.0,0.0,0.0,0.0,0.0,0.0,0.0,0.0,0.0,0.0,0.0,0.0,0.0,0.0,0.0,0.0,0.0,0.0,0.0,0.0,0.0,0.0,0.0,0.0,0.0,0.0,0.0,0.0,0.0,0.0,0.0,0.0,0.0,0.0,0.0,0.0,0.0,0.0,0.0,0.0,0.0,0.0,0.0,0.0,0.0,0.0,0.0,0.0,0.0,-5.6742,-5.8856,-6.0438,-6.1459,-6.1737,-6.2061,-6.2408,-6.0125,-5.8138,0.0,0.0,0.0,0.0,0.0,0.0,0.0,0.0,0.0,0.0,0.0,0.0,0.0,0.0,0.0,0.0,0.0,0.0,0.0,0.0,0.0,0.0,0.0,0.0,0.0,0.0,0.0,0.0,0.0,0.0,0.0,0.0,0.0,0.0,0.0,0.0,0.0,0.0,0.0,0.0,-4.1158,-4.1977,-4.4228,0.0,0.0,0.0,0.0,0.0,0.0,-4.6236,-4.5574,0.0,0.0,0.0,0.0,0.0,0.0,0.0,0.0,0.0,0.0,0.0,0.0,0.0,0.0,0.0,0.0,0.0,0.0,0.0,0.0,0.0,0.0,0.0,0.0,0.0,0.0,0.0,0.0,0.0,0.0,0.0,0.0,0.0,0.0,0.0,0.0,0.0,0.0,0.0,0.0,0.0,0.0,0.0,0.0,0.0,0.0,0.0,0.0,0.0,0.0,0.0,0.0,0.0,0.0,0.0,-5.3848,-5.7083,-5.8897,-5.91,-5.9523,-5.9803,-5.9847,-5.733,-5.4989,-5.3115,0.0,0.0,0.0,0.0,0.0,0.0,0.0,0.0,0.0,0.0,0.0,0.0,0.0,0.0,0.0,0.0,0.0,0.0,0.0,0.0,0.0,0.0,0.0,0.0,0.0,0.0,0.0,0.0,0.0,0.0,0.0,0.0,0.0,0.0,0.0,0.0,0.0,0.0,0.0,-3.8834,-4.0018,0.0,0.0,0.0,0.0,0.0,0.0,0.0,0.0,-4.258,0.0,0.0,0.0,0.0,0.0,0.0,0.0,0.0,0.0,0.0,0.0,0.0,0.0,0.0,0.0,0.0,0.0,0.0,0.0,0.0,0.0,0.0,0.0,0.0,0.0,0.0,0.0,0.0,0.0,0.0,0.0,0.0,0.0,0.0,0.0,0.0,0.0,0.0,0.0,0.0,0.0,0.0,0.0,0.0,0.0,0.0,0.0,0.0,0.0,0.0,0.0,0.0,0.0,0.0,0.0,0.0,-5.4939,-5.6375,-5.7423,-5.7578,-5.7152,-5.6237,-5.5754,-5.3922,-5.0657,0.0,0.0,0.0,0.0,0.0,0.0,0.0,0.0,0.0,0.0,0.0,0.0,0.0,0.0,0.0,0.0,0.0,0.0,0.0,0.0,0.0,0.0,0.0,0.0,0.0,0.0,0.0,0.0,0.0,0.0,0.0,0.0,0.0,0.0,0.0,0.0,0.0,0.0,-3.4392,-3.5186,0.0,0.0,0.0,0.0,0.0,0.0,0.0,0.0,-3.9428,0.0,0.0,0.0,0.0,0.0,0.0,0.0,0.0,0.0,0.0,0.0,0.0,0.0,0.0,0.0,0.0,0.0,0.0,0.0,0.0,0.0,0.0,0.0,0.0,0.0,0.0,0.0,0.0,0.0,0.0,0.0,0.0,0.0,0.0,0.0,0.0,0.0,0.0,0.0,0.0,0.0,0.0,0.0,0.0,0.0,0.0,0.0,0.0,0.0,0.0,0.0,0.0,0.0,0.0,0.0,0.0,0.0,0.0,-5.474,-5.6029,-5.5736,-5.5317,-5.4928,-5.2827,-5.0311,0.0,0.0,0.0,0.0,0.0,0.0,0.0,0.0,0.0,0.0,0.0,0.0,0.0,0.0,0.0,0.0,0.0,0.0,0.0,0.0,0.0,0.0,0.0,0.0,0.0,0.0,0.0,0.0,0.0,0.0,0.0,0.0,0.0,0.0,0.0,0.0,0.0,0.0,0.0,0.0,0.0,0.0,0.0,0.0,0.0,0.0,0.0,0.0,0.0,0.0,0.0,0.0,0.0,0.0,0.0,0.0,0.0,0.0,0.0,0.0,0.0,0.0,0.0,0.0,0.0,0.0,0.0,0.0,0.0,0.0,0.0,0.0,0.0,0.0,0.0,0.0,0.0,0.0,0.0,0.0,0.0,0.0,0.0,0.0,0.0,0.0,0.0,0.0,0.0,0.0,0.0,0.0,0.0,0.0,0.0,0.0,0.0,0.0,0.0,0.0,0.0,0.0,0.0,0.0,0.0,0.0,0.0,0.0,-5.3071,-5.4044,-5.3434,-5.3108,-5.3096,-4.9595,-4.6854,0.0,0.0,0.0,0.0,0.0,0.0,0.0,0.0,0.0,0.0,0.0,0.0,0.0,0.0,0.0,0.0,0.0,0.0,0.0,0.0,0.0,0.0,0.0,0.0,0.0,0.0,0.0,0.0,0.0,0.0,0.0,0.0,0.0,0.0,0.0,0.0,0.0,0.0,0.0,0.0,0.0,0.0,0.0,0.0,0.0,0.0,0.0,0.0,-3.7048,0.0,0.0,0.0,0.0,0.0,0.0,0.0,0.0,0.0,0.0,0.0,0.0,0.0,0.0,0.0,0.0,0.0,0.0,0.0,0.0,0.0,0.0,0.0,0.0,0.0,0.0,0.0,0.0,0.0,0.0,0.0,0.0,0.0,0.0,0.0,0.0,0.0,0.0,0.0,0.0,0.0,0.0,0.0,0.0,0.0,0.0,0.0,0.0,0.0,0.0,0.0,0.0,0.0,0.0,0.0,0.0,0.0,0.0,0.0,-5.0946,-5.0351,-5.0276,-4.9597,-4.821,-4.6443,-4.5339,0.0,0.0,0.0,0.0,0.0,0.0,0.0,0.0,0.0,0.0,0.0,0.0,0.0,0.0,0.0,0.0,0.0,0.0,0.0,0.0,0.0,0.0,0.0,0.0,0.0,0.0,0.0,0.0,0.0,0.0,0.0,0.0,0.0,0.0,0.0,0.0,0.0,0.0,0.0,0.0,0.0,0.0,0.0,0.0,0.0,0.0,0.0,0.0,0.0,0.0,0.0,0.0,0.0,0.0,0.0,0.0,0.0,0.0,0.0,0.0,0.0,0.0,0.0,0.0,0.0,0.0,0.0,0.0,0.0,0.0,0.0,0.0,0.0,0.0,0.0,0.0,0.0,0.0,0.0,0.0,0.0,0.0,0.0,0.0,0.0,0.0,0.0,0.0,0.0,0.0,0.0,0.0,0.0,0.0,0.0,0.0,0.0,0.0,0.0,0.0,0.0,0.0,0.0,0.0,0.0,0.0,0.0,0.0,-4.8181,-4.9187,-4.8692,-4.7074,-4.4342,-4.4027,-4.3712,0.0,0.0,0.0,0.0,0.0,0.0,0.0,0.0,0.0,0.0,0.0,0.0,0.0,0.0,0.0,0.0,0.0,0.0,0.0,0.0,0.0,0.0,0.0,0.0,0.0,0.0,0.0,0.0,0.0,0.0,0.0,0.0,0.0,0.0,0.0,0.0,0.0,0.0,0.0,0.0,0.0,0.0,0.0,0.0,0.0,0.0,0.0,0.0,0.0,0.0,0.0,0.0,0.0,0.0,0.0,0.0,0.0,0.0,0.0,0.0,0.0,0.0,0.0,0.0,0.0,0.0,0.0,0.0,0.0,0.0,0.0,0.0,0.0,0.0,0.0,0.0,0.0,0.0,0.0,0.0,0.0,0.0,0.0,0.0,0.0,0.0,0.0,0.0,0.0,0.0,0.0,0.0,0.0,0.0,0.0,0.0,0.0,0.0,0.0,0.0,0.0,0.0,0.0,0.0,0.0,0.0,0.0,0.0,0.0,-4.6597,-4.6059,-4.4387,-4.1807,-4.2178,-4.2171,0.0,0.0,0.0,0.0,0.0,0.0,0.0,0.0,0.0,0.0,0.0,0.0,0.0,0.0,0.0,0.0,0.0,0.0,0.0,0.0,0.0,0.0,0.0,0.0,0.0,0.0,0.0,0.0,0.0,0.0,0.0,0.0,0.0,0.0,0.0,0.0,0.0,0.0,0.0,0.0,0.0,0.0,0.0,0.0,0.0,0.0,0.0,0.0,0.0,0.0,0.0,0.0,0.0,0.0,0.0,0.0,0.0,0.0,0.0,0.0,0.0,0.0,0.0,0.0,0.0,0.0,0.0,0.0,0.0,0.0,0.0,0.0,0.0,0.0,0.0,0.0,0.0,0.0,0.0,0.0,0.0,0.0,0.0,0.0,0.0,0.0,0.0,0.0,0.0,0.0,0.0,0.0,0.0,0.0,0.0,0.0,0.0,0.0,0.0,0.0,0.0,0.0,0.0,0.0,0.0,0.0,0.0,0.0,0.0,-4.1269,-4.1207,-4.1113,-4.0865,-4.0927,-4.0887,0.0,0.0,0.0,0.0,0.0,0.0,0.0,0.0,0.0,0.0,0.0,0.0,0.0,0.0,0.0,0.0,0.0,0.0,0.0,0.0,0.0,0.0,0.0,0.0,0.0,0.0,0.0,0.0,0.0,0.0,0.0,0.0,0.0,0.0,0.0,0.0,0.0,0.0,0.0,0.0,0.0,0.0,0.0,0.0,0.0,0.0,0.0,0.0,0.0,0.0,0.0,0.0,0.0,0.0,0.0,0.0,0.0,0.0,0.0,0.0,0.0,0.0,0.0,0.0,0.0,0.0,0.0,0.0,0.0,0.0,0.0,0.0,0.0,0.0,0.0,0.0,0.0,0.0,0.0,0.0,0.0,0.0,0.0,0.0,0.0,0.0,0.0,0.0,0.0,0.0,0.0,0.0,0.0,0.0,0.0,0.0,0.0,0.0,0.0,0.0,0.0,0.0,0.0,0.0,0.0,0.0,0.0,0.0,0.0,-3.7378,-3.7814,-3.8465,-3.9065,-3.9095,-3.9101,-3.9091,0.0,0.0,0.0,0.0,0.0,0.0,0.0,0.0,0.0,0.0,0.0,0.0,0.0,0.0,0.0,0.0,0.0,0.0,0.0,0.0,0.0,0.0,0.0,0.0,0.0,0.0,0.0,0.0,0.0,0.0,0.0,0.0,0.0,0.0,0.0,0.0,0.0,0.0,0.0,0.0,0.0,0.0,0.0,0.0,0.0,0.0,0.0,0.0,0.0,0.0,0.0,0.0,0.0,0.0,0.0,0.0,0.0,0.0,0.0,0.0,0.0,0.0,0.0,0.0,0.0,0.0,0.0,0.0,0.0,0.0,0.0,0.0,0.0,0.0,0.0,0.0,0.0,0.0,0.0,0.0,0.0,0.0,0.0,0.0,0.0,0.0,0.0,0.0,0.0,0.0,0.0,0.0,0.0,0.0,0.0,0.0,0.0,0.0,0.0,0.0,0.0,0.0,0.0,0.0,0.0,0.0,0.0,0.0,-3.4705,-3.5646,-3.6438,-3.7192,-3.7192,-3.7221,0.0,0.0,0.0,0.0,0.0,0.0,0.0,0.0,0.0,0.0,0.0,0.0,0.0,0.0,0.0,0.0,0.0,0.0,0.0,0.0,0.0,0.0,0.0,0.0,0.0,0.0,0.0,0.0,0.0,0.0,0.0,0.0,0.0,0.0,0.0,0.0,0.0,0.0,0.0,0.0,0.0,0.0,0.0,0.0,0.0,0.0,0.0,0.0,0.0,0.0,0.0,0.0,0.0,0.0,0.0,0.0,0.0,0.0,0.0,0.0,0.0,0.0,0.0,0.0,0.0,0.0,0.0,0.0,0.0,0.0,0.0,0.0,0.0,0.0,0.0,0.0,0.0,0.0,0.0,0.0,0.0,0.0,0.0,0.0,0.0,0.0,0.0,0.0,0.0,0.0,0.0,0.0,0.0,0.0,0.0,0.0,0.0,0.0,0.0,0.0,0.0,0.0,0.0,0.0,0.0,0.0,0.0,0.0,-3.2646,-3.3652,-3.4653,-3.5168,-3.5245,-3.5245,-3.5271,0.0,0.0,0.0,0.0,0.0,0.0,0.0,0.0,0.0,0.0,0.0,0.0,0.0,0.0,0.0,0.0,0.0,0.0,0.0,0.0,0.0,0.0,0.0,0.0,0.0,0.0,0.0,0.0,0.0,0.0,0.0,0.0,0.0,0.0,0.0,0.0,0.0,0.0,0.0,0.0,0.0,0.0,0.0,0.0,0.0,0.0,0.0,0.0,0.0,0.0,0.0,0.0,0.0,0.0,0.0,0.0,0.0,0.0,0.0,0.0,0.0,0.0,0.0,0.0,0.0,0.0,0.0,0.0,0.0,0.0,0.0,0.0,0.0,0.0,0.0,0.0,0.0,0.0,0.0,0.0,0.0,0.0,0.0,0.0,0.0,0.0,0.0,0.0,0.0,0.0,0.0,0.0,0.0,0.0,0.0,0.0,0.0,0.0,0.0,0.0,0.0,0.0,0.0,0.0,0.0,0.0,0.0,0.0,0.0,-3.2564,0.0,-3.3411,0.0,-3.4104,-3.4126,0.0,0.0,0.0,0.0,0.0,0.0,0.0,0.0,0.0,0.0,0.0,0.0,0.0,0.0,0.0,0.0,0.0,0.0,0.0,0.0,0.0,0.0,0.0,0.0,0.0,0.0,0.0,0.0,0.0,0.0,0.0,0.0,0.0,0.0,0.0,0.0,0.0,0.0,0.0,0.0,0.0,0.0,0.0,0.0,0.0,0.0,0.0,0.0,0.0,0.0,0.0,0.0,0.0,0.0,0.0,0.0,0.0,0.0,0.0,0.0,0.0,0.0,0.0,0.0,0.0,0.0,0.0,0.0,0.0,0.0,0.0,0.0,0.0,0.0,0.0,0.0,0.0,0.0,0.0,0.0,0.0,0.0,0.0,0.0,0.0,0.0,0.0,0.0,0.0,0.0,0.0,0.0,0.0,0.0,0.0,0.0,0.0,0.0,0.0,0.0,0.0,0.0,0.0,0.0,0.0,0.0,0.0,0.0,0.0,-3.214,-3.214,-3.2424,-3.3031,-3.3031,-3.31,0.0,0.0,0.0,0.0,0.0,0.0,0.0,0.0,0.0,0.0,0.0,0.0,0.0,0.0,0.0,0.0,0.0,0.0,0.0,0.0,0.0,0.0,0.0,0.0,0.0,0.0,0.0,0.0,0.0,0.0,0.0,0.0,0.0,0.0,0.0,0.0,0.0,0.0,0.0,0.0,0.0,0.0,0.0,0.0,0.0,0.0,0.0,0.0,0.0,0.0,0.0,0.0,0.0,0.0,0.0,0.0,0.0,0.0,0.0,0.0,0.0,0.0,0.0,0.0,0.0,0.0,0.0,0.0,0.0,0.0,0.0,0.0,0.0,0.0,0.0,0.0,0.0,0.0,0.0,0.0,0.0,0.0,0.0,0.0,0.0,0.0,0.0,0.0,0.0,0.0,0.0,0.0,0.0,0.0,0.0,0.0,0.0,0.0,0.0,0.0,0.0,0.0,0.0,0.0,0.0,0.0,0.0,0.0,0.0,0.0,-3.214,-3.2115,-3.2115,-3.2032,-3.2008,0.0,0.0,0.0,0.0,0.0,0.0,0.0,0.0,0.0,0.0,0.0,0.0,0.0,0.0,0.0,0.0,0.0,0.0,0.0,0.0,0.0,0.0,0.0,0.0,0.0,0.0,0.0,0.0,0.0,0.0,0.0,0.0,0.0,0.0,0.0,0.0,0.0,0.0,0.0,0.0,0.0,0.0,0.0,0.0,0.0,0.0,0.0,0.0,0.0,0.0,0.0,0.0,0.0,0.0,0.0,0.0,0.0,0.0,0.0,0.0,0.0,0.0,0.0,0.0,0.0,0.0,0.0,0.0,0.0,0.0,0.0,0.0,0.0,0.0,0.0,0.0,0.0,0.0,0.0,0.0,0.0,0.0,0.0,0.0,0.0,0.0,0.0,0.0,0.0,0.0,0.0,0.0,0.0,0.0,0.0,0.0,0.0,0.0,0.0,0.0,0.0,0.0,0.0,0.0,0.0,0.0,0.0,0.0,0.0,0.0,-3.214,0.0,-3.2032,-3.1259,-3.0776,-3.0798,0.0,0.0,0.0,0.0,0.0,0.0,0.0,0.0,0.0,0.0,0.0,0.0,0.0,0.0,0.0,0.0,0.0,0.0,0.0,0.0,0.0,0.0,0.0,0.0,0.0,0.0,0.0,0.0,0.0,0.0,0.0,0.0,0.0,0.0,0.0,0.0,0.0,0.0,0.0,0.0,0.0,0.0,0.0,0.0,0.0,0.0,0.0,0.0,0.0,0.0,0.0,0.0,0.0,0.0,0.0,0.0,0.0,0.0,0.0,0.0,0.0,0.0,0.0,0.0,0.0,0.0,0.0,0.0,0.0,0.0,0.0,0.0,0.0,0.0,0.0,0.0,0.0,0.0,0.0,0.0,0.0,0.0,0.0,0.0,0.0,0.0,0.0,0.0,0.0,0.0,0.0,0.0,0.0,0.0,0.0,0.0,0.0,0.0,0.0,0.0,0.0,0.0,0.0,0.0,0.0,0.0,0.0,0.0,0.0,0.0,0.0,-3.1431,-3.069,-3.0114,0.0,0.0,0.0,0.0,0.0,0.0,0.0,0.0,0.0,0.0,0.0,0.0,0.0,0.0,0.0,0.0,0.0,0.0,0.0,0.0,0.0,0.0,0.0,0.0,0.0,0.0,0.0,0.0,0.0,0.0,0.0,0.0,0.0,0.0,0.0,0.0,0.0,0.0,0.0,0.0,0.0,0.0,0.0,0.0,0.0,0.0,0.0,0.0,0.0,0.0,0.0,0.0,0.0,0.0,0.0,0.0,0.0,0.0,0.0,0.0,0.0,0.0,0.0,0.0,0.0,0.0,0.0,0.0,0.0,0.0,0.0,0.0,0.0,0.0,0.0,0.0,0.0,0.0,0.0,0.0,0.0,0.0,0.0,0.0,0.0,0.0,0.0,0.0,0.0,0.0,0.0,0.0,0.0,0.0,0.0,0.0,0.0,0.0,0.0,0.0,0.0,0.0,0.0,0.0,0.0,0.0,0.0,0.0,0.0,0.0,0.0,-3.1479,-3.0357,-3.0263,0.0,-2.8425,0.0,0.0,0.0,0.0,0.0,0.0,0.0,0.0,0.0,0.0,0.0,0.0,0.0,0.0,0.0,0.0,0.0,0.0,0.0,0.0,0.0,0.0,0.0,0.0,0.0,0.0,0.0,0.0,0.0,0.0,0.0,0.0,0.0,0.0,0.0,0.0,0.0,0.0,0.0,0.0,0.0,0.0,0.0,0.0,0.0,0.0,0.0,0.0,0.0,0.0,0.0,0.0,0.0,0.0,0.0,0.0,0.0,0.0,0.0,0.0,0.0,0.0,0.0,0.0,0.0,0.0,0.0,0.0,0.0,0.0,0.0,0.0,0.0,0.0,0.0,0.0,0.0,0.0,0.0,0.0,0.0,0.0,0.0,0.0,0.0,0.0,0.0,0.0,0.0,0.0,0.0,0.0,0.0,0.0,0.0,0.0,0.0,0.0,0.0,0.0,0.0,0.0,0.0,0.0,0.0,0.0,0.0,0.0,0.0,0.0,0.0,0.0,-3.0348,-2.9302,-2.7269,0.0,0.0,0.0,0.0,0.0,0.0,0.0,0.0,0.0,0.0,0.0,0.0,0.0,0.0,0.0,0.0,0.0,0.0,0.0,0.0,0.0,0.0,0.0,0.0,0.0,0.0,0.0,0.0,0.0,0.0,0.0,0.0,0.0,0.0,0.0,0.0,0.0,0.0,0.0,0.0,0.0,0.0,0.0,0.0,0.0,0.0,0.0,0.0,0.0,0.0,0.0,0.0,0.0,0.0,0.0,0.0,0.0,0.0,0.0,0.0,0.0,0.0,0.0,0.0,0.0,0.0,0.0,0.0,0.0,0.0,0.0,0.0,0.0,0.0,0.0,0.0,0.0,0.0,0.0,0.0,0.0,0.0,0.0,0.0,0.0,0.0,0.0,0.0,0.0,0.0,0.0,0.0,0.0,0.0,0.0,0.0,0.0,0.0,0.0,0.0,0.0,0.0,0.0,0.0,0.0,0.0,0.0,0.0,0.0,0.0,-3.0748,-2.9575,-2.903,-2.7939,-2.6101,0.0,0.0,0.0,0.0,0.0,0.0,0.0,0.0,0.0,0.0,0.0,0.0,0.0,0.0,0.0,0.0,0.0,0.0,0.0,0.0,0.0,0.0,0.0,0.0,0.0,0.0,0.0,0.0,0.0,0.0,0.0,0.0,0.0,0.0,0.0,0.0,0.0,0.0,0.0,0.0,0.0,0.0,0.0,0.0,0.0,0.0,0.0,0.0,0.0,0.0,0.0,0.0,0.0,0.0,0.0,0.0,0.0,0.0,0.0,0.0,0.0,0.0,0.0,0.0,0.0,0.0,0.0,0.0,0.0,0.0,0.0,0.0,0.0,0.0,0.0,0.0,0.0,0.0,0.0,0.0,0.0,0.0,0.0,0.0,0.0,0.0,0.0,0.0,0.0,0.0,0.0,0.0,0.0,0.0,0.0,0.0,0.0,0.0,0.0,0.0,0.0,0.0,0.0,0.0,0.0,0.0,0.0,0.0,0.0,0.0,0.0,0.0,0.0,0.0,-2.5133,0.0,0.0,0.0,0.0,0.0,0.0,0.0,0.0,0.0,0.0,0.0,0.0,0.0,0.0,0.0,0.0,0.0,0.0,0.0,0.0,0.0,0.0,0.0,0.0,0.0,0.0,0.0,0.0,0.0,0.0,0.0,0.0,0.0,0.0,0.0,0.0,0.0,0.0,0.0,0.0,0.0,0.0,0.0,0.0,0.0,0.0,0.0,0.0,0.0,0.0,0.0,0.0,0.0,0.0,0.0,0.0,0.0,0.0,0.0,0.0,0.0,0.0,0.0,0.0,0.0,0.0,0.0,0.0,0.0,0.0,0.0,0.0,0.0,0.0,0.0,0.0,0.0,0.0,0.0,0.0,0.0,0.0,0.0,0.0,0.0,0.0,0.0,0.0,0.0,0.0,0.0,0.0,0.0,0.0,0.0,0.0,0.0,0.0,0.0,0.0,0.0,0.0,0.0,0.0,0.0,0.0,0.0,0.0,0.0,0.0,0.0,0.0,0.0,0.0,0.0,0.0,0.0,0.0,0.0,0.0,0.0,0.0,0.0,0.0,0.0,0.0,0.0,0.0,0.0,0.0,0.0,0.0,0.0,0.0,0.0,0.0,0.0,0.0,0.0,0.0,0.0,0.0,0.0,0.0,0.0,0.0,0.0,0.0,0.0,0.0,0.0,0.0,0.0,0.0,0.0,0.0,0.0,0.0,0.0,0.0,0.0,0.0,0.0,0.0,0.0,0.0,0.0,0.0,0.0,0.0,0.0,0.0,0.0,0.0,0.0,0.0,0.0,0.0,0.0,0.0,0.0,0.0,0.0,0.0,0.0,0.0,0.0,0.0,0.0,0.0,0.0,0.0,0.0,0.0,0.0,0.0,0.0,0.0,0.0,0.0,0.0,0.0,0.0,0.0,0.0,0.0,0.0,0.0,0.0,0.0,0.0,0.0,0.0,0.0,0.0,0.0,0.0,0.0,0.0,0.0,0.0,0.0,0.0,0.0,0.0,0.0,0.0,0.0,0.0,0.0,0.0,0.0,0.0,0.0,0.0,0.0,0.0,0.0,0.0,0.0,0.0,0.0,0.0,0.0,0.0,0.0,0.0,0.0,0.0,0.0,0.0,0.0,0.0,0.0,0.0,0.0,0.0,0.0,0.0,0.0,0.0,0.0,0.0,0.0,0.0,0.0,0.0,0.0,0.0,0.0,0.0,0.0,0.0,0.0,0.0,0.0,0.0,0.0,0.0,0.0,0.0,0.0,0.0,0.0,0.0,0.0,0.0,0.0,0.0,0.0,0.0,0.0,0.0,0.0,0.0,0.0,0.0,0.0,0.0,0.0,0.0,0.0,0.0,0.0,0.0,0.0,0.0,0.0,0.0,0.0,0.0,0.0,0.0,0.0,0.0,0.0,0.0,0.0,0.0,0.0,0.0,0.0,0.0,0.0,0.0,0.0,0.0,0.0,0.0,0.0,0.0,0.0,0.0,0.0,0.0,0.0,0.0,0.0,0.0,0.0,0.0,0.0,0.0,0.0,0.0,0.0,0.0,0.0,0.0,0.0,0.0,0.0,0.0,0.0,0.0,0.0,0.0,0.0,0.0,0.0,0.0,0.0,0.0,0.0,0.0,0.0,0.0,0.0,0.0,0.0,0.0,0.0,0.0,0.0,0.0,0.0,0.0,0.0,0.0,0.0,0.0,0.0,0.0,0.0,0.0,0.0,0.0,0.0,0.0,0.0,0.0,0.0,0.0,0.0,0.0,0.0,0.0,0.0,0.0,0.0,0.0,0.0,0.0,0.0,0.0,0.0,0.0,0.0,0.0,0.0,0.0,0.0,0.0,0.0,0.0,0.0,0.0,0.0,0.0,0.0,0.0,0.0,0.0,0.0,0.0,0.0,0.0,0.0,0.0,0.0,0.0,0.0,0.0,0.0,0.0,0.0,0.0,0.0,0.0,0.0,0.0,0.0,0.0,0.0,0.0,0.0,0.0,0.0,0.0,0.0,0.0,0.0,0.0,0.0,0.0,0.0,0.0,0.0,0.0,0.0,0.0,0.0,0.0,0.0,0.0,0.0,0.0,0.0,0.0,0.0,0.0,0.0,0.0,0.0,0.0,0.0,0.0,0.0,0.0,0.0,0.0,0.0,0.0,0.0,0.0,0.0,0.0,0.0,0.0,0.0,0.0,0.0,0.0,0.0,0.0,0.0,0.0,0.0,0.0,0.0,0.0,0.0,0.0,0.0,0.0,0.0,0.0,0.0,0.0,0.0,0.0,0.0,0.0,0.0,0.0,0.0,0.0,0.0,0.0,0.0,0.0,0.0,0.0,0.0,0.0,0.0,0.0,0.0,0.0,0.0,0.0,0.0,0.0,0.0,0.0,0.0,0.0,0.0,0.0,0.0,0.0,0.0,0.0,0.0,0.0,0.0,0.0,0.0,0.0,0.0,0.0,0.0,0.0,0.0,0.0,0.0,0.0,0.0,0.0,0.0,0.0,0.0,0.0,0.0,0.0,0.0,0.0,0.0,0.0,0.0,0.0,0.0,0.0,0.0,0.0,0.0,0.0,0.0,0.0,0.0,0.0,0.0,0.0,0.0,0.0,0.0,0.0,0.0,0.0,0.0,0.0,0.0,0.0,0.0,0.0,0.0,0.0,0.0,0.0,0.0,0.0,0.0,0.0,0.0,0.0,0.0,0.0,0.0,0.0,0.0,0.0,0.0,0.0,0.0,0.0,0.0,0.0,0.0,0.0,0.0,0.0,0.0,0.0,0.0,0.0,0.0,0.0,0.0,0.0,0.0,0.0,0.0,0.0,0.0,0.0,0.0,0.0,0.0,0.0,0.0,0.0,0.0,0.0,0.0,0.0,0.0,0.0,0.0,0.0,0.0,0.0,0.0,0.0,0.0,0.0,0.0,0.0,0.0,0.0,0.0,0.0,0.0,0.0,0.0,0.0,0.0,0.0,0.0,0.0,0.0,0.0,0.0,0.0,0.0,0.0,0.0,0.0,0.0,0.0,0.0,0.0,0.0,0.0,0.0,0.0,0.0,0.0,0.0,0.0,0.0,0.0,0.0,0.0,0.0,0.0,0.0,0.0,0.0,0.0,0.0,0.0,0.0,0.0,0.0,0.0,0.0,0.0,0.0,0.0,0.0,0.0,0.0,0.0,0.0,0.0,0.0,0.0,0.0,0.0,0.0,0.0,0.0,0.0,0.0,0.0,0.0,0.0,0.0,0.0,0.0,0.0,0.0,0.0,0.0,0.0,0.0,0.0,0.0,0.0,0.0,0.0,0.0,0.0,0.0,0.0,0.0,0.0,0.0,0.0,0.0,0.0,0.0,0.0,0.0,0.0,0.0,0.0,0.0,0.0,0.0,0.0,0.0,0.0,0.0,0.0,0.0,0.0,0.0,0.0,0.0,0.0,0.0,0.0,0.0,0.0,0.0,0.0,0.0,0.0,0.0,0.0,0.0,0.0,0.0,0.0,0.0,0.0,0.0,0.0,0.0,0.0,0.0,0.0,0.0,0.0,0.0,0.0,0.0,0.0,0.0,0.0,0.0,0.0,0.0,0.0,0.0,0.0,0.0,0.0,0.0,0.0,0.0,0.0,0.0,0.0,0.0,0.0,0.0,0.0,0.0,0.0,0.0,0.0,0.0,0.0,0.0,0.0,0.0,0.0,0.0,0.0,0.0,0.0,0.0,0.0,0.0,0.0,0.0,0.0,0.0,0.0,0.0,0.0,0.0,0.0,0.0,0.0,0.0,0.0,0.0,0.0,0.0,0.0,0.0,0.0,0.0,0.0,0.0,0.0,0.0,0.0,0.0,0.0,0.0,0.0,0.0,0.0,0.0,0.0,0.0,0.0,0.0,0.0,0.0,0.0,0.0,0.0,0.0,0.0,0.0,0.0,0.0,0.0,0.0,0.0,0.0,0.0,0.0,0.0,0.0,0.0,0.0,0.0,0.0,0.0,0.0,0.0,0.0,0.0,0.0,0.0,0.0,0.0,0.0,0.0,0.0,0.0,0.0,0.0,0.0,0.0,0.0,0.0,0.0,0.0,0.0,0.0,0.0,0.0,0.0,0.0,0.0,0.0,0.0,0.0,0.0,0.0,0.0,0.0,0.0,0.0,0.0,0.0,0.0,0.0,0.0,0.0,0.0,0.0,0.0,0.0,0.0,0.0,0.0,0.0,0.0,0.0,0.0,0.0,0.0,0.0,0.0,0.0,0.0,0.0,0.0,0.0,0.0,0.0,0.0,0.0,0.0,0.0,0.0,0.0,0.0,0.0,0.0,0.0,0.0,0.0,0.0,0.0,0.0,0.0,0.0,0.0,0.0,0.0,0.0,0.0,0.0,0.0,0.0,0.0,0.0,0.0,0.0]}]]]